[[{"header":{"parameterUnit":"m.s-1","parameterCategory":1,"la1":30.6,"la2":28.766,"lo1":-90.7593,"lo2":-88.6598,"dy":0.0162,"dx":0.0183,"nx":116,"ny":114,"refTime":"2023-09-20T00:00:00:Z","depth":0,"parameterNumber":2,"parameterNumberName":"U-component_of_WINDS"},"data":[0.0,0.0,0.0,0.0,0.0,0.0,0.0,0.0,0.0,0.0,0.0,0.0,0.0,0.0,0.0,0.0,0.0,0.0,0.0,0.0,0.0,0.0,0.0,0.0,0.0,0.0,0.0,0.0,0.0,0.0,0.0,0.0,0.0,0.0,0.0,0.0,0.0,0.0,0.0,0.0,0.0,0.0,0.0,0.0,0.0,0.0,0.0,0.0,0.0,0.0,0.0,0.0,0.0,0.0,0.0,0.0,0.0,0.0,0.0,0.0,0.0,0.0,0.0,0.0,0.0,0.0,0.0,0.0,0.0,0.0,0.0,0.0,0.0,0.0,0.0,0.0,0.0,0.0,0.0,0.0,0.0,0.0,0.0,0.0,0.0,0.0,0.0,0.0,0.0,0.0,0.0,0.0,0.0,0.0,0.0,0.0,0.0,0.0,0.0,0.0,0.0,0.0,0.0,0.0,0.0,0.0,0.0,0.0,0.0,0.0,0.0,0.0,0.0,0.0,0.0,0.0,0.0,0.0,0.0,0.0,0.0,0.0,0.0,0.0,0.0,0.0,0.0,0.0,0.0,0.0,0.0,0.0,0.0,0.0,0.0,0.0,0.0,0.0,0.0,0.0,0.0,0.0,0.0,0.0,0.0,0.0,0.0,0.0,0.0,0.0,0.0,0.0,0.0,0.0,0.0,0.0,0.0,0.0,0.0,0.0,0.0,0.0,0.0,0.0,0.0,0.0,0.0,0.0,0.0,0.0,0.0,0.0,0.0,0.0,0.0,0.0,0.0,0.0,0.0,0.0,0.0,0.0,0.0,0.0,0.0,0.0,0.0,0.0,0.0,0.0,0.0,0.0,0.0,0.0,0.0,0.0,0.0,0.0,0.0,0.0,0.0,0.0,0.0,0.0,0.0,0.0,0.0,0.0,0.0,0.0,0.0,0.0,0.0,0.0,0.0,0.0,0.0,0.0,0.0,0.0,0.0,0.0,0.0,0.0,0.0,0.0,0.0,0.0,0.0,0.0,0.0,0.0,0.0,0.0,0.0,0.0,0.0,0.0,0.0,0.0,0.0,0.0,0.0,0.0,0.0,0.0,0.0,0.0,0.0,0.0,0.0,0.0,0.0,0.0,0.0,0.0,0.0,0.0,0.0,0.0,0.0,0.0,0.0,0.0,0.0,0.0,0.0,0.0,0.0,0.0,0.0,0.0,0.0,0.0,0.0,0.0,0.0,0.0,0.0,0.0,0.0,0.0,0.0,0.0,0.0,0.0,0.0,0.0,0.0,0.0,0.0,0.0,0.0,0.0,0.0,0.0,0.0,0.0,0.0,0.0,0.0,0.0,0.0,0.0,0.0,0.0,0.0,0.0,0.0,0.0,0.0,0.0,0.0,0.0,0.0,0.0,0.0,0.0,0.0,0.0,0.0,0.0,0.0,0.0,0.0,0.0,0.0,0.0,0.0,0.0,0.0,0.0,0.0,0.0,0.0,0.0,0.0,0.0,0.0,0.0,0.0,0.0,0.0,0.0,0.0,0.0,0.0,0.0,0.0,0.0,0.0,0.0,0.0,0.0,0.0,0.0,0.0,0.0,0.0,0.0,0.0,0.0,0.0,0.0,0.0,0.0,0.0,0.0,0.0,0.0,0.0,0.0,0.0,0.0,0.0,0.0,0.0,0.0,0.0,0.0,0.0,0.0,0.0,0.0,0.0,0.0,0.0,0.0,0.0,0.0,0.0,0.0,0.0,0.0,0.0,0.0,0.0,0.0,0.0,0.0,0.0,0.0,0.0,0.0,0.0,0.0,0.0,0.0,0.0,0.0,0.0,0.0,0.0,0.0,0.0,0.0,0.0,0.0,0.0,0.0,0.0,0.0,0.0,0.0,0.0,0.0,0.0,0.0,0.0,0.0,0.0,0.0,0.0,0.0,0.0,0.0,0.0,0.0,0.0,0.0,0.0,0.0,0.0,0.0,0.0,0.0,0.0,0.0,0.0,0.0,0.0,0.0,0.0,0.0,0.0,0.0,0.0,0.0,0.0,0.0,0.0,0.0,0.0,0.0,0.0,0.0,0.0,0.0,0.0,0.0,0.0,0.0,0.0,0.0,0.0,0.0,0.0,0.0,0.0,0.0,0.0,0.0,0.0,0.0,0.0,0.0,0.0,0.0,0.0,0.0,0.0,0.0,0.0,0.0,0.0,0.0,0.0,0.0,0.0,0.0,0.0,0.0,0.0,0.0,0.0,0.0,0.0,0.0,0.0,0.0,0.0,0.0,0.0,0.0,0.0,0.0,0.0,0.0,0.0,0.0,0.0,0.0,0.0,0.0,0.0,0.0,0.0,0.0,0.0,0.0,0.0,0.0,0.0,0.0,0.0,0.0,0.0,0.0,0.0,0.0,0.0,0.0,0.0,0.0,0.0,0.0,0.0,0.0,0.0,0.0,0.0,0.0,0.0,0.0,0.0,0.0,0.0,0.0,0.0,0.0,0.0,0.0,0.0,0.0,0.0,0.0,0.0,0.0,0.0,0.0,0.0,0.0,0.0,0.0,0.0,0.0,0.0,0.0,0.0,0.0,0.0,0.0,0.0,0.0,0.0,0.0,0.0,0.0,0.0,0.0,0.0,0.0,0.0,0.0,0.0,0.0,0.0,0.0,0.0,0.0,0.0,0.0,0.0,0.0,0.0,0.0,0.0,0.0,0.0,0.0,0.0,0.0,0.0,0.0,0.0,0.0,0.0,0.0,0.0,0.0,0.0,0.0,0.0,0.0,0.0,0.0,0.0,0.0,0.0,0.0,0.0,0.0,0.0,0.0,0.0,0.0,0.0,0.0,0.0,0.0,0.0,0.0,0.0,0.0,0.0,0.0,0.0,0.0,0.0,0.0,0.0,0.0,0.0,0.0,0.0,0.0,0.0,0.0,0.0,0.0,0.0,0.0,0.0,0.0,0.0,0.0,0.0,0.0,0.0,0.0,0.0,0.0,0.0,0.0,0.0,0.0,0.0,0.0,0.0,0.0,0.0,0.0,0.0,0.0,0.0,0.0,0.0,0.0,0.0,0.0,0.0,0.0,0.0,0.0,0.0,0.0,0.0,0.0,0.0,0.0,0.0,0.0,0.0,0.0,0.0,0.0,0.0,0.0,0.0,0.0,0.0,0.0,0.0,0.0,0.0,0.0,0.0,0.0,0.0,0.0,0.0,0.0,0.0,0.0,0.0,0.0,0.0,0.0,0.0,0.0,0.0,0.0,0.0,0.0,0.0,0.0,0.0,0.0,0.0,0.0,0.0,0.0,0.0,0.0,0.0,0.0,0.0,0.0,0.0,0.0,0.0,0.0,0.0,0.0,0.0,0.0,0.0,0.0,0.0,0.0,0.0,0.0,0.0,0.0,0.0,0.0,0.0,0.0,0.0,0.0,0.0,0.0,0.0,0.0,0.0,0.0,0.0,0.0,0.0,0.0,0.0,0.0,0.0,0.0,0.0,0.0,0.0,0.0,0.0,0.0,0.0,0.0,0.0,0.0,0.0,0.0,0.0,0.0,0.0,0.0,0.0,0.0,0.0,0.0,0.0,0.0,0.0,0.0,0.0,0.0,0.0,0.0,0.0,0.0,0.0,0.0,0.0,0.0,0.0,0.0,0.0,0.0,0.0,0.0,0.0,0.0,0.0,0.0,0.0,0.0,0.0,0.0,0.0,0.0,0.0,0.0,0.0,0.0,0.0,0.0,0.0,0.0,0.0,0.0,0.0,0.0,0.0,0.0,0.0,0.0,0.0,0.0,0.0,0.0,0.0,0.0,0.0,0.0,0.0,0.0,0.0,0.0,0.0,0.0,0.0,0.0,0.0,0.0,0.0,0.0,0.0,0.0,0.0,0.0,0.0,0.0,0.0,0.0,0.0,0.0,0.0,0.0,0.0,0.0,0.0,0.0,0.0,0.0,0.0,0.0,0.0,0.0,0.0,0.0,0.0,0.0,0.0,0.0,0.0,0.0,0.0,0.0,0.0,0.0,0.0,0.0,0.0,0.0,0.0,0.0,0.0,0.0,0.0,0.0,0.0,0.0,0.0,0.0,0.0,0.0,0.0,0.0,0.0,0.0,0.0,0.0,0.0,0.0,0.0,0.0,0.0,0.0,0.0,0.0,0.0,0.0,0.0,0.0,0.0,0.0,0.0,0.0,0.0,0.0,0.0,0.0,0.0,0.0,0.0,0.0,0.0,0.0,0.0,0.0,0.0,0.0,0.0,0.0,0.0,0.0,0.0,0.0,0.0,0.0,0.0,0.0,0.0,0.0,0.0,0.0,0.0,0.0,0.0,0.0,0.0,0.0,0.0,0.0,0.0,0.0,0.0,0.0,0.0,0.0,0.0,0.0,0.0,0.0,0.0,0.0,0.0,0.0,0.0,0.0,0.0,0.0,0.0,0.0,0.0,0.0,0.0,0.0,0.0,0.0,0.0,0.0,0.0,0.0,0.0,0.0,0.0,0.0,0.0,0.0,0.0,0.0,0.0,0.0,0.0,0.0,0.0,0.0,0.0,0.0,0.0,0.0,0.0,0.0,0.0,0.0,0.0,0.0,0.0,0.0,0.0,0.0,0.0,0.0,0.0,0.0,0.0,0.0,0.0,0.0,0.0,0.0,0.0,0.0,0.0,0.0,0.0,0.0,0.0,0.0,0.0,0.0,0.0,0.0,0.0,0.0,0.0,0.0,0.0,0.0,0.0,0.0,0.0,0.0,0.0,0.0,0.0,0.0,0.0,0.0,0.0,0.0,0.0,0.0,0.0,0.0,0.0,0.0,0.0,0.0,0.0,0.0,0.0,0.0,0.0,0.0,0.0,0.0,0.0,0.0,0.0,0.0,0.0,0.0,0.0,0.0,0.0,0.0,0.0,0.0,0.0,0.0,0.0,0.0,0.0,0.0,0.0,0.0,0.0,0.0,0.0,0.0,0.0,0.0,0.0,0.0,0.0,0.0,0.0,0.0,0.0,0.0,0.0,0.0,0.0,0.0,0.0,0.0,0.0,0.0,0.0,0.0,0.0,0.0,0.0,0.0,0.0,0.0,0.0,0.0,0.0,0.0,0.0,0.0,0.0,0.0,0.0,0.0,0.0,0.0,0.0,0.0,0.0,0.0,0.0,0.0,0.0,0.0,0.0,0.0,0.0,0.0,0.0,0.0,0.0,0.0,0.0,0.0,0.0,0.0,0.0,0.0,0.0,0.0,0.0,0.0,0.0,0.0,0.0,0.0,0.0,0.0,0.0,0.0,0.0,0.0,0.0,0.0,0.0,0.0,0.0,0.0,0.0,0.0,0.0,0.0,0.0,0.0,0.0,0.0,0.0,0.0,0.0,0.0,0.0,0.0,0.0,0.0,0.0,0.0,0.0,0.0,0.0,0.0,0.0,0.0,0.0,0.0,0.0,0.0,0.0,0.0,0.0,0.0,0.0,0.0,0.0,0.0,0.0,0.0,0.0,0.0,0.0,0.0,0.0,0.0,0.0,0.0,0.0,0.0,0.0,0.0,0.0,0.0,0.0,0.0,0.0,0.0,0.0,0.0,0.0,0.0,0.0,0.0,0.0,0.0,0.0,0.0,0.0,0.0,0.0,0.0,0.0,0.0,0.0,0.0,0.0,0.0,0.0,0.0,0.0,0.0,0.0,0.0,0.0,0.0,0.0,0.0,0.0,0.0,0.0,0.0,0.0,0.0,0.0,0.0,0.0,0.0,0.0,0.0,0.0,0.0,0.0,0.0,0.0,0.0,0.0,0.0,0.0,0.0,0.0,0.0,0.0,0.0,0.0,0.0,0.0,0.0,0.0,0.0,0.0,0.0,0.0,0.0,0.0,0.0,0.0,0.0,0.0,0.0,0.0,0.0,0.0,0.0,0.0,0.0,0.0,0.0,0.0,0.0,0.0,0.0,0.0,0.0,0.0,0.0,0.0,0.0,0.0,0.0,0.0,0.0,0.0,0.0,0.0,0.0,0.0,0.0,0.0,0.0,0.0,0.0,0.0,0.0,0.0,0.0,0.0,0.0,0.0,0.0,0.0,0.0,0.0,0.0,0.0,0.0,0.0,0.0,0.0,0.0,0.0,0.0,0.0,0.0,0.0,0.0,2.2262,2.2569,0.0,0.0,0.0,0.0,0.0,0.0,0.0,0.0,0.0,0.0,0.0,0.0,0.0,0.0,0.0,0.0,0.0,0.0,0.0,0.0,0.0,0.0,0.0,0.0,0.0,0.0,0.0,0.0,0.0,0.0,0.0,0.0,0.0,0.0,0.0,0.0,0.0,0.0,1.8158,1.5079,0.9678,1.2027,1.2435,1.1302,0.0,0.0,0.0,0.0,0.0,0.0,0.0,0.0,0.0,0.0,0.0,0.0,0.0,0.0,0.0,0.0,0.0,0.0,0.0,0.0,0.0,0.0,0.0,0.0,0.0,0.0,0.0,0.0,0.0,0.0,0.0,0.0,0.0,0.0,0.0,0.0,0.0,0.0,0.0,0.0,0.0,0.0,0.0,0.0,0.0,0.0,0.0,0.0,0.0,0.0,0.0,0.0,0.0,0.0,0.0,0.0,0.0,0.0,0.0,0.0,0.0,0.0,0.0,0.0,0.0,0.0,0.0,0.0,0.0,0.0,2.1967,2.2321,0.0,0.0,0.0,0.0,0.0,0.0,0.0,0.0,0.0,0.0,0.0,0.0,0.0,0.0,0.0,0.0,0.0,0.0,0.0,0.0,0.0,0.0,0.0,0.0,-2.0894,-2.1748,-2.196,-1.9821,0.0,0.0,0.0,0.0,0.0,0.0,0.0,0.0,0.0,0.0,1.3477,1.0767,0.5176,0.6671,0.764,0.8327,1.3879,0.0,0.0,0.0,0.0,0.0,0.0,0.0,0.0,0.0,0.0,0.0,0.0,0.0,0.0,0.0,0.0,0.0,0.0,0.0,0.0,0.0,0.0,0.0,0.0,0.0,0.0,0.0,0.0,0.0,0.0,0.0,0.0,0.0,0.0,0.0,0.0,0.0,0.0,0.0,0.0,0.0,0.0,0.0,0.0,0.0,0.0,0.0,0.0,0.0,0.0,0.0,0.0,0.0,0.0,0.0,0.0,0.0,0.0,0.0,0.0,0.0,0.0,0.0,2.6156,2.4857,2.4554,2.3351,2.2361,2.1612,2.197,2.2398,2.2906,2.3794,0.0,0.0,0.0,0.0,0.0,0.0,0.0,0.0,0.0,0.0,0.0,0.0,0.0,0.0,0.0,0.0,0.0,0.0,0.0,0.0,0.0,-2.1439,-2.1828,-2.2579,-2.333,-2.2159,0.0,0.0,0.0,0.0,0.0,0.0,0.0,0.3982,0.5248,0.3932,0.3976,0.298,0.099,0.1437,0.1818,0.247,1.0731,1.4288,1.4245,0.0,0.0,0.0,0.0,0.0,0.0,0.0,0.0,0.0,0.0,0.0,0.0,0.0,0.0,0.0,0.0,0.0,0.0,0.0,0.0,0.0,0.0,0.0,0.0,0.0,0.0,0.0,0.0,0.0,0.0,0.0,0.0,0.0,0.0,0.0,0.0,0.0,0.0,0.0,0.0,0.0,2.8169,2.8888,0.0,0.0,0.0,0.0,0.0,0.0,0.0,0.0,0.0,0.0,0.0,0.0,0.0,3.1052,3.0794,2.923,2.8448,2.841,2.6012,2.4465,2.3792,2.3185,2.2444,2.1626,2.1968,0.0,2.2139,2.2259,0.0,0.0,0.0,0.0,0.0,0.0,0.0,0.0,0.0,0.0,0.0,0.0,0.0,0.0,0.0,0.0,0.0,0.0,0.0,0.0,0.0,-2.1349,-2.168,-2.292,-2.2281,-2.1843,-2.1951,-2.0097,0.0,0.0,0.0,0.0,0.0,0.0232,0.1449,0.0496,-0.227,-0.3219,-0.2358,-0.0309,0.0679,0.1109,0.6799,0.9911,1.1061,1.2815,0.0,0.0,0.0,0.0,0.0,0.0,0.0,0.0,0.0,0.0,0.0,0.0,0.0,0.0,0.0,0.0,0.0,0.0,0.0,0.0,0.0,0.0,0.0,0.0,0.0,0.0,0.0,0.0,0.0,0.0,0.0,0.0,0.0,0.0,0.0,0.0,0.0,0.0,0.0,2.9699,3.0182,3.0577,3.1164,3.1724,0.0,0.0,0.0,0.0,0.0,0.0,0.0,0.0,0.0,3.2212,3.216,3.1858,3.1314,3.0192,2.9549,2.932,2.7242,2.585,2.5081,2.4542,2.3675,2.2714,2.2895,2.2809,2.2524,2.2376,2.2907,2.3798,0.0,0.0,0.0,0.0,2.5948,2.6348,0.0,0.0,0.0,0.0,0.0,0.0,0.0,0.0,0.0,0.0,0.0,0.0,-2.1894,-2.1768,-2.2173,-2.3422,-2.2209,-2.2242,-2.4294,-2.403,0.0,0.0,0.0,0.0,-0.9758,-0.6483,-0.4458,-0.3725,-0.7391,-0.7846,-0.5339,-0.2763,-0.1187,-0.0378,0.26,0.5655,0.8747,1.0723,1.2423,1.3853,0.0,0.0,0.0,0.0,0.0,0.0,0.0,0.0,0.0,0.0,0.0,0.0,0.0,0.0,0.0,0.0,0.0,0.0,0.0,0.0,0.0,0.0,0.0,0.0,0.0,0.0,0.0,0.0,0.0,0.0,0.0,0.0,0.0,0.0,0.0,0.0,0.0,3.1598,3.2037,3.2113,3.273,3.3193,0.0,0.0,0.0,0.0,0.0,0.0,3.3825,3.3645,3.332,3.2806,3.2941,3.2655,3.1907,3.1453,3.0996,3.054,2.9077,2.7889,2.6841,2.6396,2.5415,2.4038,2.4202,2.3827,2.3111,2.2678,2.275,2.3192,2.3611,2.4385,2.5229,2.517,2.5451,2.5925,0.0,0.0,0.0,0.0,0.0,0.0,0.0,0.0,0.0,0.0,0.0,-2.1776,-2.2727,-2.3539,-2.414,-2.4415,-2.4866,-2.4946,-2.4516,-2.4939,-2.5426,-2.5926,-2.5943,-2.6493,-2.7669,-2.2712,-1.7321,-1.1737,-1.1741,-1.0439,-0.7996,-0.7681,-0.6338,-0.3946,-0.1721,0.2838,0.9033,0.9873,1.1533,1.3788,1.5622,0.0,0.0,0.0,0.0,0.0,0.0,0.0,0.0,0.0,0.0,0.0,0.0,0.0,0.0,0.0,0.0,0.0,0.0,0.0,0.0,0.0,0.0,0.0,0.0,0.0,0.0,0.0,0.0,0.0,0.0,0.0,0.0,0.0,0.0,0.0,0.0,0.0,0.0,3.3025,3.3025,0.0,0.0,0.0,0.0,3.4638,3.5329,3.5696,3.5493,3.5232,3.4859,3.44,3.3914,3.3367,3.2741,3.2826,3.2513,3.1817,3.135,3.0262,2.8758,2.8604,2.7374,2.5331,2.5769,2.5141,2.3676,2.2705,2.2682,2.325,2.2905,2.3268,2.4042,2.4491,2.4632,2.4951,0.0,0.0,0.0,0.0,0.0,0.0,0.0,0.0,-2.0039,-2.0182,-2.139,-2.2418,-2.2843,-2.3362,-2.3906,-2.4449,-2.343,-2.3252,-2.4417,-2.4718,-2.5365,-2.6553,-2.7099,-2.6836,-2.5678,-2.4343,-2.0712,-1.4705,-1.4571,-1.3199,-1.0646,-0.9054,-0.7726,-0.6733,-0.4369,-0.1117,0.2912,0.5994,0.9101,1.2058,1.3143,1.4888,0.0,0.0,0.0,0.0,0.0,0.0,0.0,0.0,0.0,0.0,0.0,0.0,0.0,0.0,0.0,0.0,0.0,0.0,0.0,0.0,0.0,0.0,0.0,0.0,0.0,0.0,0.0,0.0,0.0,0.0,0.0,0.0,0.0,0.0,0.0,0.0,0.0,3.3716,3.4301,0.0,3.4797,3.521,3.5476,3.5466,3.5738,3.6086,3.6483,3.6323,3.632,3.6482,3.607,3.5536,3.4914,3.4372,3.3661,3.2723,3.2118,3.1065,2.9713,2.9079,2.8054,2.6742,2.6403,2.5807,2.4979,2.3793,2.2863,2.2172,2.1757,2.2138,2.2931,2.3199,2.3821,2.4705,0.0,0.0,0.0,0.0,0.0,0.0,0.0,0.0,-2.0081,-2.0188,-2.1676,-2.2773,-2.2894,-2.3599,-2.4209,-2.4515,-2.3393,-2.3344,-2.4842,-2.5148,-2.5942,-2.7409,-2.8233,0.0,0.0,-2.5045,-2.2771,-1.8154,-1.7527,-1.5898,-1.338,-1.1667,-0.9942,-0.8201,-0.6561,-0.3957,-0.0726,0.2296,0.5743,0.9397,1.1036,1.3024,1.5013,0.0,0.0,0.0,0.0,0.0,0.0,0.0,0.0,0.0,0.0,0.0,0.0,0.0,0.0,0.0,0.0,0.0,0.0,0.0,0.0,0.0,0.0,0.0,0.0,0.0,0.0,0.0,0.0,0.0,0.0,0.0,0.0,0.0,0.0,3.416,3.448,3.4596,3.5222,3.5678,3.5757,3.6099,3.6333,3.6343,3.6621,3.6962,3.742,3.7307,3.7359,3.7592,3.7213,3.6708,3.6121,3.548,3.4731,3.3826,3.3131,3.2206,3.1028,3.0173,2.916,2.7991,2.7457,2.6791,2.5954,2.4897,2.3729,2.2466,2.1847,2.1908,2.2373,2.3052,2.3822,2.4725,0.0,0.0,0.0,0.0,0.0,0.0,0.0,-2.0009,-2.0125,-2.0194,-2.1717,-2.2824,-2.2882,-2.4393,-2.5188,-2.4683,-2.5098,-2.5513,-2.581,-2.6324,-2.7402,-2.9156,0.0,0.0,-2.775,-2.6039,-2.4297,-2.2456,-2.0681,-1.8618,-1.6297,-1.5967,-1.3304,-0.8748,-0.8395,-0.5709,-0.132,-0.0993,0.1646,0.5914,0.9479,1.1327,1.2202,0.0,0.0,0.0,0.0,0.0,0.0,0.0,0.0,0.0,0.0,0.0,0.0,0.0,0.0,0.0,0.0,0.0,0.0,0.0,0.0,0.0,0.0,0.0,0.0,0.0,0.0,0.0,0.0,0.0,0.0,0.0,0.0,0.0,3.5477,3.548,3.554,3.5611,3.5687,3.5807,3.5969,3.6742,3.723,3.723,3.8015,3.8455,3.8345,3.821,3.7995,3.7687,3.7289,3.6783,3.6195,3.6139,3.5817,3.5111,3.4479,3.3668,3.2671,3.1849,3.0644,2.9162,2.9099,2.8091,2.6414,2.5963,2.5252,2.4337,2.3202,2.2628,2.2617,2.4131,2.4707,2.5052,0.0,0.0,0.0,0.0,0.0,0.0,0.0,-1.9979,-2.0065,-2.0185,-2.1672,-2.2763,-2.2895,-2.444,-2.5412,-2.5274,-2.5385,-2.5735,-2.6343,-2.705,-2.8237,-2.9914,0.0,0.0,-2.7816,-2.726,-2.6125,-2.4351,-2.3845,-2.3537,-2.3412,-2.008,-1.808,-1.6994,-1.1732,-0.8476,-0.6713,-0.3057,-0.077,0.0974,0.6655,0.9879,1.1574,0.0,0.0,0.0,0.0,0.0,0.0,0.0,0.0,0.0,0.0,0.0,0.0,0.0,0.0,0.0,0.0,0.0,0.0,0.0,0.0,0.0,0.0,0.0,0.0,0.0,0.0,0.0,0.0,0.0,0.0,0.0,3.6762,3.6031,3.5502,3.5345,3.5547,3.624,3.6474,3.6841,3.7491,3.7821,3.8023,3.8072,3.8245,3.8638,3.9271,3.9107,3.9109,3.9388,3.8927,3.8454,3.8058,3.7288,3.6573,3.5866,3.4742,3.3735,3.2864,3.1664,3.0807,3.0297,2.9121,2.8352,2.7683,2.6377,2.5392,2.4755,2.3913,2.3706,2.4009,2.4504,2.5087,2.5804,0.0,0.0,0.0,0.0,0.0,0.0,0.0,-1.9992,-2.0084,-2.0188,-2.1676,-2.2775,-2.2895,-2.4467,-2.549,-2.5413,-2.5418,-2.5874,-2.6992,-2.8164,-2.9079,-2.9691,0.0,-2.9869,-2.8836,-2.8089,-2.72,-2.6198,-2.5805,-2.5693,-2.5746,-2.3484,-2.2085,-2.1281,-1.698,-1.2019,-0.6676,-0.3679,0.0253,0.5006,1.0492,1.1459,0.9886,1.2801,1.6189,1.9656,2.197,2.4009,2.5932,2.774,0.0,0.0,0.0,0.0,0.0,0.0,0.0,0.0,0.0,0.0,0.0,0.0,0.0,0.0,0.0,0.0,0.0,0.0,0.0,0.0,0.0,0.0,0.0,0.0,3.7425,3.6915,3.6498,3.6426,3.6599,3.7123,3.7351,3.7704,3.8194,3.8608,3.8874,3.8949,3.9221,3.9606,4.0129,3.992,3.9877,4.0005,3.9538,3.9136,3.8818,3.7684,3.6907,3.6521,3.4825,3.3735,3.3182,3.1905,3.1073,3.0644,2.967,2.8853,2.8078,2.6989,2.6032,2.5288,0.0,0.0,0.0,0.0,2.5382,2.5955,0.0,0.0,0.0,0.0,0.0,0.0,0.0,-2.0063,-2.0119,-2.0194,-2.1621,-2.2718,-2.2882,-2.437,-2.535,-2.5327,-2.532,-2.5954,-2.7479,-2.9143,-2.972,-2.8928,-2.9793,-3.0271,-3.0204,-2.8741,-2.8035,-2.8125,-2.7338,-2.6602,-2.5964,-2.6563,-2.5695,-2.3597,-2.2975,-1.6481,-0.5955,-0.5434,0.1074,1.131,1.4889,1.3407,0.9271,1.1087,1.4825,1.9491,2.2733,2.4877,2.6604,2.878,0.0,0.0,0.0,0.0,0.0,0.0,0.0,0.0,0.0,0.0,0.0,0.0,0.0,0.0,0.0,0.0,0.0,0.0,0.0,0.0,0.0,0.0,0.0,0.0,3.7879,3.795,3.8174,3.8323,3.8338,3.8188,3.8322,3.8481,3.8577,3.9287,3.9768,3.9825,4.0501,4.0859,4.0789,4.059,0.0,0.0,0.0,3.9119,3.8748,3.7578,3.6981,3.6943,3.4825,3.3684,3.3531,3.2342,3.1351,3.0584,3.0372,2.947,2.8051,2.767,2.6824,2.5758,2.5087,2.4564,2.4337,2.5229,2.5535,2.5746,0.0,0.0,0.0,0.0,0.0,0.0,0.0,-2.0098,-2.0123,-2.0188,-2.1061,-2.1987,-2.2798,-2.3828,-2.4714,-2.5395,-2.5469,-2.5855,-2.6753,-2.8325,-2.9128,-2.8909,-2.9796,-3.0271,-3.0195,-2.9873,-3.0066,-3.0762,-3.054,-3.0729,-3.1284,-3.0468,-2.9853,-2.9251,-2.5954,-2.3053,-2.0464,-1.8122,-1.0648,-0.0433,0.0376,0.7099,1.6855,1.8398,2.116,2.4028,2.2894,2.4991,2.8414,2.9016,3.023,3.1533,3.1826,3.2057,0.0,0.0,0.0,0.0,0.0,0.0,0.0,0.0,0.0,0.0,0.0,0.0,0.0,0.0,0.0,0.0,0.0,0.0,0.0,3.9555,3.9282,3.9173,3.9967,4.0105,3.9868,3.9206,3.9204,3.9569,4.0312,4.0556,4.0645,4.066,4.081,4.0811,4.0642,4.0511,4.01,3.9443,3.9231,3.8886,3.8322,3.7285,3.6746,3.6729,3.4636,0.0,3.3391,3.2287,3.1597,3.1278,3.0613,2.9732,2.8748,2.7855,2.6744,2.5606,2.5312,2.5158,2.5087,2.5312,2.5382,2.5581,0.0,0.0,0.0,0.0,0.0,0.0,0.0,-2.0089,-2.0118,-2.0191,-2.0908,-2.1784,-2.2792,-2.3688,-2.4528,-2.5325,-2.5767,-2.5974,-2.5894,-2.7847,-2.88,-2.833,-2.9628,-3.0312,-3.0249,-3.0326,-3.0774,-3.1646,-3.2014,-3.245,-3.2881,-3.266,-3.247,-3.2275,-3.0393,-2.6532,-2.1321,-2.0112,-1.3111,-0.2756,-0.1653,0.5887,1.6704,1.8881,2.192,2.4926,2.4896,2.6314,2.8493,2.9734,3.0784,3.1579,3.1839,3.202,3.2214,0.0,0.0,0.0,0.0,0.0,0.0,0.0,0.0,0.0,0.0,0.0,0.0,0.0,0.0,3.8495,3.9003,0.0,3.9162,3.9929,3.9938,4.0038,4.0571,4.0641,4.0502,4.0138,4.013,4.0339,4.0849,4.0907,4.0908,4.0945,4.0888,4.0726,4.0462,4.0317,3.9863,3.9017,3.8934,3.8493,3.7721,3.6999,3.6504,3.6256,3.4072,3.3135,3.3339,3.1849,3.1219,3.1351,3.0881,3.0088,2.9084,2.7859,2.716,2.6816,2.6732,2.6572,2.6291,2.6287,2.6732,2.75,0.0,0.0,0.0,0.0,0.0,0.0,0.0,-2.0108,-2.0148,-2.0208,-2.0769,-2.1613,-2.2773,-2.3535,-2.433,-2.5255,-2.5931,-2.6014,0.0,-2.7304,-2.8307,-2.776,-2.9266,-3.0175,-3.0309,-3.0417,-3.0907,-3.1763,-3.2576,-3.2966,-3.2992,-3.3906,-3.4128,-3.3802,-3.4174,-2.9494,-2.1379,-2.1758,-1.5428,-0.4918,-0.2656,0.3674,1.2066,1.4903,1.9959,2.5687,2.7067,2.7875,2.8568,3.0501,3.1173,3.1235,3.1385,3.1538,3.178,3.2212,3.2459,0.0,0.0,0.0,0.0,0.0,0.0,0.0,0.0,3.7359,3.807,3.8723,3.8925,3.9051,3.927,3.9675,3.9945,3.9775,4.0157,4.0496,4.0604,4.0673,4.0731,4.081,4.082,4.0835,4.0896,4.0896,4.0928,4.0976,4.0882,4.0688,4.031,4.0174,3.9694,3.873,3.87,3.8227,3.7228,3.6764,3.6316,3.5847,3.3489,3.2663,3.3098,3.1292,3.0638,3.1027,3.0797,3.0023,2.8807,2.764,2.7484,2.7827,2.7964,2.7946,2.7797,2.7642,2.8409,2.9491,0.0,0.0,0.0,0.0,0.0,0.0,0.0,0.0,0.0,-2.0289,-2.0322,-2.0997,-2.2714,-2.2988,-2.3703,-2.5348,-2.5566,-2.5565,-2.5464,-2.6342,-2.7161,-2.7846,-2.8696,-2.9527,-3.0274,-3.0374,-3.0808,-3.1621,-3.2434,-3.2856,-3.2946,-3.4452,-3.4774,-3.4096,-3.4826,-3.4335,-3.2947,-3.3042,-2.6558,-1.5994,-1.3618,-0.6218,0.3633,0.6175,1.6574,2.9583,2.7938,2.8645,3.0427,3.0797,3.0952,3.0992,3.119,3.123,3.1443,3.2241,3.2647,3.3072,3.4119,3.4012,3.3656,3.355,3.4123,3.4708,0.0,3.6158,3.7484,3.7578,3.7943,3.8291,3.8493,3.8915,3.9282,3.9489,3.9986,4.0331,4.0346,4.0595,4.0813,4.089,4.0834,4.0821,4.0899,4.0899,4.089,4.0914,4.0952,4.074,4.0237,4.0185,3.973,3.8741,3.87,3.8227,3.7228,3.6666,3.6172,3.5698,3.3335,3.2268,3.2299,3.0805,3.0191,3.0219,2.9578,2.8621,2.7421,2.7286,2.7087,2.7013,2.7569,2.8612,2.9712,2.9269,2.9183,2.9394,0.0,0.0,0.0,0.0,0.0,0.0,0.0,0.0,0.0,0.0,-2.0166,-2.0706,-2.2006,-2.3061,-2.4151,-2.5395,-2.5492,0.0,-2.5503,-2.6234,-2.7048,-2.793,-2.873,-2.955,-3.0409,-3.0486,-3.0921,-3.1763,-3.2068,-3.2499,-3.3039,-3.3658,-3.3958,-3.3942,-3.4449,-3.4553,-3.4412,-3.4757,-3.1998,-2.716,-2.4912,-1.7399,-0.726,-0.4749,0.4555,1.6317,1.6817,1.7643,0.0,2.4129,2.5827,2.6498,2.9926,3.1335,3.1739,3.2246,3.2757,3.309,3.265,3.2967,3.3234,3.2488,3.2846,3.3684,3.4655,3.5624,3.6519,3.7041,3.7432,3.7809,3.8165,3.8704,3.9125,3.9249,3.985,4.0327,4.0395,4.0664,4.0901,4.1009,4.0889,4.0847,4.0953,4.0955,4.0974,4.1013,4.0972,4.0794,4.0449,4.0196,3.9673,3.885,3.8645,3.791,3.6626,3.6381,3.5933,3.5224,3.3099,3.2258,3.2516,3.0807,3.0038,3.0065,2.9476,2.9074,2.8855,2.7645,2.7997,2.9126,2.8909,2.9819,3.1089,2.9973,3.0103,3.0972,0.0,0.0,0.0,0.0,0.0,0.0,0.0,0.0,0.0,0.0,-2.0156,-2.0581,-2.1499,-2.3156,-2.4459,-2.5097,-2.5355,0.0,0.0,-2.603,-2.6753,-2.7606,-2.8474,-2.9338,-3.0154,-3.0458,-3.0898,-3.1507,-3.1713,-3.2118,-3.2736,-3.2905,-3.3203,-3.3593,-3.3761,-3.3912,-3.4036,-3.4326,-3.4323,-3.3902,-3.1587,-2.5841,-1.8359,-1.5089,-0.8886,-0.0943,0.6157,0.9219,1.0838,1.6871,1.9477,2.0891,2.5001,2.6628,2.7446,2.9527,3.1981,3.3705,3.2176,3.2416,3.2768,3.1451,3.1638,3.2453,3.3941,3.4722,3.5433,3.6253,3.6825,3.7319,3.7721,3.8255,3.8726,3.8952,3.9545,4.012,4.0417,4.0723,4.0952,4.1073,4.0944,4.0857,4.094,4.092,4.09,4.0957,4.0915,4.0782,4.0497,4.0268,3.9756,3.8883,3.8619,3.7683,3.6011,3.6174,3.5825,3.4939,3.3008,3.2378,3.2749,3.0701,2.9879,2.9966,2.9436,2.939,2.9465,2.8124,2.8585,3.0177,2.9539,3.0316,3.1636,3.0443,3.1044,3.239,0.0,0.0,0.0,0.0,0.0,0.0,0.0,0.0,0.0,0.0,0.0,0.0,0.0,-2.3161,-2.4204,-2.4242,-2.501,0.0,0.0,-2.5489,-2.5893,-2.6698,-2.7577,-2.8449,-2.9314,-3.0171,-3.0575,-3.0548,-3.1393,-3.1809,-3.1851,-3.2572,-3.2946,-3.3029,-3.296,-3.3269,-3.3789,-3.3478,-3.3639,-3.3864,-3.1129,-2.9813,-2.8996,-2.4035,-2.1962,-1.9172,-0.0353,0.8152,1.0511,1.0778,1.2638,1.4812,1.4727,1.4633,1.5893,2.2728,2.9873,3.5182,3.3599,3.3057,3.2576,3.0936,3.0764,3.1202,3.1769,3.3092,3.43,3.4841,3.589,3.6788,3.6999,3.7266,3.772,3.8571,3.9002,3.9502,4.0299,4.0684,4.0944,4.1089,4.0974,4.0877,4.0805,4.0696,4.0615,4.0615,4.0796,4.0706,4.0235,4.0393,3.9924,3.8756,3.8689,3.7641,3.543,3.6084,3.5971,3.5088,3.3126,3.243,3.2835,3.0351,2.9416,2.9819,2.9341,2.8609,2.7936,2.8327,2.845,2.8457,2.8554,2.9549,3.097,3.0895,3.1882,3.3157,0.0,0.0,0.0,0.0,0.0,0.0,0.0,0.0,0.0,0.0,0.0,0.0,0.0,0.0,0.0,0.0,-2.4677,-2.5206,0.0,-2.5284,-2.5712,-2.6652,-2.6978,-2.7826,-2.9272,-2.9586,-3.0018,-3.0564,-3.087,-3.0972,-3.0935,-3.1195,-3.1612,-3.2127,-3.2097,-3.2408,-3.2949,-3.3149,-3.3392,-3.3583,-3.2922,-3.171,-3.0149,-2.8313,-2.5394,-2.1387,0.0,-0.9847,-0.5294,0.2255,0.5327,0.6905,1.2308,1.4288,1.5976,2.2984,2.8829,3.2863,3.2275,3.0914,2.9568,2.8976,2.8947,2.9247,3.004,3.15,3.295,3.3729,3.5341,3.6696,3.7232,3.736,3.7787,3.9044,3.9286,3.9602,4.0354,4.0749,4.0957,4.0906,4.066,4.0447,4.0346,4.05,4.0655,4.0788,4.0864,4.0845,4.0735,4.0587,4.006,3.9064,3.8822,3.7859,3.6084,3.6308,3.5976,3.5117,3.3312,3.1898,3.1025,3.0021,2.9514,2.93,2.9131,2.8803,2.8247,2.7846,2.8585,3.0025,2.9474,3.0556,3.2403,3.1869,3.2403,3.3241,0.0,0.0,0.0,0.0,0.0,0.0,0.0,0.0,0.0,0.0,0.0,0.0,0.0,0.0,0.0,0.0,0.0,-2.4683,-2.5062,0.0,-2.549,-2.6147,-2.6505,-2.7354,-2.8767,-2.9093,-2.9683,-3.055,-3.0559,-3.0535,-3.0507,-3.0496,-3.08,-3.1311,-3.1281,-3.1635,-3.2264,-3.2449,-3.2901,-3.3488,-3.3532,-3.2832,-3.1574,-3.045,-2.7856,0.0,-2.259,-2.0025,-1.5984,-0.5578,-0.2386,-0.1459,0.6024,1.1575,1.6236,2.0729,2.6542,3.1387,3.0741,2.8956,2.7183,2.6848,2.7072,2.7565,2.8466,3.0368,3.206,3.2787,3.4755,3.6492,3.6946,3.702,3.7488,3.8894,3.9085,3.9402,4.0422,4.0739,4.0843,4.0797,4.0505,4.028,4.0192,4.0236,4.0354,4.0541,4.0607,4.07,4.083,4.0643,4.0133,3.9248,3.9208,3.8218,3.6078,3.6614,3.6169,3.4775,3.3405,3.2011,3.0508,3.0011,2.9611,2.9197,2.9131,2.8895,2.8578,2.7926,2.8609,2.9999,2.9409,3.0556,3.2403,3.1856,3.239,3.3241,0.0,0.0,0.0,0.0,0.0,0.0,0.0,0.0,0.0,0.0,0.0,0.0,0.0,0.0,0.0,0.0,0.0,0.0,-2.4803,0.0,0.0,-2.5182,-2.6111,-2.6998,-2.7808,-2.8685,-2.9553,-3.0422,-3.047,-3.0506,-3.0507,-3.0503,-3.054,-3.0598,-3.053,-3.0955,-3.1719,-3.1424,-3.2143,-3.3451,-3.3012,-3.324,-3.3576,-3.0924,-2.9833,-2.9015,-2.3904,-2.2106,-2.0783,-1.2354,-0.9737,-0.8901,-0.2712,0.7206,1.6605,1.659,2.3444,3.0698,2.9194,2.7293,2.5524,2.4685,2.5168,2.6058,2.6938,2.9365,3.145,3.1787,3.4039,3.6028,3.6191,3.6276,3.6781,3.8253,3.845,3.8931,4.0427,4.0605,4.0629,4.0752,4.0022,3.9538,3.9519,3.9157,3.8997,3.9112,3.9812,4.03,4.0491,4.0583,4.016,3.9207,3.9851,3.8665,3.5481,3.6795,3.6364,3.407,3.3516,3.2524,3.1145,3.0216,2.9611,2.9341,2.9197,2.8961,2.8803,2.8578,2.851,2.859,2.8578,2.9549,3.097,3.1044,3.1955,3.3171,0.0,0.0,0.0,0.0,0.0,0.0,0.0,0.0,0.0,0.0,0.0,0.0,0.0,0.0,0.0,0.0,0.0,0.0,-2.3973,0.0,0.0,0.0,0.0,0.0,0.0,0.0,0.0,-2.9387,-3.0183,-3.0569,-3.0564,-3.0521,-3.0542,-3.0606,-3.0578,-3.0704,-3.0916,-3.1192,-3.1641,-3.2246,-3.2846,-3.3178,-3.3261,-3.2956,-3.1458,-2.9145,-2.5886,-2.3514,-2.0997,-1.478,-0.7683,-0.0107,0.7461,1.5456,2.2014,2.2013,2.505,2.8419,2.8619,2.5598,2.2476,2.2955,2.3261,2.3616,2.4002,2.5673,2.7665,2.9592,3.1613,3.3776,3.6197,3.6422,3.6702,3.8111,3.8474,3.8873,3.9758,4.0168,4.0374,4.0357,3.3672,2.9042,2.8995,2.8749,2.8636,2.8783,3.5935,4.0412,4.0703,4.0732,4.0199,3.9024,3.9694,3.8402,3.499,3.4866,3.4383,3.3644,3.2947,3.2006,3.097,2.9947,2.9353,2.9209,2.8961,2.8724,2.8578,2.851,2.8882,2.9484,3.0075,3.0895,3.1856,3.2475,3.2945,3.3241,0.0,0.0,0.0,0.0,0.0,0.0,0.0,0.0,0.0,0.0,0.0,0.0,0.0,0.0,0.0,0.0,0.0,0.0,0.0,-2.3955,0.0,0.0,0.0,0.0,0.0,0.0,0.0,0.0,-2.9647,-3.0178,-3.0554,-3.0515,-3.0536,-3.0593,-3.0604,-3.0598,-3.0616,-3.0876,-3.1269,0.0,0.0,-3.2324,-3.2621,-3.3018,-3.2119,-3.0245,-2.6885,-2.1122,-1.4068,-0.7452,0.041,0.7887,1.0746,1.7472,2.4081,2.2932,2.4792,2.7096,2.644,2.3327,2.0518,2.1431,2.1735,2.2221,2.3876,2.5654,2.7687,3.0364,3.2322,3.4147,3.6017,3.6232,3.6481,3.7662,3.8196,3.8728,3.9491,3.9986,4.0233,4.0213,3.1321,2.5179,2.5157,2.4949,2.4892,2.5082,3.4404,4.0249,4.0597,4.0345,3.9966,3.9486,3.9013,3.7428,3.4588,3.3974,3.3575,3.3506,3.2635,3.1915,3.1267,3.0012,2.9263,2.8961,2.8882,2.8724,2.851,2.851,2.8736,2.9263,2.9704,3.0519,3.1636,3.2101,3.2704,3.3326,0.0,0.0,0.0,0.0,0.0,0.0,0.0,0.0,0.0,0.0,0.0,0.0,0.0,0.0,0.0,0.0,0.0,0.0,0.0,0.0,0.0,0.0,0.0,0.0,-2.5953,-2.6385,-2.724,-2.8542,-2.8883,-2.9421,-3.0158,-3.0292,-3.0377,-3.0429,-3.0548,-3.0598,-3.0598,-3.0598,-3.0963,-3.1495,-3.1047,-3.121,-3.1775,0.0,0.0,-3.1619,-2.7252,-1.6918,-0.4182,0.3196,0.9902,1.4717,1.2395,1.8168,2.531,2.302,2.4587,2.6673,2.4747,2.2103,2.0062,2.1166,2.1535,2.2422,2.545,2.7424,2.9432,3.2322,3.4055,3.5301,3.5983,3.6143,3.6387,3.716,3.7951,3.817,3.7323,3.7647,3.7425,3.5926,2.6893,2.0802,2.0802,2.1894,2.2727,2.2958,3.3426,3.9985,4.0374,3.9766,3.9499,3.9783,3.7853,3.5987,3.4215,3.3528,3.3227,3.3437,3.2362,3.1856,3.1723,3.0088,2.9106,2.8791,2.8803,2.8657,2.851,2.851,2.851,2.851,2.8578,2.9471,3.0745,3.097,3.1942,3.3171,0.0,0.0,0.0,0.0,0.0,0.0,0.0,0.0,0.0,0.0,-1.9499,-1.9574,0.0,0.0,0.0,0.0,0.0,0.0,0.0,0.0,0.0,0.0,0.0,0.0,-2.4787,-2.5932,-2.6565,-2.6659,-2.7702,-2.8281,-2.8446,-2.9173,-2.9517,-2.9572,-3.0288,-3.0598,-3.0598,-3.0598,-3.062,-3.066,-3.1054,-3.1052,-3.0877,0.0,0.0,0.0,-2.7252,-1.4502,0.0837,0.4419,1.0845,1.8379,2.4309,2.8556,3.1196,3.0647,2.8888,2.7498,2.9185,2.6141,2.3093,2.5582,2.6231,2.6427,2.724,2.7683,2.8879,3.2272,3.2672,3.3477,3.7129,3.7294,3.6949,3.7131,3.8396,3.5921,2.6026,2.5649,2.2946,1.3619,0.3774,-0.2246,-0.2246,0.5958,1.1277,1.1314,2.9007,3.9982,4.038,3.9701,3.878,3.7606,3.5682,3.441,3.3801,3.214,3.1928,3.3044,3.1563,3.1132,3.1502,2.9704,2.8882,2.8803,2.8657,2.851,2.851,2.851,2.851,2.859,2.9263,2.9626,3.0075,3.1415,3.2087,3.239,0.0,0.0,0.0,0.0,0.0,0.0,0.0,-1.8966,-1.9035,-1.9182,-1.9214,-1.9338,-1.9614,-1.9647,0.0,0.0,0.0,0.0,0.0,0.0,0.0,0.0,0.0,0.0,-2.4704,-2.5418,-2.5953,-2.6294,0.0,-2.7497,-2.7907,-2.8325,-2.8779,-2.9266,-2.9679,-3.0137,-3.0598,-3.0598,-3.0552,-3.0502,-3.0632,-3.054,0.0,0.0,0.0,0.0,0.0,-1.6875,-0.4377,-0.1582,0.7579,1.9188,2.7257,3.0805,3.1778,3.0879,2.9567,2.8505,2.8862,2.717,2.5519,2.6878,2.726,2.7651,2.9109,2.9466,3.0519,3.4117,3.4551,3.5091,3.7727,3.7913,3.7702,3.7762,3.8733,3.5444,2.3818,2.2908,1.9266,0.8055,-0.1978,-0.7958,-0.7952,-0.3233,0.2266,0.8017,2.2502,3.3757,3.9876,3.9767,3.8099,3.508,3.445,3.3404,3.1694,3.1066,3.1044,3.1723,3.0833,3.0532,3.0683,2.9394,2.8724,2.8657,2.851,2.851,2.851,2.851,2.851,2.851,2.8961,2.9328,2.9845,3.1044,3.1709,3.2218,0.0,0.0,0.0,0.0,0.0,0.0,0.0,-1.8769,-1.8806,-1.8949,-1.8949,-1.9084,-1.9427,-1.956,-1.966,0.0,0.0,0.0,0.0,0.0,0.0,0.0,0.0,0.0,0.0,0.0,0.0,-2.6079,-2.6209,0.0,0.0,0.0,0.0,0.0,-2.885,-2.9433,-3.0327,-3.0327,-3.0424,0.0,0.0,-3.0165,0.0,0.0,0.0,0.0,0.0,-1.6928,-0.7762,-0.481,0.4604,1.6222,2.2696,2.7769,3.0733,2.7792,2.8252,2.9574,2.8938,2.833,2.8057,2.8647,2.8768,2.8915,2.9635,2.9847,3.0359,3.1975,3.3505,3.4912,3.6125,3.5987,3.5736,3.5832,3.4869,3.079,2.1241,1.8305,1.3639,0.4204,-0.5844,-1.1966,-1.1896,-0.981,-0.3856,0.7218,1.9623,3.0462,3.9135,3.9654,3.7872,3.3809,3.3955,3.2881,3.0355,3.0304,3.0304,3.0456,3.0165,2.9922,2.9922,2.9094,2.8657,2.851,2.851,2.851,2.851,2.851,2.851,2.851,2.851,2.8882,2.9549,3.0657,3.1328,3.1842,0.0,0.0,0.0,0.0,0.0,0.0,0.0,-1.8622,-1.8659,-1.8806,-1.8825,-1.8878,-1.9035,-1.9282,-1.9483,0.0,0.0,0.0,0.0,0.0,0.0,0.0,0.0,0.0,0.0,0.0,0.0,-2.5042,-2.5168,0.0,0.0,0.0,0.0,0.0,0.0,-2.8543,-2.9418,-2.9418,0.0,0.0,0.0,0.0,0.0,0.0,0.0,0.0,0.0,-0.8217,0.0626,0.3517,0.5488,0.6901,0.7948,1.8883,2.9947,2.3016,2.5142,3.0334,3.3217,3.2379,3.1232,3.3611,3.4154,3.2696,2.7019,2.5706,2.433,1.9662,2.3457,2.8175,2.9964,2.881,2.7584,2.7584,2.1627,1.5428,1.1069,0.2567,-0.4529,-0.8143,-1.8152,-2.4815,-2.4803,-1.577,-0.533,0.5658,2.6231,3.8271,3.8273,3.9173,3.8437,3.5623,3.4534,3.3267,3.1993,3.0202,2.9496,3.0063,2.9328,2.925,2.9704,2.8882,2.851,2.851,2.851,2.851,2.851,2.851,2.851,2.851,2.851,2.859,2.8882,3.0904,3.0917,3.0355,0.0,0.0,0.0,0.0,0.0,0.0,-1.8524,-1.8584,-1.8622,-1.8659,-1.8752,-1.8807,-1.886,-1.9135,-1.9329,0.0,0.0,0.0,0.0,0.0,0.0,0.0,0.0,0.0,0.0,0.0,-2.4442,-2.4902,-2.4949,0.0,0.0,0.0,0.0,0.0,0.0,-2.7634,-2.8556,-2.9068,0.0,0.0,0.0,0.0,0.0,0.0,0.0,0.0,0.0,0.0,-1.218,-0.9497,-0.5386,-0.1887,-0.4792,0.5545,1.883,1.9473,2.2994,2.7759,3.2602,3.3566,3.256,2.9652,2.8969,2.7298,2.0781,1.9311,1.8841,1.7178,1.8977,2.1038,2.1574,2.1027,2.0227,1.9515,1.6194,1.078,0.2558,-0.2669,-0.89,-1.7652,-2.2536,-2.5557,-2.6452,-1.6543,-0.2656,1.527,3.1,3.9364,3.8332,3.8691,3.7928,3.5737,3.4046,3.262,3.1416,2.9732,2.9028,2.9238,2.9316,2.9172,2.8961,2.9184,2.8961,2.851,2.851,2.8431,2.8339,2.8339,2.8271,2.8122,2.8271,2.8271,2.8419,3.083,3.1201,3.0992,0.0,0.0,0.0,0.0,0.0,-1.8065,-1.831,-1.843,-1.8528,-1.8585,-1.8658,-1.8733,-1.8789,-1.9,-1.9182,-1.9329,0.0,0.0,0.0,0.0,0.0,0.0,0.0,0.0,0.0,0.0,-2.3987,-2.4832,-2.4785,-2.4835,0.0,0.0,-2.5406,-2.622,0.0,0.0,0.0,0.0,0.0,0.0,0.0,0.0,0.0,0.0,0.0,0.0,0.0,0.0,0.0,0.0,0.0,-0.8696,-1.1363,-0.3785,0.0,1.2987,1.9445,2.5652,2.9954,3.147,3.075,2.6168,2.3736,2.0689,1.3845,1.2353,1.2036,1.0676,1.2146,1.37,1.3675,1.5209,1.5305,1.1668,1.0089,0.6469,-0.1906,-0.6556,-1.1587,-1.8182,-2.1782,-2.3029,-2.1208,-0.8509,0.6236,2.2215,3.3603,3.947,3.8708,3.8477,3.7664,3.6159,3.3451,3.1855,3.1609,2.9315,2.8318,2.8724,2.9106,2.9028,2.851,2.9028,2.8949,2.8431,2.8351,2.8271,2.8111,2.8111,2.803,2.7893,2.803,2.8247,2.8767,3.0952,3.1616,3.182,0.0,0.0,0.0,0.0,0.0,0.0,-1.7941,-1.817,-1.8371,-1.8566,-1.8526,-1.8581,-1.8769,-1.8913,-1.9066,-1.9184,0.0,0.0,0.0,0.0,0.0,0.0,0.0,0.0,0.0,0.0,-2.3915,-2.4707,-2.4505,-2.453,-2.4793,-2.4659,-2.4859,-2.5308,0.0,0.0,0.0,0.0,0.0,0.0,0.0,0.0,0.0,0.0,0.0,0.0,0.0,0.0,0.0,0.0,0.0,0.0,0.0,-0.6919,0.0,0.0,1.3761,2.4848,2.5585,2.5459,2.5099,2.5088,2.0655,1.4319,0.6736,0.5128,0.3343,-0.3268,0.1004,0.6205,0.6941,1.226,1.3439,0.4035,0.1546,0.027,-0.1178,-1.0808,-1.4774,-0.7034,-1.563,-1.8504,-0.9095,1.0359,2.2661,2.3357,3.3603,3.9646,3.9313,3.8663,3.7995,3.7318,3.2764,3.129,3.3332,2.8845,2.717,2.851,2.851,2.851,2.851,2.8339,2.8179,2.8179,2.7962,2.7893,2.7893,2.7893,2.7893,2.7893,2.7893,2.8676,3.0037,3.1429,3.201,3.2567,0.0,0.0,0.0,0.0,0.0,0.0,0.0,-1.7535,-1.7732,-1.7478,-1.8097,-1.8296,-1.7569,-1.8401,-1.8842,-1.8422,0.0,0.0,0.0,0.0,0.0,0.0,0.0,0.0,0.0,0.0,-2.304,-2.3878,-2.4372,-2.4784,-2.5144,-2.5044,-2.2387,-1.7639,-1.76,-1.4868,0.0,0.0,0.0,0.0,0.0,0.0,-1.2269,0.0,0.0,0.0,0.0,0.0,0.0,0.0,0.0,0.0,0.0,0.0,0.0,-0.1793,0.599,1.4225,1.7813,1.9025,1.8195,1.3762,1.1244,0.7974,0.0778,-0.0849,-0.1527,-0.4013,-0.2656,-0.1245,-0.1822,-0.0712,-0.1004,-0.51,-0.714,-0.8736,-1.0237,-1.3911,-1.6182,-1.5675,-1.373,-0.8321,0.2215,1.5024,2.605,3.4074,3.7898,3.9769,3.9511,3.8656,3.7804,3.7032,3.4282,3.254,3.197,2.9699,2.8362,2.7969,2.8399,2.8672,2.8895,2.887,2.8712,2.8566,2.8111,2.78,2.7696,2.8111,2.7962,2.7545,2.9123,2.9616,2.9808,3.2368,3.317,3.3309,0.0,0.0,0.0,0.0,0.0,0.0,0.0,-1.6995,-1.7173,-1.6929,-1.7524,-1.7703,-1.702,-1.7783,-1.8233,-1.8055,0.0,0.0,0.0,0.0,0.0,0.0,0.0,0.0,0.0,-2.1254,-2.22,-2.3419,-2.3888,-2.4509,-2.5232,-2.2257,-1.8465,-1.4002,-1.1108,-0.7187,0.0,0.0,0.0,0.0,0.0,0.0,-0.7202,0.0,0.0,0.0,0.0,0.0,0.0,0.0,0.0,0.0,0.0,0.0,0.0,0.0,0.117,0.6018,1.0671,1.1994,1.1165,0.7454,0.4631,0.1555,-0.2792,-0.3905,-0.4119,-0.4476,-0.4656,-0.4832,-0.5361,-0.3817,-0.3969,-0.8595,-0.5577,-0.5472,-1.3672,-1.2443,-1.2804,-1.8426,-0.8379,0.0469,0.4091,1.6385,2.7183,3.4595,3.5161,3.6425,3.9375,3.8607,3.7735,3.6923,3.4527,3.2616,3.1322,2.9597,2.8285,2.7428,2.7685,2.8194,2.8823,2.8421,2.8373,2.8657,2.795,2.7545,0.0,2.8099,2.8111,2.7777,2.9628,3.0428,3.069,3.2961,3.3969,3.447,0.0,0.0,0.0,0.0,0.0,0.0,0.0,0.0,-1.6677,-1.6779,-1.6855,-1.6913,-1.6889,-1.7065,-1.7395,-1.7921,0.0,0.0,0.0,0.0,0.0,0.0,0.0,0.0,0.0,-2.0567,-2.1465,-2.3233,-2.2619,-2.3072,-2.4344,-1.6565,-1.2796,-1.2281,-0.522,-0.1786,0.0,0.0,0.0,0.0,0.0,0.0,0.0,0.0,0.0,0.0,0.0,0.0,0.0,0.0,0.0,0.0,0.0,0.0,0.0,0.0,0.0,0.0,0.0,0.4603,0.433,0.5279,0.0709,-0.4019,-0.4101,-0.4295,0.0,-0.4919,-0.5191,-0.5193,-0.4567,0.0316,0.1412,-0.7421,0.3154,0.6042,-1.2451,-0.8378,-0.6917,-1.6236,-0.1387,0.6552,-0.1362,1.4707,2.6081,2.7219,2.731,3.0869,3.9059,3.8675,3.7832,3.703,3.3923,3.199,3.1427,2.8947,2.7494,2.7001,2.6637,2.714,2.8194,2.7203,2.7305,2.8311,2.7557,2.7255,2.7255,2.8007,2.8327,2.8407,2.9872,3.1175,3.2409,3.3199,3.4403,3.5688,0.0,0.0,0.0,0.0,0.0,0.0,0.0,0.0,0.0,0.0,-1.6449,-1.6677,-1.5849,-1.663,-1.7084,0.0,0.0,0.0,0.0,0.0,0.0,0.0,0.0,0.0,0.0,-2.0126,-2.1151,-2.2611,-1.7388,-1.5548,-1.6726,-0.8973,-0.2304,0.3254,0.5124,0.9144,0.0,0.0,0.0,0.0,0.0,0.0,0.0,0.0,0.0,0.0,-0.2327,-0.1934,0.0,0.0,0.0,0.0,0.0,0.0,0.0,0.0,-0.3754,-0.3699,-0.2733,0.0,0.0305,0.0549,-0.0755,-0.2138,0.0,0.0,0.0,0.0,0.0,-0.5547,-0.5811,-0.5446,-0.587,-0.8471,-0.1295,0.0071,-1.294,-1.4268,-1.459,-1.6651,-0.6082,0.0467,-0.1858,0.9405,1.9768,2.6778,2.7297,3.1148,4.0004,3.9647,3.8775,3.7928,3.6489,3.4706,3.2531,3.0587,2.9008,2.7906,2.6275,2.6127,2.7267,2.6723,2.6464,2.6647,2.746,2.7482,2.7044,2.8844,2.9328,2.9147,3.1583,3.2451,3.2481,3.3642,3.4743,3.5524,0.0,0.0,0.0,0.0,0.0,0.0,0.0,0.0,0.0,0.0,0.0,0.0,0.0,0.0,0.0,0.0,0.0,0.0,0.0,0.0,0.0,0.0,0.0,-1.8978,-1.912,-1.9519,-2.0102,-2.0845,-1.7179,-1.4506,-1.2666,-0.5009,0.2102,0.8596,1.2211,1.5199,1.7221,0.0,0.0,0.0,0.075,0.0,0.0,0.0,0.0,0.0,0.0267,0.0278,0.0,-0.1307,-0.2105,-0.2663,0.0,0.0,0.0,0.0,-0.3988,-0.3908,-0.3988,-0.3696,-0.3323,-0.2975,-0.3213,-0.3625,-0.3486,0.0,0.0,0.0,0.0,-0.5902,-0.6602,-0.7921,-0.889,-0.9148,-0.3304,0.0572,-0.1708,-0.3301,-0.4178,-0.3911,0.125,0.4806,0.4636,1.0387,1.6122,2.1138,2.5209,2.962,3.4528,3.7773,3.9102,3.8233,3.7296,3.5555,3.2954,3.1095,2.9379,2.7788,2.5612,2.5226,2.6315,2.5489,2.5593,2.6271,2.6718,2.6937,2.7061,2.8822,2.9352,2.9352,3.1734,3.2492,3.2379,3.3808,3.478,3.5464,0.0,0.0,0.0,0.0,0.0,0.0,0.0,0.0,0.0,0.0,0.0,0.0,0.0,0.0,0.0,0.0,0.0,0.0,0.0,0.0,0.0,0.0,0.0,-1.8463,-1.861,-1.8646,-1.8639,-1.8659,-1.7515,-1.4774,-1.0423,-0.1974,0.4632,0.9709,1.6172,1.7261,1.4032,1.1328,0.9354,0.7788,0.4743,0.0,0.0,0.0,0.0,0.0,0.0,0.0,0.0,-0.1814,-0.2478,-0.2738,-0.4073,0.0,0.0,0.0,0.0,0.0,-0.3129,-0.4604,-0.5922,-0.4997,-0.5371,-0.5664,-0.5073,0.0,0.0,0.0,0.0,-0.6432,-0.7037,-0.8532,-0.9671,-0.9671,-0.5105,0.1254,0.9635,0.8699,0.7131,0.7062,0.9034,1.0463,1.0492,1.2832,1.5014,1.655,2.3538,2.8306,2.9628,3.6055,3.9296,3.8431,3.7411,3.581,3.3483,3.1509,2.9585,2.7679,2.5341,2.4653,2.5253,2.4348,2.465,2.5948,2.5966,2.6304,2.6964,2.8338,2.9011,2.942,3.1181,3.2,3.2398,3.3719,3.4765,3.5743,0.0,0.0,0.0,0.0,0.0,0.0,0.0,0.0,0.0,0.0,0.0,0.0,0.0,0.0,0.0,0.0,0.0,0.0,0.0,0.0,0.0,-1.5674,-1.7373,-1.7879,-1.6909,-1.6987,-1.7047,-1.7044,-1.0743,-0.7907,-0.8121,0.4246,1.1473,1.4123,1.5178,1.3804,1.0551,0.8627,0.7835,0.7562,0.4525,0.0,0.0,0.0,0.0,0.0,0.0,0.0,0.0,-0.1818,-0.2409,-0.2665,-0.337,0.0,0.0,0.0,0.0,0.0,-0.4849,-0.541,-0.5641,-0.4229,-0.4178,-0.4446,-0.4446,-0.4739,-0.5186,0.0,-0.6251,-0.7051,-0.7401,-0.8807,-0.9946,-0.9946,-1.099,-0.8681,0.0069,-0.5851,-1.1303,-1.1854,-0.3407,0.2082,0.1147,0.9287,1.7713,2.5141,2.694,3.0949,3.8384,3.9896,4.013,3.9339,3.832,3.7214,3.6035,3.3404,3.1084,2.913,2.6947,2.5202,2.3926,2.433,2.3999,2.323,2.607,2.6698,2.5896,2.8104,2.9093,2.9405,3.029,3.165,3.3172,3.3383,3.4961,3.716,0.0,0.0,0.0,0.0,0.0,0.0,0.0,0.0,0.0,0.0,0.0,0.0,0.0,0.0,0.0,0.0,0.0,0.0,0.0,0.0,0.0,-1.4345,-1.5349,-1.5749,-1.5422,-1.5749,-1.5623,-1.5101,-1.174,-0.8136,-0.4214,0.6155,1.1616,1.2715,1.2734,1.0896,0.7749,0.7125,0.6391,0.5594,0.0,0.0,0.0,0.0,0.0,0.0,0.0,0.0,0.0,0.0,-0.158,-0.2037,-0.2976,0.0,0.0,0.0,0.0,0.0,-0.4771,-0.5243,-0.5617,-0.5216,-0.5317,-0.5494,-0.5409,-0.5805,-0.6251,-0.6511,-0.7048,-0.776,-0.8372,-0.9248,-1.012,-1.0641,-0.7935,-0.4275,-0.0214,0.0489,0.0483,0.0138,0.0624,0.4528,1.3441,1.4556,1.8315,2.7049,3.2098,3.447,3.3763,3.8153,4.0302,3.9468,3.8436,3.7468,3.6556,3.4625,3.2688,3.083,2.7506,2.5529,2.4614,2.3576,2.318,2.3423,2.4821,2.5791,2.6466,2.8231,2.928,2.9915,3.1185,3.2219,3.3243,3.4409,3.5848,3.7439,0.0,0.0,0.0,0.0,0.0,0.0,0.0,0.0,0.0,0.0,0.0,0.0,0.0,0.0,0.0,0.0,0.0,0.0,0.0,0.0,-1.3906,-1.3201,-1.3336,-1.3606,-1.3974,-1.4467,-1.4176,-1.3066,-1.2795,-0.8494,-0.0354,0.569,0.8911,0.9609,0.9718,0.7918,0.4852,0.5457,0.5061,0.3975,0.0,0.0,0.0,0.0,0.0,0.0,0.0,0.0,0.0,0.0,0.0,0.0,0.0,0.0,0.0,-0.2974,-0.3365,-0.3832,-0.3912,-0.446,-0.5064,-0.5462,-0.6111,-0.6525,-0.6546,-0.6786,-0.7051,-0.7316,-0.7672,-0.8116,-0.8907,-0.9602,-1.0376,-1.116,-0.6048,-0.1876,-0.1873,0.3641,0.7673,0.7526,0.3888,0.7374,2.2622,2.0232,2.1386,3.0116,3.5358,3.5134,2.8217,3.4341,3.7683,3.6864,3.7657,3.7676,3.6787,3.5608,3.3974,3.1943,2.8075,2.5963,2.5367,2.3007,2.2723,2.4135,2.4241,2.5451,2.7497,2.8741,2.967,3.0409,3.1801,3.2691,3.3425,3.5575,3.6699,3.7313,0.0,0.0,0.0,0.0,0.0,0.0,0.0,0.0,0.0,0.0,0.0,0.0,0.0,0.0,0.0,0.0,0.0,0.0,0.0,0.0,-1.2926,-1.1879,-1.1916,-1.2118,-1.2472,-1.2965,-1.2598,-1.1198,-0.9733,-0.5062,0.2492,0.3017,0.4344,0.6356,0.6356,0.4463,0.1364,0.2805,0.3738,0.4154,0.3909,0.0,0.0,0.0,0.0,0.0,0.0,0.0,0.0,0.0,0.0,0.0,0.0,0.0,-0.2273,-0.2504,-0.2738,-0.2817,-0.266,-0.2817,-0.3007,-0.3228,-0.4687,-0.6189,-0.6896,-0.6697,-0.652,-0.6792,-0.7415,-0.794,-0.8201,-0.9506,-1.0727,-1.1262,-1.1401,-1.1387,-1.1387,-1.0852,-1.0767,-1.1349,-0.3647,0.507,1.3826,2.2003,3.0405,3.9191,3.3929,2.9722,2.8427,2.9532,2.9898,2.9207,3.556,3.8534,3.7535,3.645,3.4614,3.1997,2.9082,2.6844,2.5147,2.3205,2.3029,2.4282,2.5709,2.7142,2.857,2.9732,3.0348,3.0616,3.1129,3.2435,3.4327,3.631,3.7067,3.7134,0.0,0.0,0.0,0.0,0.0,0.0,0.0,0.0,0.0,0.0,0.0,0.0,0.0,0.0,0.0,0.0,0.0,0.0,0.0,-1.1678,-1.1497,-1.058,-1.0504,-1.0118,-0.9377,-0.999,-0.9994,-0.9316,-0.6475,-0.3459,-0.0229,0.1163,0.2407,0.3399,0.3399,0.2834,0.1853,0.2506,0.307,0.3477,0.2998,0.2854,0.0,0.0,0.0,0.0,0.0,0.0,0.0,0.0,0.0534,0.0861,-0.0157,-0.0706,-0.1097,-0.1409,-0.1958,-0.2429,-0.2507,-0.2818,-0.3163,-0.3063,-0.4105,-0.5262,-0.5574,-0.5983,-0.6432,-0.652,-0.7231,-0.6395,-0.1631,-0.5952,-0.8569,-0.3605,-0.7833,-1.1688,-1.1688,-1.1688,-1.1774,-1.2032,-0.8682,-0.306,0.5443,1.433,2.1304,2.5366,2.7621,2.6673,2.1707,2.605,2.8575,2.8283,3.1071,3.4171,3.7507,3.1964,3.0508,3.3156,3.0815,2.9195,2.8261,2.6228,2.5828,2.6786,2.7077,2.8032,2.9392,3.0411,3.1183,3.185,3.3003,3.3915,3.4707,3.6444,3.7106,3.7221,0.0,0.0,0.0,0.0,0.0,0.0,0.0,0.0,0.0,0.0,0.0,0.0,0.0,0.0,0.0,0.0,0.0,0.0,-1.0466,-1.0203,-0.9877,-0.9451,-0.873,-0.7983,-0.7089,-0.6963,-0.7089,-0.7532,-0.4417,-0.2405,-0.1267,0.0446,0.1402,0.174,0.1929,0.2076,0.2242,0.2337,0.2468,0.2582,0.2062,0.1884,0.0,0.0,0.0,0.0,0.0,0.0,0.0,0.0,0.1229,0.1643,0.0471,-0.0157,-0.047,-0.0784,-0.1255,-0.1804,-0.2196,-0.235,-0.2531,-0.2898,-0.3604,-0.4246,-0.4782,-0.5539,-0.634,-0.6786,-0.7672,-0.6714,-0.13,-0.5746,-0.8367,-0.2646,-0.7134,-1.1262,-1.1262,-1.1262,-1.1262,-1.1262,-1.1429,-0.8093,0.062,0.6995,1.1987,1.5228,1.8885,1.85,1.2814,1.783,2.091,2.1039,2.585,2.9662,3.221,2.9907,2.974,3.1715,3.1467,3.0891,2.9968,2.7857,2.7458,2.8579,2.8348,2.9156,3.0616,3.1414,3.2431,3.3512,3.4792,3.4435,3.3547,3.626,3.6196,3.5111,0.0,0.0,0.0,0.0,0.0,0.0,0.0,0.0,0.0,0.0,0.0,0.0,0.0,0.0,0.0,0.0,0.0,0.0,-0.9753,-0.8576,-0.8085,-0.8584,-0.6613,-0.5637,-0.5906,-0.4138,-0.4045,-0.5765,-0.3753,-0.1709,0.0393,0.0898,0.1289,0.1625,0.2145,0.2176,0.1832,0.2012,0.1868,0.1486,0.1196,0.1076,0.1076,0.0,0.0,0.0,0.0,0.0,0.0,0.0,0.1767,0.1489,0.0549,-0.0079,-0.0628,-0.0864,-0.0786,-0.0785,-0.1647,-0.1177,-0.0794,-0.2567,-0.2934,-0.3394,-0.5044,-0.5539,-0.6074,-0.7588,-0.8644,-0.9257,-0.9152,-0.9937,-1.0544,-1.0524,-1.0982,-1.1262,-1.1262,-1.1354,-1.1354,-1.1354,-1.1682,-0.8653,0.0,0.1355,0.4862,1.2504,0.7896,0.4025,0.2394,0.3893,0.4981,0.5494,2.0047,2.5589,2.0822,3.124,3.3273,2.6972,3.0672,3.1475,2.9654,2.7392,2.7418,2.9271,2.9454,3.0646,3.2453,3.2873,3.4007,3.5572,3.5901,3.3533,3.0615,3.5736,3.4203,3.0367,0.0,0.0,0.0,0.0,0.0,0.0,0.0,0.0,0.0,0.0,0.0,0.0,0.0,0.0,0.0,0.0,0.0,0.0,-0.8715,-0.7713,-0.7162,-0.719,-0.6557,-0.5842,-0.5091,-0.3694,-0.2759,-0.2346,-0.1545,-0.0445,0.0783,0.1512,0.1815,0.1739,0.1932,0.1808,0.157,0.1663,0.1759,0.1858,0.1339,0.1411,0.1812,0.0,0.0,0.0,0.0,0.0,0.0,0.0,0.0,0.0,0.0863,0.0314,-0.0157,-0.0941,-0.1255,-0.1646,-0.3205,-0.274,-0.2219,-0.3555,-0.402,-0.4415,-0.5222,-0.5539,-0.5985,-0.7139,-0.7669,-0.6446,-0.1066,-0.533,-0.7858,-0.2335,-0.6708,-1.0906,-1.1262,-1.1774,-1.2026,-1.1849,-1.2357,-1.1662,-0.8926,-0.2971,-0.0486,-0.3519,-0.0071,-0.0144,-0.5306,0.0069,0.3658,0.4411,0.9993,1.459,1.7939,1.6425,1.7743,2.1927,2.1578,2.4877,3.1317,3.0602,3.0616,3.1202,3.1317,3.1705,3.2382,3.3827,3.323,3.1769,3.561,3.4152,3.0539,3.6203,3.4887,3.1041,0.0,0.0,0.0,0.0,0.0,0.0,0.0,0.0,0.0,0.0,0.0,0.0,0.0,0.0,0.0,0.0,0.0,0.0,0.0,-0.6752,-0.6124,-0.6298,-0.542,-0.4558,-0.3818,-0.3361,-0.2406,-0.1066,-0.0951,-0.0447,0.0392,0.1078,0.1385,0.1353,0.1568,0.1494,0.1289,0.1304,0.1323,0.1209,0.0807,0.0942,0.1412,0.0,0.0,0.0,0.0,0.0,0.0,0.0,0.0,0.0,0.0706,0.0078,-0.0314,-0.1098,-0.1568,-0.2194,-0.3754,-0.3388,-0.2965,-0.4394,-0.4806,-0.5062,-0.5764,-0.6251,-0.6697,-0.7319,-0.7672,-0.657,-0.195,-0.557,-0.7746,-0.3018,-0.6798,-1.0722,-1.1837,-1.21,-1.2357,-1.2851,-1.3124,-1.3222,-1.296,-0.8064,-0.6894,-1.1804,-0.7021,-0.5758,-1.0029,-0.5118,-0.165,-0.0431,0.3629,0.7362,1.0506,1.0758,1.2708,1.6345,1.6703,2.0014,2.5883,2.6662,2.7444,2.8167,2.8332,2.9323,3.0953,3.2388,3.3001,3.3182,3.4491,3.2116,2.8368,3.1953,2.983,2.5963,0.0,0.0,0.0,0.0,0.0,0.0,0.0,0.0,0.0,0.0,0.0,0.0,0.0,0.0,0.0,0.0,0.0,0.0,0.0,0.0,-0.5096,-0.5631,-0.3644,-0.2578,-0.2666,-0.314,-0.2742,-0.1346,-0.1511,-0.1175,-0.0281,0.0116,0.0471,0.0769,0.1256,0.1225,0.0842,0.0998,0.0673,0.0067,0.0068,0.0203,0.0475,0.1114,0.0,0.0,0.0,0.0,0.0,0.0,0.0,0.0,0.0235,-0.0393,-0.0864,-0.1257,-0.1804,-0.2508,-0.3604,-0.3427,-0.3262,-0.5085,-0.5294,-0.5415,-0.6498,-0.7323,-0.7856,-0.7852,-0.8212,-0.8568,-0.8568,-0.8915,-0.9262,-0.9262,-0.9694,-1.0626,-1.2644,-1.2334,-1.251,-1.4105,-1.4132,-1.3899,-1.3483,-1.313,-1.3222,-1.3997,-1.2443,-1.1757,-1.2363,-1.088,-0.9126,-0.7285,-0.0289,0.2518,0.0621,1.0348,1.3574,1.0284,1.3853,1.5538,1.5599,1.8288,2.0526,2.2252,2.2447,2.4447,2.7683,2.8812,3.2093,3.6026,3.2121,2.8152,2.4681,2.5564,2.2205,1.8064,0.0,0.0,0.0,0.0,0.0,0.0,0.0,0.0,0.0,0.0,0.0,0.0,0.0,0.0,0.0,0.0,0.0,0.0,0.0,0.0,-0.4191,-0.3625,-0.321,-0.3486,-0.4671,-0.3941,-0.3016,-0.1847,-0.1675,-0.0893,0.0449,0.0869,0.1012,0.0855,0.114,0.0979,0.0467,0.0605,0.0539,0.0405,0.0483,0.0834,0.1395,0.136,0.1902,0.0,0.0,0.0,0.0,0.0,0.0,0.0,0.0079,-0.0079,-0.0393,-0.1491,-0.2116,-0.2817,-0.453,-0.4535,-0.4482,-0.5988,-0.6379,-0.6398,-0.6514,-0.7058,-0.7591,-0.758,-0.7937,-0.838,-0.8564,-0.8656,-0.8915,-0.9262,-0.9349,-1.0197,-1.2389,-1.299,-1.3594,-1.4531,-1.5621,-1.5643,-1.4082,-1.4482,-1.4559,-1.3822,-1.3392,-1.2875,-1.21,-1.2474,-1.1343,-0.8269,-0.6989,-0.5293,-0.3118,-0.024,0.2014,0.3724,0.3899,0.5396,0.824,1.6078,2.0448,2.1824,2.188,2.058,1.8774,2.287,2.3532,2.2289,2.563,2.428,2.1345,2.8519,2.5725,1.9494,0.0,0.0,0.0,0.0,0.0,0.0,0.0,0.0,0.0,0.0,0.0,0.0,0.0,0.0,0.0,0.0,0.0,0.0,0.0,0.0,-0.3628,-0.3252,-0.3224,-0.3504,-0.4061,-0.3292,-0.246,-0.1456,-0.1306,-0.0687,0.0345,0.0593,0.0673,0.0631,0.0715,0.0598,0.0404,0.0472,0.0543,0.055,0.0557,0.0635,0.0716,0.0955,0.1045,0.1058,0.1301,0.0,0.0,0.0,0.0,0.0,0.0,0.0,-0.055,-0.102,-0.1646,-0.2582,-0.4215,-0.4569,-0.4814,-0.6339,-0.6502,-0.6346,-0.6697,-0.6969,-0.7238,-0.7584,-0.7848,-0.8204,-0.8568,-0.8476,-0.856,-0.8915,-0.9676,-1.094,-1.3115,-1.4142,-1.5087,-1.6183,-1.6609,-1.6378,-1.5151,-1.5477,-1.5636,-1.5289,-1.5289,-1.5025,-1.458,-1.4615,-1.3336,-1.0225,-1.0857,-0.8854,-0.4018,-0.4438,-0.2834,0.0891,0.0537,0.1783,0.464,1.0017,1.3581,1.5527,1.5083,1.5476,1.6731,1.9567,2.0443,2.0066,2.1321,2.0062,1.79,2.1003,1.9171,1.5765,0.0,0.0,0.0,0.0,0.0,0.0,0.0,0.0,0.0,0.0,0.0,0.0,0.0,0.0,0.0,0.0,0.0,0.0,0.0,0.0,0.0,-0.3439,-0.318,-0.2956,-0.279,-0.2293,-0.1624,-0.0898,-0.0868,-0.053,0.0059,0.0061,0.0126,0.0323,0.0333,0.0472,0.054,0.061,0.055,0.0491,0.0495,0.0072,-0.0515,0.0,-0.0228,-0.076,-0.0078,0.0,-0.0078,0.0,0.0,0.0,0.0,0.0,-0.0628,-0.0471,-0.1098,-0.2117,-0.3454,-0.4227,-0.5101,-0.6634,-0.6609,-0.634,-0.7139,-0.7316,-0.7408,-0.8025,-0.794,-0.7944,-0.8388,-0.8296,-0.8288,-0.8819,-1.0173,-1.1929,-1.4261,-1.5292,-1.6324,-1.7755,-1.735,-1.6788,-1.6131,-1.6296,-1.6609,-1.6911,-1.7001,-1.7147,-1.722,-1.6668,-1.4972,-1.198,-1.304,-1.0709,-0.4625,-0.6243,-0.51,-0.1071,-0.0269,0.1072,0.2755,0.3351,0.5372,0.8329,0.7661,1.051,1.5611,1.5974,1.763,1.9533,1.6707,1.5251,1.4547,1.2312,1.1589,1.1701,0.0,0.0,0.0,0.0,0.0,0.0,0.0,0.0,0.0,0.0,0.0,0.0,0.0,0.0,0.0,0.0,0.0,0.0,-0.2647,0.0,0.0,-0.3111,-0.2028,-0.1899,-0.2998,-0.1843,-0.1122,-0.0898,-0.0752,-0.0358,0.0246,0.0253,0.0257,0.0323,0.0599,0.0742,0.0743,0.0967,0.0629,0.0,0.0074,-0.045,-0.1206,-0.1236,-0.1403,-0.1404,-0.0705,-0.0471,-0.0471,0.0079,0.0471,0.0,0.0,0.0,0.0236,-0.055,-0.1177,-0.1889,-0.289,-0.4251,-0.5889,-0.761,-0.7925,-0.7933,-0.8281,-0.8627,-0.8886,-0.8973,-0.8013,-0.7408,-0.7856,-0.7944,-0.8456,-1.0082,-1.0504,-1.1849,-1.5292,-1.5883,-1.6316,-1.735,-1.8023,-1.7789,-1.6221,-1.7261,-1.7649,-1.6822,-1.7066,-1.722,-1.7041,-1.7624,-1.609,-1.2064,-1.413,-1.3104,-0.8467,-0.9814,-0.8837,-0.5463,-0.2494,-0.0358,0.0985,-0.0089,0.1952,0.6377,0.6913,0.7444,0.7893,0.7978,0.8201,0.853,0.8046,0.9289,1.1595,1.4214,1.4174,1.3252,0.0,0.0,0.0,0.0,0.0,0.0,0.0,0.0,0.0,0.0,0.0,0.0,0.0,0.0,0.0,-0.3958,-0.3652,-0.2798,-0.1209,-0.0797,-0.0928,-0.1577,-0.0886,-0.0894,-0.1729,-0.1008,-0.0453,-0.0231,-0.0119,-0.0123,-0.0126,-0.0065,0.0198,0.0596,0.0335,0.0475,0.0897,0.0139,-0.0142,-0.0073,-0.0525,-0.1446,-0.2466,-0.2186,-0.2663,-0.3363,-0.2273,-0.1648,-0.1177,-0.0471,0.0079,0.0314,-0.0314,0.0,0.0,0.0,-0.1266,-0.1128,-0.3,-0.4598,-0.607,-0.7793,-0.7929,-0.7845,-0.8715,-0.8803,-0.889,-0.9836,-0.9314,-0.8886,-0.9506,-1.0009,-1.0682,-1.161,-1.2777,-1.4115,-1.5389,-1.6487,-1.7098,-1.7196,-1.7529,-1.7619,-1.7188,-1.7747,-1.831,-1.87,-1.87,-1.8859,-1.9,-1.9265,-1.792,-1.467,-1.6579,-1.5211,-1.0177,-1.177,-1.0113,-0.5298,-0.2408,-0.0986,-0.0896,-0.0537,0.1427,0.4623,0.453,0.5242,0.6413,0.6413,0.5883,0.5169,0.7183,0.8309,0.9235,1.2795,1.3712,1.3413,0.0,0.0,0.0,0.0,0.0,0.0,0.0,0.0,0.0,0.0,0.0,0.0,0.0,0.0,0.0,0.0,-0.2624,-0.1804,-0.0214,0.0055,0.0,-0.0223,-0.0112,-0.028,-0.0729,-0.0678,-0.0517,-0.0235,-0.0184,-0.0378,-0.0709,-0.0597,-0.0202,0.0269,-0.0269,-0.0137,0.042,-0.0705,-0.1017,-0.0757,-0.1445,-0.254,-0.3675,-0.3366,-0.399,-0.4924,-0.3446,-0.2508,-0.1803,-0.0863,-0.0236,0.0,-0.0627,-0.0628,0.0,0.0,0.0,-0.1414,-0.3428,-0.4937,-0.6282,-0.7712,-0.7925,-0.8105,-0.9323,-0.9152,-0.9152,-1.0361,-1.0616,-1.0788,-1.1316,-1.1809,-1.2213,-1.2893,-1.4393,-1.5569,-1.5659,-1.6854,-1.7538,-1.7277,-1.7277,-1.7432,-1.7917,-1.8318,-1.8966,-1.9775,-2.002,-2.0177,-2.0489,-2.0177,-1.885,-1.6359,-1.8132,-1.6676,-1.1634,-1.2367,-1.0288,-0.539,-0.2675,-0.1791,-0.2506,-0.0806,0.0894,0.2409,0.2408,0.3653,0.5711,0.5711,0.5174,0.4634,0.7271,0.8309,0.8636,1.1096,1.2601,1.3307,0.0,0.0,0.0,0.0,0.0,0.0,0.0,0.0,0.0,0.0,0.0,0.0,-0.7224,-0.6008,-0.5078,-0.4685,-0.3103,-0.1558,-0.0278,0.0558,0.0782,0.0168,-0.0056,0.0,-0.0898,-0.156,-0.1819,-0.1587,-0.1562,-0.1415,-0.1225,-0.1128,-0.1008,-0.1008,-0.1008,-0.1092,-0.1053,-0.1149,-0.1696,-0.2501,-0.2866,-0.3675,-0.4698,-0.501,-0.5315,-0.5386,-0.3906,-0.2891,-0.1956,-0.0706,-0.0078,0.0157,-0.0392,-0.0628,-0.0787,0.0,0.0,0.0,-0.4144,-0.5521,-0.6939,-0.7625,-0.8869,-0.9946,-1.0463,-1.0463,-1.0463,-1.0549,-1.1655,-1.2589,-1.2589,-1.1884,-1.1958,-1.3665,-1.4008,-1.4685,-1.6386,-1.673,-1.7049,-1.7836,-1.7917,-1.7997,-1.7997,-1.9292,-1.9775,-1.8798,-1.9844,-2.0489,-2.0342,-1.9706,-1.8115,-1.5442,-1.7398,-1.6838,-1.3581,-1.147,-0.9388,-0.749,-0.4716,-0.3489,-0.3489,-0.1789,-0.0984,-0.0715,0.1344,0.278,0.3764,0.3764,0.4467,0.5604,0.5769,0.7865,1.0661,1.0464,1.161,1.313,0.0,0.0,0.0,0.0,0.0,0.0,0.0,0.0,0.0,0.0,0.0,0.0,0.0,-0.5935,-0.5062,-0.3794,-0.2392,-0.1268,-0.0557,-0.0223,-0.0167,-0.0502,-0.0613,-0.0902,-0.1387,-0.1694,-0.1679,-0.1435,-0.1783,-0.2076,-0.2311,-0.2268,-0.2573,-0.3034,-0.2206,-0.161,-0.1294,-0.2285,-0.2871,-0.3245,-0.4278,-0.5074,-0.5702,-0.5931,-0.6009,-0.5854,-0.4924,-0.3908,-0.2891,-0.2271,-0.1645,-0.1254,-0.1802,-0.19,-0.1778,-0.2181,-0.2999,-0.3909,-0.4222,-0.4968,-0.5971,-0.7295,-0.8009,-0.8803,-1.0448,-1.0631,-1.0895,-1.2534,-1.313,-1.3464,-1.388,-1.4203,-1.4615,-1.522,-1.6026,-1.6675,-1.6878,-1.7367,-1.7691,-1.7594,-1.7594,-1.7836,-1.8407,-1.8975,-1.9222,-1.9222,-1.9539,-1.9706,-1.9478,-1.9082,-1.8256,-1.6911,-1.7594,-1.6593,-1.3736,-1.0867,-0.8616,-0.6802,-0.4366,-0.3044,-0.2865,-0.1792,-0.0985,-0.0358,0.0806,0.1614,0.2242,0.3494,0.4028,0.4194,0.6994,0.8309,0.8669,1.0742,1.1359,1.1117,0.0,0.0,0.0,0.0,0.0,0.0,0.0,0.0,0.0,0.0,0.0,0.0,0.0,0.0,-0.546,-0.3442,-0.2232,-0.134,-0.0723,-0.0675,-0.0736,-0.0849,-0.1031,-0.1397,-0.1968,-0.2148,-0.2143,-0.1996,-0.2508,-0.2935,-0.3284,-0.3416,-0.3811,-0.4338,-0.3457,-0.2802,-0.2431,-0.3597,-0.413,-0.4217,-0.5529,-0.6153,-0.6398,-0.6623,-0.67,-0.6553,-0.5628,-0.4688,-0.3904,-0.3441,-0.2974,-0.2588,-0.2843,-0.2995,-0.301,-0.2842,-0.3488,-0.4216,-0.4096,-0.4645,-0.5445,-0.6334,-0.7044,-0.8009,-1.0091,-1.0279,-1.0631,-1.2705,-1.3222,-1.3385,-1.3886,-1.4817,-1.5575,-1.5582,-1.6624,-1.7188,-1.6788,-1.744,-1.7925,-1.7844,-1.7844,-1.8006,-1.8496,-1.8825,-1.8993,-1.8993,-1.9073,-1.9073,-1.8922,-1.8523,-1.804,-1.7375,-1.687,-1.5508,-1.3121,-1.0802,-0.8645,-0.6653,-0.4819,-0.3669,-0.3129,-0.215,-0.1164,-0.0179,0.0717,0.1345,0.1703,0.3044,0.3666,0.4192,0.7257,0.8313,0.8325,1.0671,1.0849,0.9899,0.0,0.0,0.0,0.0,0.0,0.0,0.0,0.0,0.0,-0.9267,0.0,0.0,0.0,0.0,0.0,-0.3898,-0.2798,-0.1849,-0.0893,-0.0748,-0.0761,-0.0879,-0.1388,-0.1966,-0.2523,-0.3145,-0.3381,-0.3352,-0.3931,-0.4183,-0.4028,-0.4431,-0.4701,-0.4833,-0.4748,-0.4724,-0.4686,-0.5061,-0.5354,-0.5699,-0.6461,-0.6777,-0.6714,-0.7092,-0.7399,-0.7326,-0.5938,-0.5312,-0.4988,-0.4217,-0.391,-0.3773,-0.3462,-0.3851,-0.4426,-0.4,-0.4408,-0.483,0.0,0.0,0.0,-0.4825,-0.6068,-0.7837,-0.9231,-0.9579,-0.9927,-1.1063,-1.1929,-1.2448,-1.2705,-1.3633,-1.4398,-1.465,-1.5477,-1.6139,-1.6139,-1.687,-1.7764,-1.8576,-1.8736,-1.8576,-1.8336,-1.9073,-1.9073,-1.7781,-1.8505,-1.8843,-1.862,-1.7951,-1.7294,-1.6648,-1.5144,-1.351,-1.1923,-1.1193,-0.9566,-0.7051,-0.6346,-0.5539,-0.4459,-0.2861,-0.1522,-0.0537,0.1253,0.2059,0.2059,0.2149,0.3566,0.5678,0.6295,0.7876,0.9812,0.9812,0.9899,0.9639,0.0,0.0,0.0,0.0,0.0,0.0,-1.164,-1.1193,-1.0706,0.0,0.0,0.0,-0.8325,-0.7312,-0.6478,-0.6006,-0.4657,-0.3768,-0.3577,-0.349,-0.3211,-0.2732,-0.3182,-0.3539,-0.3682,-0.3685,-0.3867,-0.4243,-0.4638,-0.4854,-0.4824,-0.4993,-0.5183,-0.5253,-0.5386,-0.5523,-0.5496,-0.5186,-0.536,-0.5857,-0.6777,-0.7238,-0.7553,-0.8385,-0.8694,-0.8542,-0.8156,-0.7766,-0.7375,-0.7061,-0.6136,-0.4999,-0.4208,-0.4128,-0.427,-0.4244,-0.4459,-0.4748,-0.4478,0.0,0.0,0.0,0.0,0.0,-0.8181,-0.896,-0.9826,-1.1752,-1.2534,-1.2966,-1.3137,-1.3476,-1.373,-1.373,-1.547,-1.696,-1.7375,-1.8103,-1.8594,-1.8683,-1.8692,-1.8692,-1.8603,-1.8523,-1.8273,-1.7781,-1.761,-1.7456,-1.7221,-1.6041,-1.5538,-1.5982,-1.386,-1.2151,-1.1193,-1.0346,-0.8965,-0.6868,-0.5622,-0.4463,-0.3304,-0.1788,-0.0537,0.0358,0.0896,0.1076,0.1254,0.331,0.42,0.4459,0.719,0.7903,0.7474,0.869,0.8869,0.8352,0.0,0.0,0.0,0.0,0.0,0.0,-1.2197,-1.1802,-1.1292,0.0,0.0,0.0,-0.8884,-0.7757,-0.7007,-0.6887,-0.5804,-0.5019,-0.484,-0.4716,-0.4504,-0.4069,-0.4247,-0.4377,-0.4319,-0.4076,-0.4108,-0.4489,-0.4898,-0.5127,-0.518,-0.5401,-0.5621,-0.5755,-0.5838,-0.596,-0.6022,-0.5709,-0.586,-0.6402,-0.7395,-0.7855,-0.8008,-0.8912,-0.9216,-0.9074,-0.8761,-0.8512,-0.8435,-0.8503,-0.7656,-0.6338,-0.5331,-0.4978,-0.4937,-0.4463,-0.4656,-0.4837,-0.4393,-0.4478,-0.4743,-0.4835,0.0,0.0,-0.739,-0.8261,-0.9218,-1.0783,-1.1569,-1.2089,-1.2345,-1.2784,-1.3215,-1.3626,-1.4789,-1.6041,-1.7041,-1.7853,-1.8434,-1.87,-1.8531,-1.8371,-1.8282,-1.787,-1.7538,-1.7294,-1.7049,-1.6722,-1.6319,-1.4956,-1.4364,-1.472,-1.2838,-1.1472,-1.0697,-1.0014,-0.8978,-0.7492,-0.5703,-0.4188,-0.3123,-0.0983,0.0715,0.1878,0.1879,0.2236,0.2945,0.4732,0.4736,0.3844,0.6316,0.6946,0.6517,0.7478,0.7826,0.7834,0.0,0.0,0.0,-1.4647,-1.3968,-1.324,-1.2694,-1.2531,-1.2043,0.0,-1.0954,-1.0688,-0.9764,-0.867,-0.7795,-0.724,-0.6578,-0.5977,-0.538,-0.5199,-0.5085,-0.5081,-0.4888,-0.4824,-0.4888,-0.4659,-0.4531,-0.4573,-0.4997,-0.5272,-0.5398,-0.5759,-0.6126,-0.6392,-0.6268,-0.628,-0.6567,-0.6493,-0.6714,-0.7318,-0.8313,-0.8613,-0.8533,-0.9346,-0.9728,-0.9664,-0.8969,-0.8807,-0.8936,-0.9137,-0.8574,-0.7588,-0.6592,-0.6165,-0.5813,-0.4743,-0.4835,-0.5015,-0.3944,-0.3942,-0.421,-0.4391,-0.4921,0.0,-0.6593,-0.7386,-0.8086,-0.8952,-0.9826,-1.0611,-1.0875,-1.1746,-1.2693,-1.351,-1.3607,-1.4203,-1.5786,-1.6698,-1.7529,-1.8371,-1.8121,-1.7789,-1.7619,-1.7204,-1.6804,-1.6566,-1.6484,-1.6154,-1.5477,-1.4364,-1.3594,-1.319,-1.1986,-1.0961,-1.0183,-0.985,-0.9161,-0.8208,-0.5786,-0.4182,-0.3115,0.0,0.2234,0.3748,0.3753,0.4461,0.5692,0.6062,0.5356,0.4111,0.4999,0.5888,0.6605,0.6605,0.7132,0.8006,0.0,0.0,-1.5005,-1.5008,-1.4871,-1.456,-1.4069,-1.3609,-1.3131,-1.2506,-1.1506,-1.0768,-1.059,-0.9476,-0.8862,-0.8977,-0.8149,-0.7575,-0.7447,-0.6772,-0.627,-0.6136,-0.592,-0.6071,-0.6658,-0.6701,-0.6583,-0.6423,-0.6521,-0.6324,-0.5691,-0.6531,-0.6992,-0.7064,-0.7135,-0.76,-0.8169,-0.7561,-0.8075,-0.9266,-0.8959,-0.9487,-1.0628,-1.1514,-1.2184,-1.2638,-1.2485,-1.2159,-1.1636,-1.0442,-0.9373,-0.8365,-0.7306,-0.6404,-0.5722,-0.5453,-0.501,-0.4478,-0.421,-0.3673,-0.3135,-0.2956,-0.3044,0.0,-0.4823,-0.5528,-0.6316,-0.8086,-0.9139,-0.9836,-1.0096,-1.0626,-1.1063,-1.123,-1.123,-1.2328,-1.553,-1.6034,-1.6288,-1.6976,-1.6976,-1.6976,-1.6894,-1.6484,-1.6162,-1.5899,-1.5401,-1.4727,-1.3873,-1.2753,-1.1986,-1.1729,-0.9836,-0.8978,-0.9148,-0.8364,-0.7394,-0.6239,-0.3645,-0.1867,-0.089,0.1874,0.3575,0.437,0.4372,0.49,0.578,0.659,0.6681,0.6502,0.7478,0.8013,0.8105,0.7672,0.8105,0.8798,-1.582,-1.5866,-1.585,-1.5845,-1.5631,-1.5419,-1.5195,-1.4887,-1.4414,-1.3857,-1.2813,-1.1986,-1.17,-1.1105,-1.0764,-1.0779,-1.0329,-0.9794,-0.927,-0.8869,-0.84,-0.7943,-0.7618,-0.7623,-0.7962,-0.7853,-0.7702,-0.7572,-0.7592,-0.7477,-0.7146,-0.7604,-0.8134,-0.8519,-0.8633,-0.8908,-0.9286,-0.8832,-0.9427,-1.0473,-1.0162,-1.0685,-1.1729,-1.2631,-1.323,-1.355,-1.3719,-1.3487,-1.2922,-1.0931,-0.9857,-0.9181,-0.8154,-0.7132,-0.634,-0.5808,-0.5542,-0.5186,-0.4206,-0.4117,-0.4115,-0.358,-0.3578,0.0,0.0,-0.4819,-0.5349,-0.6062,-0.739,-0.836,-0.8448,-0.9148,-0.9676,-0.9589,-0.985,-1.0788,-1.2723,-1.3497,-1.4176,-1.492,-1.4761,-1.4851,-1.5282,-1.4531,-1.4119,-1.4371,-1.3866,-1.3275,-1.2845,-1.13,-1.0351,-1.0265,-0.8803,-0.8201,-0.8372,-0.7302,-0.6502,-0.588,-0.3115,-0.1247,-0.0178,0.2674,0.455,0.57,0.6057,0.6933,0.8158,0.8261,0.8528,0.879,0.8627,0.8636,0.8548,0.8288,0.8807,0.9501,-1.6665,-1.6623,-1.6558,-1.6699,-1.6418,-1.6196,-1.617,-1.6085,-1.5753,-1.5093,-1.4301,-1.3597,-1.3136,-1.2969,-1.2859,-1.2626,-1.2649,-1.2233,-1.1268,-1.1009,-1.0673,-1.0083,-0.9603,-0.9399,-0.9539,-0.9292,-0.9032,-0.8886,-0.8796,-0.8769,-0.8734,-0.8739,-0.9188,-1.0093,-1.0024,-1.0168,-1.0611,-1.0318,-1.084,-1.1742,-1.1742,-1.2211,-1.2847,-1.3821,-1.4159,-1.4205,-1.4313,-1.4237,-1.3743,-1.1662,-1.0621,-0.9923,-0.9061,-0.8101,-0.7136,-0.6163,-0.6163,-0.6071,-0.438,-0.4561,-0.5095,-0.4295,-0.438,-0.4554,0.0,0.0,0.0,-0.4565,-0.5899,-0.7054,-0.6962,-0.7837,-0.8532,-0.8237,-0.869,-0.9131,-0.9174,-1.023,-1.145,-1.279,-1.2632,-1.2729,-1.3503,-1.2492,-1.1986,-1.2583,-1.2157,-1.1809,-1.1724,-1.0091,-0.9061,-0.8886,-0.8201,-0.7676,-0.7408,-0.6416,-0.57,-0.5255,-0.2496,-0.0624,0.0445,0.3296,0.5435,0.6943,0.7654,0.8973,1.0463,1.0106,1.0279,1.0636,0.9419,0.8899,0.8899,0.8811,0.9161,0.9772,-1.7175,-1.6585,-1.6469,-1.7157,-1.7289,-1.7164,-1.7093,-1.7026,-1.6781,-1.6218,-1.5496,-1.5136,-1.5266,-1.4744,-1.4407,-1.4487,-1.4521,-1.4204,-1.3653,-1.2892,-1.2498,-1.2535,-1.1703,-1.158,-1.2233,-1.2429,-1.2129,-1.1391,-1.0937,-1.0336,-0.9461,-0.9476,-0.9938,-1.0708,-1.034,-1.123,-1.3011,-1.197,-1.2551,-1.4235,-1.4235,-1.4494,-1.5036,-1.6254,-1.6698,-1.6455,-1.603,-1.5651,-1.5131,-1.3941,-1.2242,-1.0438,-0.9923,-0.9056,-0.8105,-0.6966,-0.6691,-0.6502,-0.5184,-0.4383,-0.3757,-0.3398,-0.3398,-0.3576,-0.4206,0.0,-0.4565,-0.5374,0.0,-0.6792,-0.652,0.0,0.0,-0.6966,-0.7142,-0.7264,-0.6781,-0.7131,-0.8424,-1.1182,-1.1884,-1.198,-1.1895,-1.1375,-1.1037,-1.1123,-1.0783,-1.0269,-0.9579,-0.9318,-0.8715,-0.7764,-0.7591,-0.6966,-0.5714,-0.5354,-0.4194,-0.2235,0.0,0.1519,0.2596,0.4828,0.6343,0.7136,0.8277,0.924,1.0033,1.0809,1.1149,1.1154,1.0549,1.0115,0.9777,0.9345,0.9257,0.9345,-1.8283,-1.7705,-1.7383,-1.776,-1.7537,-1.7334,-1.7479,-1.7868,-1.808,-1.7718,-1.7434,-1.7199,-1.691,-1.6614,-1.6648,-1.7125,-1.7165,-1.6747,-1.5797,-1.5375,-1.4712,-1.3615,-1.3108,-1.3045,-1.3349,-1.3334,-1.3179,-1.2799,-1.2576,-1.2265,-1.1883,-1.1607,-1.205,-1.299,-1.2837,-1.3142,-1.376,-1.3719,-1.4014,-1.4649,-1.5423,-1.5915,-1.619,-1.6521,-1.6925,-1.7175,-1.6379,-1.6157,-1.6021,-1.4844,-1.3275,-1.1815,-1.1558,-1.0086,-0.8273,-0.8093,-0.7302,-0.6334,-0.5275,-0.5536,-0.5706,-0.4556,-0.4552,-0.4816,-0.4561,-0.4387,-0.4389,-0.4835,0.0,0.0,0.0,0.0,0.0,0.0,-0.6222,-0.6233,-0.6002,-0.6304,-0.7037,-0.8337,-0.8777,-0.9039,-0.9222,-0.9822,-1.0,-0.9575,-0.896,-0.8611,-0.8356,-0.783,-0.7129,-0.6068,-0.6071,-0.5442,-0.4105,-0.3304,-0.2503,-0.1522,0.0715,0.2236,0.3132,0.5176,0.6511,0.7401,0.8281,0.9331,1.0289,1.0106,1.0712,1.1671,1.0895,1.0636,1.0722,1.0549,1.0463,1.0467,-1.9702,-1.8898,-1.8302,-1.8507,-1.8201,-1.8047,-1.8418,-1.8918,-1.9218,-1.9197,-1.9074,-1.889,-1.8696,-1.8595,-1.8841,-1.9547,-1.9591,-1.9062,-1.7784,-1.7668,-1.6867,-1.518,-1.4752,-1.4537,-1.4537,-1.4258,-1.4114,-1.4114,-1.3897,-1.3745,-1.3745,-1.3171,-1.3535,-1.453,-1.4488,-1.4607,-1.4856,-1.5356,-1.5575,-1.5682,-1.6665,-1.7113,-1.725,-1.6818,-1.7064,-1.7542,-1.69,-1.6734,-1.6706,-1.5636,-1.4364,-1.3171,-1.2923,-1.137,-0.9557,-0.947,-0.8777,-0.7731,-0.6239,-0.6854,-0.7474,-0.563,-0.5628,-0.58,-0.5097,-0.4835,-0.4656,-0.4656,-0.5282,0.0,0.0,0.0,-0.545,-0.5513,0.0,-0.5354,-0.4965,-0.5252,-0.5716,-0.6163,-0.6428,-0.6782,-0.7051,-0.7998,-0.8348,-0.7837,-0.7302,-0.7034,-0.7034,-0.6422,-0.5622,-0.4641,-0.455,-0.3926,-0.2857,-0.1788,-0.1074,-0.0537,0.1521,0.2952,0.3753,0.5528,0.6684,0.7316,0.8193,0.924,1.0366,0.9932,1.0712,1.21,1.1413,1.1413,1.1671,1.1408,1.1327,1.1327,-2.143,-1.9837,-1.8743,-1.9605,-1.9756,-1.9869,-2.0442,-2.025,-2.0146,-2.0505,-2.0018,-2.0039,-2.0902,-2.0719,-2.0746,-2.1255,-2.1302,-2.0782,-1.9628,-1.9354,-1.8767,-1.7638,-1.6872,-1.6533,-1.6533,-1.6,-1.5726,-1.5726,-1.4974,-1.4458,-1.4235,-1.352,-1.3593,-1.4322,-1.4289,-1.5258,-1.6936,-1.6945,-1.7402,-1.8082,-1.8109,-1.8357,-1.852,-1.7692,-1.7594,-1.8014,-1.7942,-1.7708,-1.731,-1.6788,-1.5764,-1.4497,-1.3574,-1.3237,-1.2808,-1.1268,-1.145,-1.1541,-0.8761,-0.807,-0.7727,-0.608,-0.5733,-0.5733,-0.5644,-0.5644,-0.5644,-0.5644,-0.5908,-0.5994,-0.5733,-0.5727,-0.5507,-0.4969,-0.4949,0.0,0.0,-0.3092,-0.3933,-0.5539,-0.5991,-0.6171,-0.6171,-0.5988,-0.5897,-0.6171,-0.5899,-0.5539,-0.5087,-0.5085,-0.4641,-0.3659,-0.339,-0.2768,-0.1879,-0.1342,-0.0179,0.17,0.2952,0.4022,0.4996,0.6251,0.6795,0.6881,0.8017,0.9061,1.0009,1.0885,1.1837,1.2705,1.2619,1.2619,1.2528,1.1666,1.1327,1.1327,-2.1493,-2.0958,-2.0471,-2.035,-2.0103,-2.0225,-2.1041,-2.1197,-2.1553,-2.2309,-2.2241,-2.2303,-2.2984,-2.2938,-2.2849,-2.2834,-2.2847,-2.2274,-2.0812,-2.0235,-1.9651,-1.8916,-1.7755,-1.7354,-1.7862,-1.6872,-1.6342,-1.6342,-1.5409,-1.5096,-1.5186,-1.4452,-1.4425,-1.5174,-1.5124,-1.5702,-1.658,-1.703,-1.7646,-1.8208,-1.8479,-1.8737,-1.904,-1.878,-1.8745,-1.8745,-1.8175,-1.7934,-1.761,-1.664,-1.5809,-1.5123,-1.4803,-1.3866,-1.2832,-1.2383,-1.1872,-1.1101,-1.0062,-0.9899,-0.9557,-0.7819,-0.7482,-0.7404,-0.6789,-0.6171,-0.5819,-0.6343,-0.5991,-0.5549,-0.528,-0.5102,-0.5003,-0.4965,-0.4723,-0.4376,0.0,-0.3657,-0.3403,-0.3129,-0.4469,-0.5186,-0.4734,-0.5186,-0.5549,-0.5638,-0.5369,-0.5186,-0.5006,-0.438,-0.3664,-0.2683,-0.1877,-0.0715,0.1074,0.1163,0.1967,0.3217,0.4378,0.5092,0.5267,0.6428,0.6966,0.7054,0.7404,0.8448,0.9836,0.9584,1.0712,1.2619,1.2015,1.2186,1.2619,1.2357,1.2186,1.2186,-2.2071,-2.2071,-2.1893,-2.1326,-2.1158,-2.1342,-2.1979,-2.2337,-2.2757,-2.3572,-2.3598,-2.3761,-2.4328,-2.4111,-2.3891,-2.3872,-2.3649,-2.2967,-2.1705,-2.1192,-2.0673,-2.0095,-1.8813,-1.8297,-1.8747,-1.7693,-1.7092,-1.7021,-1.6599,-1.6439,-1.6533,-1.5773,-1.5602,-1.6073,-1.5878,-1.6244,-1.6962,-1.757,-1.8353,-1.9081,-1.927,-1.9539,-1.9775,-1.9775,-1.946,-1.8993,-1.8576,-1.8487,-1.8327,-1.7538,-1.6796,-1.6288,-1.6147,-1.5137,-1.3866,-1.3853,-1.325,-1.2304,-1.1364,-1.1203,-1.0864,-0.8782,-0.8444,-0.8368,-0.7753,-0.7139,-0.6789,-0.7132,-0.6691,-0.6163,-0.5808,-0.5366,-0.5102,-0.5188,-0.4743,-0.421,0.0,-0.3226,-0.2331,-0.0896,-0.2593,-0.3755,-0.3396,-0.3846,-0.4385,-0.5104,-0.4832,-0.4385,-0.4026,-0.34,-0.2505,-0.1164,-0.0448,0.0627,0.1972,0.2418,0.3132,0.4018,0.5181,0.5897,0.6163,0.6877,0.7319,0.7408,0.7753,0.8536,0.9666,0.9323,1.0279,1.1929,1.1322,1.1671,1.2619,1.2705,1.279,1.279,-2.3138,-2.3078,-2.2915,-2.2447,-2.2786,-2.3198,-2.3403,-2.3543,-2.3813,-2.4292,-2.4182,-2.4385,-2.5175,-2.4483,-2.4092,-2.4337,-2.3852,-2.3125,-2.2237,-2.2163,-2.1815,-2.1285,-2.0053,-1.9473,-1.9494,-1.8696,-1.8138,-1.7934,-1.8338,-1.8397,-1.8202,-1.7362,-1.6918,-1.6953,-1.6464,-1.7021,-1.8142,-1.8585,-1.945,-2.0566,-2.0566,-2.0566,-2.0566,-2.0566,-1.9863,-1.8772,-1.9152,-1.9301,-1.9301,-1.9222,-1.8727,-1.7917,-1.7521,-1.6804,-1.6004,-1.5514,-1.5431,-1.4908,-1.276,-1.2072,-1.1472,-0.9231,-0.854,-0.8544,-0.8544,-0.8456,-0.8277,-0.7921,-0.7746,-0.757,-0.7139,-0.634,-0.5719,-0.5719,-0.4921,-0.3849,-0.2417,-0.1792,-0.0807,0.0807,-0.0537,-0.1879,-0.2327,-0.197,-0.2506,-0.4391,-0.4028,-0.331,-0.2149,-0.197,-0.1164,0.0628,0.0987,0.1166,0.1166,0.233,0.3401,0.4378,0.5272,0.6343,0.7415,0.7507,0.768,0.7944,0.8803,0.9148,0.9235,1.0197,1.0549,1.0636,1.0636,1.1327,1.2448,1.2619,1.2875,1.3137,-2.3198,-2.3078,-2.3027,-2.2949,-2.311,-2.339,-2.3509,-2.3956,-2.4452,-2.4894,-2.5384,-2.5946,-2.6486,-2.6312,-2.6028,-2.5673,-2.5007,-2.4279,-2.3636,-2.2652,-2.243,-2.3243,-2.1987,-2.1693,-2.2624,-2.0956,-2.0041,-2.0041,-1.8879,-1.8378,-1.8522,-1.7894,-1.7735,-1.7935,-1.7649,-1.8099,-1.8997,-1.9097,-1.9696,-2.0566,-2.0566,-2.0411,-2.0098,-2.0489,-2.0177,-1.9548,-1.9381,-1.9301,-1.9222,-1.8567,-1.8158,-1.7836,-1.7107,-1.6706,-1.6386,-1.5673,-1.5431,-1.5257,-1.4482,-1.3451,-1.2157,-1.0692,-0.9405,-0.8544,-0.8544,-0.7929,-0.758,-0.8021,-0.7573,-0.6953,-0.6605,-0.5988,-0.5458,-0.5458,-0.4835,-0.3941,-0.2867,-0.2418,-0.1613,0.009,0.0179,0.0,-0.0089,-0.0984,-0.161,-0.1969,-0.2057,-0.1878,-0.1342,-0.0537,0.009,0.0448,0.1436,0.2153,0.2689,0.3133,0.3848,0.483,0.5808,0.6343,0.6697,0.7499,0.7856,0.7944,0.8116,0.8632,0.9235,0.9497,0.9932,1.0636,1.0636,1.1327,1.2448,1.3222,1.3052,1.2619,-2.3989,-2.3708,-2.362,-2.3863,-2.3782,-2.3734,-2.3897,-2.458,-2.5354,-2.6009,-2.6361,-2.6862,-2.7749,-2.7292,-2.688,-2.6876,-2.6213,-2.5576,-2.4878,-2.4124,-2.3904,-2.4343,-2.3333,-2.306,-2.3779,-2.2605,-2.174,-2.1325,-2.0573,-2.0072,-1.9803,-1.9081,-1.8801,-1.8939,-1.8381,-1.8638,-1.945,-1.9775,-2.0167,-2.0566,-2.0566,-2.0411,0.0,-2.0489,-2.0411,-2.0177,-1.9932,-1.9854,-1.9775,-1.8886,-1.8318,-1.7836,-1.6935,-1.646,-1.6064,-1.5506,-1.5431,-1.5347,-1.4915,-1.4055,-1.3021,-1.1563,-1.0448,-0.9584,-0.9244,-0.8719,-0.8456,-0.864,-0.8285,-0.7753,-0.7408,-0.652,-0.5547,-0.4748,-0.3942,-0.3136,-0.251,-0.2151,-0.1344,0.0,0.0448,0.0896,0.1611,0.0537,-0.0179,-0.0268,-0.0447,-0.0358,0.0,0.0626,0.1074,0.1166,0.1884,0.2423,0.278,0.3314,0.3846,0.4383,0.5719,0.6517,0.6779,0.7757,0.8292,0.8556,0.8815,0.8986,0.9069,0.9501,0.9763,0.9946,1.0971,1.1488,1.2015,1.373,1.3893,1.3294,-2.5238,-2.4807,-2.4616,-2.5069,-2.486,-2.4633,-2.4749,-2.5493,-2.6341,-2.7256,-2.7212,-2.7555,-2.8759,-2.7795,-2.7286,-2.791,-2.7367,-2.6769,-2.6069,-2.5959,-2.5686,-2.523,-2.4558,-2.4176,-2.4249,-2.3952,-2.3276,-2.2284,-2.2613,-2.2231,-2.1205,-2.0469,-2.006,-1.9982,-1.9018,-1.9107,-1.9913,-2.0401,-2.0644,-2.0712,-2.0644,-2.0566,-2.0566,-2.0566,-2.0566,-2.0566,-2.0566,-2.0566,-2.0479,-1.9696,-1.8966,-1.8158,-1.7188,-1.6386,-1.5665,-1.5431,-1.5347,-1.5257,-1.465,-1.4223,-1.3626,-1.2266,-1.1585,-1.1068,-1.0381,-1.0125,-0.9864,-0.9432,-0.9257,-0.9087,-0.8656,-0.7408,-0.5897,-0.421,-0.3138,-0.2422,-0.2241,-0.1704,-0.0986,0.0,0.009,0.0,0.2688,0.2061,0.1432,0.1158,0.1161,0.1253,0.1611,0.17,0.1881,0.2333,0.2333,0.2422,0.2601,0.3401,0.3844,0.4022,0.5714,0.6779,0.721,0.8189,0.8903,0.9345,0.9951,0.9689,0.8999,0.9951,0.9946,0.951,1.1649,1.1997,1.1666,1.423,1.4915,1.4482,-2.6526,-2.6457,-2.6424,-2.6532,-2.6882,-2.7165,-2.7165,-2.689,-2.6891,-2.7596,-2.8181,-2.8615,-2.8876,-2.8691,-2.855,-2.8722,-2.8024,-2.7603,-2.7485,-2.6996,-2.685,-2.7198,-2.6516,-2.6427,-2.6827,-2.5652,-2.4578,-2.3693,-2.3231,-2.2402,-2.1436,-2.1118,-2.0886,-2.0741,-2.0333,-2.0615,-2.1375,-2.0867,-2.1011,-2.1538,-2.0867,-2.0566,-2.0566,-2.0566,-2.0566,-2.0566,-2.0566,-2.0566,-2.0566,-2.0401,-2.0245,-1.9844,-1.8238,-1.7674,-1.7196,-1.5658,-1.5257,-1.5257,-1.4741,-1.4139,-1.3366,-1.2936,-1.2003,-1.1235,-1.1068,-1.0463,-0.9859,-0.9772,-0.9257,-0.8652,-0.8656,-0.7676,-0.6697,-0.5813,-0.4656,-0.403,-0.4385,-0.3489,-0.2505,-0.1791,-0.1343,0.0,0.2598,0.2509,0.2596,0.3307,0.3309,0.3223,0.2867,0.3136,0.3138,0.3048,0.3229,0.3762,0.4465,0.4912,0.5356,0.5883,0.7037,0.757,0.7742,0.8723,0.9257,0.9349,0.9432,0.9345,0.9262,1.0207,1.0885,1.1558,1.293,1.3366,1.3366,1.4824,1.5257,1.5173,-2.7838,-2.7603,-2.7464,-2.7723,-2.7813,-2.8003,-2.8637,-2.845,-2.8484,-2.9229,-2.9024,-2.921,-3.0253,-2.9706,-2.942,-2.9755,-2.9478,-2.9109,-2.8736,-2.8432,-2.8236,-2.8121,-2.7444,-2.7262,-2.7471,-2.6358,-2.5382,-2.4707,-2.3768,-2.2894,-2.208,-2.1502,-2.1128,-2.1061,-2.0819,-2.0876,-2.1165,-2.0789,-2.0789,-2.1165,-2.0799,-2.0566,-2.0411,-2.0411,-2.0333,-2.0255,-2.0255,-2.0255,-2.0177,-2.001,-1.9932,-1.9687,-1.8399,-1.7674,-1.7107,-1.6064,-1.5499,-1.5173,-1.4824,-1.4307,-1.3795,-1.3184,-1.2516,-1.1929,-1.1413,-1.0982,-1.0463,-1.0033,-0.9602,-0.8995,-0.8201,-0.7312,-0.6511,-0.5808,-0.4917,-0.4293,-0.4293,-0.3757,-0.322,-0.2597,-0.1881,-0.0627,0.1253,0.2326,0.331,0.4385,0.4565,0.4387,0.3762,0.4121,0.4119,0.3764,0.3853,0.4208,0.4648,0.5181,0.5536,0.5888,0.7214,0.783,0.8006,0.8986,0.9519,0.9694,1.0038,1.0207,1.0207,1.1144,1.1821,1.2504,1.3535,1.388,1.4048,1.5151,1.5665,1.5673,-2.9073,-2.8829,-2.8667,-2.9001,-2.8897,-2.9073,-2.9883,-3.0103,-3.0319,-3.0645,-2.9876,-2.9837,-3.1302,-3.0572,-3.0134,-3.0598,-3.0568,-3.0387,-2.987,-2.9808,-2.9546,-2.8953,-2.8182,-2.767,-2.767,-2.6714,-2.5828,-2.5158,-2.4264,-2.3396,-2.2657,-2.1952,-2.1568,-2.1349,-2.1195,-2.1041,-2.0867,-2.0634,-2.0712,-2.0867,-2.0634,-2.0489,-2.0342,-2.0342,-2.0186,-2.0029,-2.0029,-1.9942,-1.9863,-1.9539,-1.946,-1.9301,-1.8487,-1.7755,-1.7098,-1.6788,-1.6229,-1.565,-1.5311,-1.4977,-1.4552,-1.3782,-1.3288,-1.279,-1.21,-1.1752,-1.1408,-1.0636,-1.0202,-0.9419,-0.7929,-0.7129,-0.6508,-0.5983,-0.5181,-0.4556,-0.4378,-0.4024,-0.3667,-0.3401,-0.2239,-0.1165,-0.0089,0.1788,0.3487,0.4652,0.528,0.5282,0.4567,0.4921,0.4921,0.4567,0.4567,0.4656,0.4921,0.545,0.5802,0.5888,0.739,0.8185,0.8356,0.9244,0.9777,1.0038,1.0641,1.1068,1.1413,1.2248,1.2845,1.3275,1.4223,1.4482,1.4398,1.5235,1.5582,1.5673,-3.0393,-3.0852,-3.0968,-3.0526,-3.1273,-3.184,-3.1407,-3.1762,-3.1788,-3.0763,-3.0998,-3.1129,-3.0732,-3.1087,-3.113,-3.0628,-3.0568,-3.0568,-3.0507,-3.0507,-3.0507,-3.0433,-2.9142,-2.8298,-2.8117,-2.685,-2.5758,-2.4779,-2.4862,-2.4045,-2.2529,-2.3032,-2.2713,-2.1766,-2.169,-2.169,-2.1614,-2.0944,-2.1011,-2.1614,-2.0867,-2.0566,-2.0566,-2.0566,-2.0411,-2.0264,-2.0264,-2.0108,-1.9863,-1.9863,-1.9863,-1.9784,-1.9301,-1.8966,-1.8638,-1.7819,-1.7666,-1.7594,-1.718,-1.6445,-1.5794,-1.5477,-1.4741,-1.3913,-1.3828,-1.3222,-1.2528,-1.2448,-1.1063,-0.9506,-0.8372,-0.7937,-0.7676,-0.7326,-0.6343,-0.5808,-0.6694,-0.5267,-0.4376,-0.4732,-0.3129,-0.1522,-0.0089,0.1342,0.2685,0.3939,0.5277,0.5816,0.5282,0.5371,0.5371,0.5282,0.5282,0.5813,0.6786,0.6694,0.6953,0.757,0.8448,0.8803,0.889,0.9598,0.9951,1.0038,1.0463,1.1322,1.2619,1.3281,1.4048,1.4915,1.5665,1.5499,1.4999,1.509,1.4755,1.4334,-3.1652,-3.1595,-3.1537,-3.1652,-3.1766,-3.1766,-3.1537,-3.1709,-3.1709,-3.1204,-3.1364,-3.1537,-3.1652,-3.1263,-3.0851,-3.0628,-3.0568,-3.0568,-3.0568,-3.0568,-3.0568,-3.0568,-2.9268,-2.8427,-2.8182,-2.6756,-2.5828,-2.5382,-2.4791,-2.4172,-2.3606,-2.3374,-2.2947,-2.251,-2.251,-2.251,-2.251,-2.2209,-2.1918,-2.1614,-2.1787,-2.1098,-2.002,-2.0557,-2.0323,-1.9706,-1.9706,-1.9618,-1.9539,-1.9706,-1.9794,-1.9863,-1.9696,-1.9292,-1.8727,-1.8221,-1.7747,-1.7359,-1.7025,-1.6288,-1.5636,-1.556,-1.4824,-1.4088,-1.4088,-1.3828,-1.3313,-1.2619,-1.0885,-0.9327,-0.889,-0.8201,-0.7595,-0.7507,-0.6966,-0.6609,-0.6697,-0.6071,-0.5539,-0.5455,-0.3758,-0.2329,-0.179,0.0447,0.2416,0.3664,0.4914,0.5633,0.5371,0.5638,0.5816,0.5816,0.5641,0.5905,0.6523,0.6694,0.6953,0.7217,0.7921,0.8273,0.8273,0.8978,1.0024,1.1241,1.1671,1.2522,1.3548,1.3795,1.4139,1.4566,1.4748,1.4748,1.4489,1.4657,1.4489,1.4405,-3.2398,-3.2201,-3.2074,-3.2327,-3.2312,-3.2185,-3.2018,-3.213,-3.2241,-3.2241,-3.213,-3.2033,-3.2104,-3.1364,-3.0807,-3.0642,-3.0568,-3.0568,-3.0568,-3.0568,-3.0568,-3.0568,-2.9268,-2.8363,-2.8182,-2.6688,-2.5828,-2.5688,-2.4933,-2.4482,-2.4413,-2.3758,-2.3402,-2.3316,-2.3316,-2.3169,-2.3032,-2.3032,-2.2585,-2.1983,-2.2467,-2.1787,-2.0557,-2.0867,-2.0469,-1.9775,-1.946,-1.9381,-1.9301,-1.9478,-1.9636,-1.9706,-1.9863,-1.946,-1.8984,-1.8798,-1.8318,-1.7844,-1.7594,-1.669,-1.5876,-1.5801,-1.4901,-1.4088,-1.4088,-1.4088,-1.3743,-1.2619,-1.0971,-0.9579,-0.9148,-0.8197,-0.7418,-0.733,-0.7146,-0.6877,-0.6428,-0.6163,-0.5811,-0.546,-0.376,-0.2509,-0.251,-0.009,0.1878,0.2948,0.3929,0.4648,0.5277,0.5902,0.608,0.5811,0.5816,0.5908,0.6169,0.6343,0.652,0.652,0.7217,0.7482,0.757,0.8623,1.0193,1.2015,1.2357,1.2954,1.3717,1.3971,1.4139,1.4139,1.4405,1.4321,1.4223,1.4307,1.423,1.4146,-3.2398,-3.2841,-3.2986,-3.2492,-3.3298,-3.3882,-3.3251,-3.3697,-3.405,-3.405,-3.3543,-3.2756,-3.1652,-3.148,-3.1263,-3.0628,-3.0568,-3.0568,-3.0568,-3.0568,-3.0568,-3.0568,-2.9268,-2.8363,-2.7986,-2.662,-2.5688,-2.5312,-2.5453,-2.5187,-2.453,-2.4462,-2.4365,-2.412,-2.412,-2.3672,-2.3032,-2.3032,-2.3021,-2.2957,-2.2767,-2.2703,-2.2553,-2.1548,-2.1088,-2.0789,-1.9951,-1.9469,-1.9301,-1.9301,-1.9301,-1.9381,-1.9784,-1.9794,-1.9645,-1.9784,-1.9863,-1.9784,-1.9636,-1.8318,-1.6919,-1.669,-1.5394,-1.4088,-1.4088,-1.4088,-1.3743,-1.2619,-1.166,-1.0529,-0.9152,-0.8113,-0.7326,-0.6884,-0.6795,-0.6704,-0.6432,-0.563,-0.4919,-0.4739,-0.3041,-0.1702,-0.1435,-0.0269,0.0806,0.179,0.2059,0.295,0.4907,0.5894,0.5983,0.5087,0.5719,0.6169,0.6428,0.5905,0.5733,0.5733,0.6428,0.6779,0.6864,0.8703,1.0448,1.2015,1.2015,1.2272,1.279,1.3717,1.4139,1.4223,1.5061,1.4977,1.4398,1.4139,1.3639,1.3137,-3.3559,-3.323,-3.3055,-3.3507,-3.3351,-3.3214,-3.3198,-3.3055,-3.2926,-3.2926,-3.2074,-3.1465,-3.148,-3.148,-3.119,-3.0447,-3.0507,-3.0507,-3.0387,-3.0387,-3.0387,-3.0387,-2.9435,-2.8803,-2.8532,-2.7136,-2.6346,-2.607,-2.5594,-2.5298,-2.5059,-2.5059,-2.5003,-2.4933,-2.4933,-2.4791,-2.4576,-2.4576,-2.4192,-2.361,-2.3948,-2.335,-2.2209,-2.2381,-2.208,-2.1461,-2.1231,-2.0692,-2.0148,-2.0148,-1.9766,-1.9301,-1.946,-1.946,-1.939,-1.946,-1.946,-1.9381,-1.8656,-1.7674,-1.6609,-1.5966,-1.4992,-1.4088,-1.4088,-1.3997,-1.3652,-1.3222,-1.2272,-1.1316,-1.0631,-0.924,-0.8109,-0.7837,-0.7228,-0.6615,-0.6257,-0.5902,-0.5636,-0.5371,-0.4295,-0.3224,-0.251,-0.1434,0.0,0.188,0.2059,0.2594,0.3753,0.402,0.4465,0.4996,0.5092,0.563,0.6704,0.6346,0.6169,0.6169,0.6432,0.6782,0.7309,0.8882,1.0106,1.1068,1.21,1.2534,1.2705,1.3215,1.3385,1.3476,1.3893,1.3899,1.373,1.3646,1.3476,1.3398,-3.4101,-3.3662,-3.3455,-3.3984,-3.3559,-3.323,-3.3491,-3.3087,-3.2834,-3.3033,-3.2296,-3.1736,-3.1736,-3.1736,-3.1349,-3.0493,-3.0447,-3.0447,-3.0312,-3.0266,-3.0205,-3.0205,-2.9477,-2.9022,-2.8803,-2.7683,-2.7015,-2.6812,-2.6057,-2.5581,-2.5312,-2.5312,-2.5312,-2.5312,-2.5312,-2.5241,-2.5241,-2.5241,-2.4802,-2.4227,-2.4562,-2.402,-2.2957,-2.299,-2.2692,-2.222,-2.1918,-2.1461,-2.0924,-2.0615,-2.0148,-1.9687,-1.9381,-1.9301,-1.9301,-1.9301,-1.9301,-1.9213,-1.8647,-1.7594,-1.6535,-1.6041,-1.4901,-1.3913,-1.3828,-1.3737,-1.3568,-1.3307,-1.2448,-1.1585,-1.1327,-0.9666,-0.8273,-0.8093,-0.7224,-0.6438,-0.5997,-0.5908,-0.573,-0.5196,-0.4656,-0.3941,-0.2956,-0.1882,-0.0717,0.0717,0.1164,0.1612,0.197,0.2952,0.3576,0.3929,0.4469,0.5275,0.6254,0.6343,0.6428,0.6428,0.6428,0.6868,0.7837,0.9056,1.0106,1.1068,1.2186,1.279,1.296,1.3137,1.3228,1.3313,1.3568,1.3652,1.3652,1.3568,1.3476,1.3561,-3.405,-3.405,-3.4101,-3.4101,-3.3899,-3.3797,-3.405,-3.3591,-3.345,-3.3949,-3.3694,-3.314,-3.2099,-3.1972,-3.1592,-3.0628,-3.0387,-3.0326,-3.0266,-3.0158,-3.0111,-3.0111,-2.9477,-2.9022,-2.8867,-2.8222,-2.7696,-2.7417,-2.6676,-2.6,-2.5312,-2.5312,-2.5312,-2.5312,-2.5312,-2.5182,-2.5052,-2.5052,-2.4992,-2.479,-2.4574,-2.449,-2.4418,-2.3372,-2.3001,-2.2916,-2.2069,-2.1756,-2.1603,-2.0769,-2.0459,-2.0304,-1.9529,-1.9301,-1.9301,-1.9301,-1.9301,-1.9301,-1.9222,-1.7997,-1.678,-1.6617,-1.5137,-1.3652,-1.3476,-1.3398,-1.3313,-1.3143,-1.2448,-1.1757,-1.1413,-0.9749,-0.8269,-0.7918,-0.6959,-0.6083,-0.5733,-0.5733,-0.5374,-0.4478,-0.4389,-0.403,-0.3047,-0.1879,-0.1253,-0.1345,-0.0269,0.0359,0.009,0.2419,0.3223,0.2149,0.3846,0.5008,0.5447,0.6074,0.634,0.6428,0.6428,0.7044,0.8269,0.9231,1.0366,1.1671,1.2443,1.296,1.3398,1.3398,1.3568,1.3737,1.4004,1.4088,1.4088,1.3822,1.3737,1.3737,-3.3797,-3.3797,-3.3848,-3.405,-3.3899,-3.3694,-3.3797,-3.3314,-3.2873,-3.2819,-3.2048,-3.1379,-3.1146,-3.0792,-3.0507,-3.0233,-3.0266,-3.0266,-3.0158,-3.0111,-3.0036,-2.9884,-2.9588,-2.9477,-2.9401,-2.8712,-2.7789,-2.6688,-2.5931,-2.5441,-2.5312,-2.5312,-2.5241,-2.5182,-2.5182,-2.5052,-2.4861,-2.4861,-2.4861,-2.479,-2.4574,-2.449,-2.4418,-2.3372,-2.3001,-2.2916,-2.2069,-2.1375,-2.0769,-2.0537,-2.0079,-1.9529,-1.9381,-1.9301,-1.9301,-1.9301,-1.9301,-1.9143,-1.8487,-1.7997,-1.735,-1.6041,-1.4727,-1.3652,-1.3476,-1.3398,-1.3313,-1.3143,-1.2881,-1.2711,-1.2443,-1.1402,-1.0188,-0.9043,-0.8002,-0.6959,-0.5819,-0.5733,-0.5644,-0.5374,-0.5374,-0.5015,-0.403,-0.2861,-0.1788,-0.0895,0.0269,0.0807,0.0538,0.1435,0.2061,0.2059,0.2506,0.3666,0.563,0.5808,0.6251,0.6962,0.6962,0.7489,0.8452,0.9405,1.0361,1.1413,1.2534,1.3052,1.3222,1.3483,1.3652,1.3737,1.4004,1.4088,1.4088,1.4004,1.3997,1.3997,-3.3503,-3.3607,-3.3761,-3.3899,-3.3797,-3.3642,-3.3403,-3.2857,-3.2407,-3.2201,-3.1522,-3.1014,-3.0777,-3.0539,-3.0251,-2.996,-3.0007,-3.0068,-2.996,-2.9927,-2.9851,-2.9699,-2.9665,-2.9602,-2.9602,-2.8903,-2.7776,-2.6414,-2.6,-2.5652,-2.5312,-2.5312,-2.5241,-2.5182,-2.5111,-2.4992,-2.479,-2.4718,-2.4646,-2.4502,-2.4418,-2.4345,-2.4273,-2.3751,-2.3298,-2.2916,-2.2531,-2.1842,-2.0991,-2.0615,-2.0235,-1.9766,-1.946,-1.9301,-1.9301,-1.9301,-1.9301,-1.9143,-1.8576,-1.8175,-1.735,-1.547,-1.4482,-1.3808,-1.3215,-1.3052,-1.3052,-1.2966,-1.2881,-1.2881,-1.2705,-1.1837,-1.088,-0.9995,-0.8611,-0.7309,-0.6435,-0.5997,-0.5733,-0.5733,-0.5733,-0.5463,-0.5015,-0.3757,-0.2592,-0.1609,-0.0358,0.0538,0.0718,0.0897,0.1165,0.1433,0.215,0.3133,0.4383,0.5275,0.6163,0.7139,0.7139,0.7404,0.7929,0.8973,0.9753,1.0453,1.1923,1.2705,1.2966,1.3476,1.3737,1.3913,1.3997,1.4088,1.4088,1.4088,1.3828,1.3483,-3.3256,-3.345,-3.3658,-3.3658,-3.3658,-3.3471,-3.3071,-3.2532,-3.2145,-3.1905,-3.1549,-3.1145,-3.0674,-3.0555,-3.0329,-2.9808,-2.9761,-2.9747,-2.9808,-2.9713,-2.9602,-2.9602,-2.9602,-2.9602,-2.9602,-2.8776,-2.7789,-2.6552,-2.6346,-2.5931,-2.5312,-2.5312,-2.5241,-2.5241,-2.5111,-2.4921,-2.4718,-2.4502,-2.4345,-2.42,-2.42,-2.42,-2.42,-2.4043,-2.3593,-2.3001,-2.2692,-2.2145,-2.1451,-2.0615,-2.0313,-2.0235,-1.9529,-1.9301,-1.9222,-1.9222,-1.9222,-1.9152,-1.9073,-1.8345,-1.7196,-1.5304,-1.4559,-1.4139,-1.3124,-1.2784,-1.2705,-1.2619,-1.2705,-1.2705,-1.2619,-1.1832,-1.1047,-1.0438,-0.8882,-0.7489,-0.6966,-0.6171,-0.5733,-0.5733,-0.5733,-0.5733,-0.5733,-0.4474,-0.3307,-0.2502,-0.1164,-0.009,0.0718,0.0807,0.0807,0.0718,0.1972,0.2777,0.3135,0.4828,0.6163,0.7139,0.7139,0.7228,0.7401,0.8452,0.9065,0.9497,1.1144,1.21,1.2534,1.313,1.3476,1.3652,1.3652,1.3652,1.3652,1.3652,1.3222,1.279,-3.2951,-3.3203,-3.3346,-3.3346,-3.3346,-3.324,-3.2935,-3.2827,-3.2539,-3.1838,-3.1364,-3.0896,-3.0418,-3.0007,-2.9713,-2.9665,-2.9665,-2.9651,-2.9808,-2.9747,-2.9699,-2.9602,-2.9602,-2.9602,-2.9602,-2.8338,-2.7537,-2.7351,-2.6057,-2.5382,-2.5312,-2.5312,-2.5182,-2.4861,-2.4861,-2.4646,-2.4273,-2.4273,-2.42,-2.42,-2.42,-2.42,-2.4127,-2.3446,-2.3075,-2.2841,-2.1385,-2.0847,-2.0615,-1.9766,-1.946,-1.945,-1.9301,-1.9152,-1.9082,-1.9082,-1.8922,-1.8851,-1.8922,-1.8264,-1.7277,-1.6706,-1.547,-1.4307,-1.388,-1.3209,-1.2619,-1.2448,-1.2619,-1.2619,-1.2209,-1.2112,-1.1494,-0.9497,-0.889,-0.8013,-0.6174,-0.5822,-0.5733,-0.5733,-0.5733,-0.5733,-0.5733,-0.4561,-0.3393,-0.2233,-0.1073,0.0,0.0987,0.1166,0.1256,0.1076,0.1256,0.2238,0.4022,0.5184,0.6163,0.7139,0.7139,0.7665,0.8627,0.8803,0.9414,1.0371,1.0895,1.1241,1.1327,1.1585,1.1671,1.1757,1.1757,1.1757,1.1757,1.1757,1.21,1.2705,-3.2648,-3.2881,-3.2973,-3.2711,-3.2819,-3.2656,-3.1864,-3.1694,-3.1465,-3.0673,-3.0372,-3.0144,-2.996,-2.9727,-2.9602,-2.9602,-2.9602,-2.9602,-2.9713,-2.9713,-2.9651,-2.9602,-2.9602,-2.9275,-2.8481,-2.7815,-2.7136,-2.6321,-2.5652,-2.5241,-2.5182,-2.5182,-2.5052,-2.479,-2.4718,-2.4574,-2.4345,-2.4273,-2.42,-2.42,-2.42,-2.42,-2.4127,-2.3824,-2.3372,-2.2927,-2.2155,-2.1231,-2.0459,-2.0079,-1.9687,-1.9301,-1.9301,-1.9152,-1.9002,-1.9002,-1.8763,-1.8523,-1.8683,-1.8184,-1.761,-1.6952,-1.6206,-1.5379,-1.421,-1.3711,-1.3203,-1.2534,-1.2448,-1.2454,-1.2037,-1.2123,-1.1768,-1.0641,-0.9941,-0.9065,-0.7404,-0.6789,-0.626,-0.5733,-0.5733,-0.5733,-0.5733,-0.5008,-0.4022,-0.2949,-0.1699,-0.0537,0.0448,0.1076,0.1345,0.1256,0.1256,0.2238,0.4287,0.4734,0.5714,0.7139,0.7139,0.7404,0.7929,0.8197,0.8636,0.9161,1.0028,1.0376,1.0463,1.1063,1.1327,1.1327,1.1327,1.1585,1.2015,1.1499,1.1929,1.2705,-3.2398,-3.2594,-3.2594,-3.2089,-3.2201,-3.2018,-3.0911,-3.0793,-3.051,-2.9837,-2.9789,-2.9727,-2.9602,-2.9602,-2.9602,-2.9602,-2.9602,-2.9602,-2.9602,-2.9602,-2.9602,-2.9602,-2.9602,-2.9071,-2.8012,-2.7683,-2.6934,-2.5779,-2.5441,-2.5241,-2.5182,-2.5111,-2.4992,-2.4801,-2.4574,-2.449,-2.4418,-2.4273,-2.42,-2.42,-2.42,-2.42,-2.4189,-2.397,-2.3666,-2.3224,-2.2841,-2.1918,-2.0769,-2.0537,-1.9923,-1.9222,-1.9152,-1.8993,-1.8843,-1.8843,-1.8603,-1.8362,-1.8362,-1.8201,-1.787,-1.7196,-1.6862,-1.6281,-1.4713,-1.4126,-1.3711,-1.2534,-1.2363,-1.2283,-1.1866,-1.1871,-1.1785,-1.1348,-1.0646,-0.9767,-0.8368,-0.7577,-0.67,-0.5733,-0.5644,-0.5644,-0.5552,-0.5191,-0.4563,-0.3578,-0.2415,-0.1253,-0.009,0.0718,0.1166,0.1436,0.1436,0.2329,0.4378,0.4378,0.5356,0.7319,0.7231,0.7231,0.7404,0.7764,0.7944,0.812,0.9165,0.9602,0.9689,1.0376,1.0636,1.0636,1.0636,1.1068,1.1671,1.1235,1.1666,1.2522,-3.2398,-3.2398,-3.2287,-3.1781,-3.1724,-3.161,-3.1073,-3.0955,-3.0792,-3.0312,-3.0266,-3.0083,-2.9665,-2.9602,-2.9602,-2.9602,-2.9602,-2.9602,-2.9602,-2.9602,-2.9602,-2.9602,-2.9602,-2.954,-2.9477,-2.8143,-2.7484,-2.7338,-2.5988,-2.5312,-2.5312,-2.5182,-2.4992,-2.4801,-2.4574,-2.4418,-2.42,-2.42,-2.42,-2.42,-2.42,-2.42,-2.4116,-2.3372,-2.3519,-2.3897,-2.2446,-2.1842,-2.1527,-2.0585,-1.9678,-1.9002,-1.8772,-1.8612,-1.8442,-1.8442,-1.8282,-1.8121,-1.8353,-1.8201,-1.7959,-1.7951,-1.7286,-1.6453,-1.547,-1.4636,-1.3626,-1.2289,-1.2203,-1.2198,-1.1521,-1.1527,-1.1348,-1.0207,-0.9946,-0.9331,-0.7489,-0.7139,-0.6697,-0.5549,-0.546,-0.5282,-0.5099,-0.501,-0.4472,-0.3307,-0.3129,-0.2147,-0.009,0.009,0.0538,0.1345,0.1436,0.2418,0.4559,0.4559,0.5714,0.7856,0.7591,0.7676,0.8113,0.794,0.8124,0.8568,0.8652,0.8652,0.874,0.874,0.8828,0.8828,0.8828,0.8828,0.8999,1.0019,1.0961,1.1906,-3.2398,-3.2398,-3.2231,-3.1781,-3.1437,-3.1087,-3.0613,-3.0312,-3.0083,-2.9898,-2.9851,-2.9789,-2.9602,-2.9602,-2.9602,-2.9602,-2.9602,-2.9602,-2.9602,-2.9602,-2.9602,-2.9602,-2.9602,-2.9401,-2.8917,-2.7999,-2.7284,-2.6812,-2.5791,-2.5182,-2.4992,-2.4921,-2.4706,-2.4418,-2.4345,-2.4273,-2.42,-2.42,-2.42,-2.42,-2.42,-2.42,-2.4116,-2.3298,-2.3224,-2.3298,-2.1983,-2.1211,-2.075,-2.0207,-1.945,-1.8772,-1.8692,-1.8531,-1.8362,-1.8201,-1.8121,-1.804,-1.8121,-1.8121,-1.7959,-1.7716,-1.7383,-1.6722,-1.5144,-1.4475,-1.3802,-1.2123,-1.1866,-1.1866,-1.1348,-1.1354,-1.1262,-1.0824,-1.0738,-1.012,-0.8193,-0.7929,-0.7312,-0.5638,-0.5371,-0.528,-0.501,-0.4924,-0.4656,-0.4208,-0.3403,-0.2417,-0.0985,0.0269,0.1076,0.1346,0.1525,0.2331,0.376,0.4467,0.5536,0.6962,0.7499,0.7856,0.8028,0.8028,0.8201,0.838,0.8564,0.8656,0.8828,0.8828,0.8911,0.8999,0.8828,0.9602,1.0636,0.9767,1.1219,1.3451,-3.2398,-3.2398,-3.2231,-3.161,-3.1204,-3.0792,-3.019,-2.9789,-2.9602,-2.9602,-2.9602,-2.9602,-2.9602,-2.9602,-2.9602,-2.9602,-2.9602,-2.9602,-2.9602,-2.9477,-2.9477,-2.9602,-2.9602,-2.9324,-2.8839,-2.792,-2.7136,-2.6676,-2.5664,-2.5052,-2.479,-2.4718,-2.4574,-2.4273,-2.42,-2.42,-2.42,-2.42,-2.42,-2.42,-2.42,-2.42,-2.4116,-2.3298,-2.3001,-2.2841,-2.1821,-2.0894,-2.0119,-1.9894,-1.9301,-1.8612,-1.8531,-1.8371,-1.8282,-1.8031,-1.804,-1.804,-1.804,-1.804,-1.7878,-1.7473,-1.7392,-1.6894,-1.4894,-1.4398,-1.3893,-1.2037,-1.1699,-1.1613,-1.1354,-1.1262,-1.1262,-1.1262,-1.1262,-1.0646,-0.8807,-0.8544,-0.7661,-0.5547,-0.528,-0.5102,-0.4832,-0.4656,-0.4569,-0.4569,-0.3851,-0.2776,-0.1432,0.0358,0.1436,0.1436,0.1705,0.2242,0.2869,0.4378,0.5625,0.6609,0.7584,0.8032,0.812,0.8201,0.8288,0.8292,0.8476,0.874,0.8911,0.8911,0.9087,0.9257,0.9087,0.9864,1.0982,0.9946,1.123,1.3451,-3.2398,-3.2398,-3.2104,-3.1146,-3.1029,-3.0673,-2.9727,-2.9602,-2.9602,-2.9602,-2.9602,-2.9602,-2.9602,-2.9602,-2.9602,-2.9602,-2.9602,-2.9602,-2.9602,-2.9289,-2.9226,-2.954,-2.9602,-2.9602,-2.9602,-2.8051,-2.7178,-2.7178,-2.5594,-2.4801,-2.479,-2.4574,-2.449,-2.4502,-2.4273,-2.42,-2.42,-2.42,-2.42,-2.42,-2.42,-2.42,-2.4116,-2.3298,-2.3001,-2.2841,-2.1745,-2.0894,-2.0129,-1.9756,-1.9063,-1.8353,-1.8121,-1.804,-1.804,-1.804,-1.804,-1.804,-1.804,-1.804,-1.7878,-1.7473,-1.7392,-1.6894,-1.481,-1.4391,-1.3893,-1.2037,-1.1699,-1.1613,-1.1354,-1.1262,-1.1262,-1.1262,-1.1262,-1.0646,-0.8807,-0.8544,-0.7661,-0.5275,-0.501,-0.4832,-0.4387,-0.43,-0.43,-0.43,-0.43,-0.3401,-0.1522,0.0358,0.1436,0.1436,0.1885,0.2243,0.2243,0.4293,0.5983,0.7139,0.7848,0.8292,0.8568,0.8292,0.838,0.8568,0.8568,0.874,0.8911,0.8911,0.9087,0.9349,0.9262,0.9349,0.9432,1.0554,1.0982,1.1154,-3.2398,-3.212,-3.1838,-3.1552,-3.097,-3.0433,-3.0144,-2.9789,-2.9602,-2.9602,-2.9602,-2.9602,-2.9602,-2.9602,-2.9602,-2.9602,-2.9602,-2.9338,-2.8753,-2.8624,-2.8274,-2.7696,-2.8481,-2.9035,-2.9226,-2.8012,-2.7404,-2.7404,-2.6,-2.5265,-2.5111,-2.4706,-2.4418,-2.4273,-2.42,-2.42,-2.42,-2.42,-2.42,-2.42,-2.42,-2.4043,-2.3677,-2.2852,-2.2402,-2.1949,-2.0459,-1.9756,-1.9441,-1.8736,-1.8353,-1.8121,-1.804,-1.804,-1.804,-1.804,-1.804,-1.804,-1.804,-1.804,-1.7789,-1.7066,-1.6902,-1.6312,-1.423,-1.373,-1.3222,-1.1693,-1.144,-1.1354,-1.1354,-1.1262,-1.1262,-1.1262,-1.1262,-1.0646,-0.8807,-0.8544,-0.7661,-0.5275,-0.501,-0.4832,-0.4387,-0.43,-0.43,-0.43,-0.3673,-0.2776,-0.1432,-0.0269,0.0718,0.1346,0.1885,0.2243,0.2243,0.3851,0.5097,0.6163,0.7048,0.7852,0.8568,0.8476,0.8564,0.8568,0.8568,0.8828,0.9174,0.9174,0.9432,0.9777,0.9602,1.0038,1.0641,1.0207,1.0971,1.2169,-3.2398,-3.2007,-3.1625,-3.1437,-3.0792,-3.0266,-3.0083,-2.9789,-2.9602,-2.9602,-2.9602,-2.9602,-2.9602,-2.9602,-2.9602,-2.9602,-2.9477,-2.9149,-2.8624,-2.8379,-2.7894,-2.7232,-2.7617,-2.7973,-2.8195,-2.7245,-2.6705,-2.6705,-2.5569,-2.4969,-2.4897,-2.455,-2.4345,-2.42,-2.42,-2.42,-2.42,-2.42,-2.42,-2.42,-2.42,-2.397,-2.353,-2.3075,-2.2241,-2.1252,-2.0148,-1.945,-1.8834,-1.8193,-1.804,-1.804,-1.804,-1.804,-1.804,-1.804,-1.804,-1.7959,-1.7797,-1.7538,-1.7204,-1.6566,-1.6574,-1.6147,-1.3893,-1.3398,-1.2966,-1.1607,-1.1262,-1.1262,-1.1262,-1.1262,-1.1262,-1.1262,-1.1262,-1.0646,-0.8807,-0.8544,-0.7661,-0.5275,-0.501,-0.4832,-0.4387,-0.43,-0.43,-0.43,-0.3044,-0.2059,-0.1431,-0.0179,0.0807,0.1346,0.1885,0.2243,0.2243,0.3229,0.421,0.5188,0.6428,0.7408,0.8032,0.8388,0.8568,0.8568,0.8652,0.8915,0.9349,0.9345,0.9607,0.9951,0.9864,1.0207,1.0722,1.0038,1.0544,1.1569,-3.2398,-3.2007,-3.1495,-3.1073,-3.0553,-3.0083,-2.9665,-2.9602,-2.9602,-2.9602,-2.9602,-2.9602,-2.9602,-2.954,-2.954,-2.954,-2.9226,-2.9035,-2.8972,-2.8327,-2.7776,-2.7471,-2.6824,-2.6539,-2.668,-2.5938,-2.5521,-2.5521,-2.4659,-2.4261,-2.4261,-2.4189,-2.42,-2.42,-2.42,-2.42,-2.42,-2.42,-2.42,-2.4189,-2.4116,-2.3897,-2.3519,-2.3446,-2.2371,-2.076,-2.0508,-1.959,-1.8442,-1.8121,-1.804,-1.804,-1.804,-1.804,-1.7951,-1.7959,-1.7959,-1.787,-1.7383,-1.6788,-1.6281,-1.5989,-1.6245,-1.5982,-1.3899,-1.3398,-1.2966,-1.1607,-1.1262,-1.1262,-1.1262,-1.1262,-1.1262,-1.1262,-1.1262,-1.0646,-0.8807,-0.8544,-0.7661,-0.5275,-0.501,-0.4832,-0.4387,-0.43,-0.43,-0.43,-0.2594,-0.1522,-0.1431,0.0358,0.1345,0.1436,0.1974,0.2243,0.2243,0.2694,0.3409,0.43,0.6074,0.6874,0.6962,0.794,0.8388,0.8476,0.8648,0.8995,0.9345,0.9519,0.9777,1.0038,1.0038,1.0038,1.0038,1.0038,1.0038,1.0038,-3.2398,-3.1709,-3.1146,-3.1029,-3.0312,-2.9727,-2.9602,-2.9602,-2.9602,-2.9602,-2.9602,-2.9602,-2.9602,-2.9352,-2.9226,-2.9226,-2.8908,-2.8379,-2.763,-2.7069,-2.6377,-2.5627,-2.5016,-2.4754,-2.4802,-2.5429,-2.5849,-2.5849,-2.5158,-2.4802,-2.4802,-2.4406,-2.42,-2.42,-2.42,-2.42,-2.42,-2.42,-2.42,-2.4116,-2.3519,-2.3224,-2.3075,-2.2402,-2.1634,-2.0779,-2.0207,-1.952,-1.8763,-1.8201,-1.804,-1.804,-1.804,-1.804,-1.7959,-1.7635,-1.7554,-1.7302,-1.6288,-1.5951,-1.5613,-1.472,-1.497,-1.5061,-1.3724,-1.3398,-1.2966,-1.1607,-1.1262,-1.1262,-1.1262,-1.1262,-1.1262,-1.1262,-1.1262,-1.0646,-0.8807,-0.8544,-0.7661,-0.5275,-0.501,-0.4832,-0.4387,-0.43,-0.43,-0.43,-0.3224,-0.2238,-0.1431,-0.009,0.0987,0.1705,0.2154,0.2424,0.2424,0.2784,0.3409,0.43,0.4743,0.5275,0.5985,0.6254,0.6697,0.7408,0.7669,0.8372,0.9345,0.9519,0.9777,1.0038,1.0038,1.0038,1.0038,1.0038,1.0038,1.0038,-3.1766,-3.1131,-3.0673,-3.0673,-3.0083,-2.9602,-2.9602,-2.9602,-2.9602,-2.9602,-2.9602,-2.9602,-2.9602,-2.9289,-2.9035,-2.8908,-2.8314,-2.7709,-2.7229,-2.6539,-2.5836,-2.5004,-2.4743,-2.4467,-2.42,-2.4754,-2.5099,-2.5099,-2.4743,-2.4599,-2.4599,-2.4334,-2.42,-2.42,-2.42,-2.42,-2.42,-2.397,-2.3897,-2.3824,-2.2905,-2.2456,-2.2231,-2.1461,-2.0692,-1.9932,-1.9608,-1.9063,-1.8442,-1.8121,-1.804,-1.804,-1.804,-1.804,-1.7959,-1.7554,-1.7392,-1.7139,-1.5794,-1.5123,-1.4706,-1.3886,-1.3795,-1.3626,-1.3045,-1.3137,-1.2966,-1.1607,-1.1262,-1.1262,-1.1262,-1.1262,-1.1262,-1.1262,-1.0911,-1.012,-0.8719,-0.8105,-0.7132,-0.5186,-0.501,-0.4832,-0.4387,-0.43,-0.43,-0.43,-0.2955,-0.197,-0.1431,0.0179,0.1256,0.1794,0.2243,0.2513,0.2513,0.2784,0.3141,0.3676,0.4121,0.4565,0.5008,0.5453,0.6251,0.7139,0.7489,0.8281,0.9345,0.9689,0.9864,1.0038,1.0038,1.0038,1.0038,1.0038,1.0038,1.0038,-3.1204,-3.0673,-3.0312,-3.0312,-2.9898,-2.9602,-2.9602,-2.954,-2.9477,-2.9477,-2.9477,-2.9415,-2.9415,-2.9022,-2.8638,-2.8314,-2.7497,-2.696,-2.696,-2.6195,-2.5499,-2.5004,-2.4945,-2.4671,-2.42,-2.42,-2.42,-2.42,-2.42,-2.42,-2.42,-2.42,-2.42,-2.42,-2.4127,-2.4127,-2.4043,-2.3666,-2.3519,-2.3372,-2.2295,-2.1756,-2.1385,-2.0585,-1.9756,-1.9002,-1.9002,-1.8603,-1.804,-1.804,-1.7951,-1.7878,-1.7878,-1.787,-1.7708,-1.731,-1.7147,-1.6812,-1.522,-1.4384,-1.3795,-1.3222,-1.2711,-1.2363,-1.2283,-1.2711,-1.2881,-1.1607,-1.1262,-1.1262,-1.1176,-1.1176,-1.117,-1.1089,-1.0386,-0.951,-0.8456,-0.7665,-0.6609,-0.5099,-0.4921,-0.4743,-0.4297,-0.43,-0.43,-0.43,-0.2505,-0.1431,-0.1431,0.0717,0.1884,0.1884,0.2334,0.2603,0.2603,0.2784,0.2875,0.2875,0.3676,0.4032,0.4121,0.501,0.5985,0.6874,0.7485,0.8364,0.9349,0.9781,1.0038,1.0038,1.0038,1.0038,1.0038,1.0038,1.0038,1.0038,-3.161,-3.0911,-3.0312,-3.0312,-2.9898,-2.9602,-2.9602,-2.9352,-2.9162,-2.9162,-2.8908,-2.8716,-2.8716,-2.7973,-2.7297,-2.6985,-2.6427,-2.607,-2.607,-2.5499,-2.5075,-2.5004,-2.4539,-2.4261,-2.42,-2.42,-2.42,-2.42,-2.42,-2.42,-2.42,-2.42,-2.42,-2.4189,-2.3824,-2.3677,-2.3666,-2.3224,-2.3075,-2.2927,-2.1527,-2.1221,-2.1385,-1.9991,-1.9301,-1.9002,-1.9002,-1.8603,-1.804,-1.804,-1.7797,-1.7473,-1.7473,-1.7229,-1.682,-1.6417,-1.6252,-1.5914,-1.4153,-1.3561,-1.3222,-1.186,-1.2026,-1.2192,-1.1602,-1.2026,-1.2277,-1.1435,-1.1262,-1.1176,-1.0727,-1.0727,-1.0554,-1.0212,-1.0038,-0.9423,-0.7841,-0.7489,-0.6782,-0.4926,-0.4567,-0.4387,-0.43,-0.43,-0.43,-0.43,-0.2505,-0.1431,-0.1431,0.0896,0.2154,0.2154,0.2604,0.2873,0.2873,0.2873,0.2875,0.2875,0.3053,0.3053,0.3142,0.4032,0.501,0.5985,0.7217,0.8364,0.9349,0.9781,1.0038,1.0038,1.0038,1.0038,1.0038,1.0038,1.0038,1.0038,-3.0613,-3.0068,-2.9651,-2.9651,-2.9602,-2.954,-2.9352,-2.9226,-2.9035,-2.8844,-2.8716,-2.8587,-2.8587,-2.8052,-2.7456,-2.6782,-2.622,-2.5791,-2.5429,-2.4886,-2.4527,-2.4527,-2.4334,-2.42,-2.42,-2.42,-2.42,-2.42,-2.42,-2.42,-2.42,-2.42,-2.42,-2.4189,-2.3751,-2.3593,-2.353,-2.2927,-2.2628,-2.2542,-2.0914,-2.045,-2.045,-1.9054,-1.8514,-1.8442,-1.8442,-1.8273,-1.7959,-1.7716,-1.7554,-1.731,-1.7066,-1.6902,-1.6656,-1.6252,-1.6087,-1.5665,-1.3899,-1.3398,-1.3052,-1.1693,-1.1516,-1.1688,-1.1348,-1.1521,-1.1688,-1.1348,-1.1262,-1.1262,-1.0997,-1.0992,-1.0819,-1.0381,-0.9589,-0.8627,-0.7665,-0.6691,-0.5719,-0.4839,-0.448,-0.43,-0.43,-0.43,-0.43,-0.43,-0.2505,-0.1431,-0.1431,0.0896,0.2243,0.2243,0.2694,0.2875,0.2875,0.2875,0.2875,0.2875,0.2875,0.2875,0.2964,0.3855,0.4832,0.5808,0.7217,0.8364,0.9349,0.9781,1.0038,1.0038,1.0038,1.0038,1.0038,1.0038,1.0038,1.0038]},{"header":{"parameterUnit":"m.s-1","parameterCategory":1,"la1":30.6,"la2":28.766,"lo1":-90.7593,"lo2":-88.6598,"dy":0.0162,"dx":0.0183,"nx":116,"ny":114,"refTime":"2023-09-20T00:00:00:Z","depth":0,"parameterNumber":3,"parameterNumberName":"V-component_of_WINDS"},"data":[0.0,0.0,0.0,0.0,0.0,0.0,0.0,0.0,0.0,0.0,0.0,0.0,0.0,0.0,0.0,0.0,0.0,0.0,0.0,0.0,0.0,0.0,0.0,0.0,0.0,0.0,0.0,0.0,0.0,0.0,0.0,0.0,0.0,0.0,0.0,0.0,0.0,0.0,0.0,0.0,0.0,0.0,0.0,0.0,0.0,0.0,0.0,0.0,0.0,0.0,0.0,0.0,0.0,0.0,0.0,0.0,0.0,0.0,0.0,0.0,0.0,0.0,0.0,0.0,0.0,0.0,0.0,0.0,0.0,0.0,0.0,0.0,0.0,0.0,0.0,0.0,0.0,0.0,0.0,0.0,0.0,0.0,0.0,0.0,0.0,0.0,0.0,0.0,0.0,0.0,0.0,0.0,0.0,0.0,0.0,0.0,0.0,0.0,0.0,0.0,0.0,0.0,0.0,0.0,0.0,0.0,0.0,0.0,0.0,0.0,0.0,0.0,0.0,0.0,0.0,0.0,0.0,0.0,0.0,0.0,0.0,0.0,0.0,0.0,0.0,0.0,0.0,0.0,0.0,0.0,0.0,0.0,0.0,0.0,0.0,0.0,0.0,0.0,0.0,0.0,0.0,0.0,0.0,0.0,0.0,0.0,0.0,0.0,0.0,0.0,0.0,0.0,0.0,0.0,0.0,0.0,0.0,0.0,0.0,0.0,0.0,0.0,0.0,0.0,0.0,0.0,0.0,0.0,0.0,0.0,0.0,0.0,0.0,0.0,0.0,0.0,0.0,0.0,0.0,0.0,0.0,0.0,0.0,0.0,0.0,0.0,0.0,0.0,0.0,0.0,0.0,0.0,0.0,0.0,0.0,0.0,0.0,0.0,0.0,0.0,0.0,0.0,0.0,0.0,0.0,0.0,0.0,0.0,0.0,0.0,0.0,0.0,0.0,0.0,0.0,0.0,0.0,0.0,0.0,0.0,0.0,0.0,0.0,0.0,0.0,0.0,0.0,0.0,0.0,0.0,0.0,0.0,0.0,0.0,0.0,0.0,0.0,0.0,0.0,0.0,0.0,0.0,0.0,0.0,0.0,0.0,0.0,0.0,0.0,0.0,0.0,0.0,0.0,0.0,0.0,0.0,0.0,0.0,0.0,0.0,0.0,0.0,0.0,0.0,0.0,0.0,0.0,0.0,0.0,0.0,0.0,0.0,0.0,0.0,0.0,0.0,0.0,0.0,0.0,0.0,0.0,0.0,0.0,0.0,0.0,0.0,0.0,0.0,0.0,0.0,0.0,0.0,0.0,0.0,0.0,0.0,0.0,0.0,0.0,0.0,0.0,0.0,0.0,0.0,0.0,0.0,0.0,0.0,0.0,0.0,0.0,0.0,0.0,0.0,0.0,0.0,0.0,0.0,0.0,0.0,0.0,0.0,0.0,0.0,0.0,0.0,0.0,0.0,0.0,0.0,0.0,0.0,0.0,0.0,0.0,0.0,0.0,0.0,0.0,0.0,0.0,0.0,0.0,0.0,0.0,0.0,0.0,0.0,0.0,0.0,0.0,0.0,0.0,0.0,0.0,0.0,0.0,0.0,0.0,0.0,0.0,0.0,0.0,0.0,0.0,0.0,0.0,0.0,0.0,0.0,0.0,0.0,0.0,0.0,0.0,0.0,0.0,0.0,0.0,0.0,0.0,0.0,0.0,0.0,0.0,0.0,0.0,0.0,0.0,0.0,0.0,0.0,0.0,0.0,0.0,0.0,0.0,0.0,0.0,0.0,0.0,0.0,0.0,0.0,0.0,0.0,0.0,0.0,0.0,0.0,0.0,0.0,0.0,0.0,0.0,0.0,0.0,0.0,0.0,0.0,0.0,0.0,0.0,0.0,0.0,0.0,0.0,0.0,0.0,0.0,0.0,0.0,0.0,0.0,0.0,0.0,0.0,0.0,0.0,0.0,0.0,0.0,0.0,0.0,0.0,0.0,0.0,0.0,0.0,0.0,0.0,0.0,0.0,0.0,0.0,0.0,0.0,0.0,0.0,0.0,0.0,0.0,0.0,0.0,0.0,0.0,0.0,0.0,0.0,0.0,0.0,0.0,0.0,0.0,0.0,0.0,0.0,0.0,0.0,0.0,0.0,0.0,0.0,0.0,0.0,0.0,0.0,0.0,0.0,0.0,0.0,0.0,0.0,0.0,0.0,0.0,0.0,0.0,0.0,0.0,0.0,0.0,0.0,0.0,0.0,0.0,0.0,0.0,0.0,0.0,0.0,0.0,0.0,0.0,0.0,0.0,0.0,0.0,0.0,0.0,0.0,0.0,0.0,0.0,0.0,0.0,0.0,0.0,0.0,0.0,0.0,0.0,0.0,0.0,0.0,0.0,0.0,0.0,0.0,0.0,0.0,0.0,0.0,0.0,0.0,0.0,0.0,0.0,0.0,0.0,0.0,0.0,0.0,0.0,0.0,0.0,0.0,0.0,0.0,0.0,0.0,0.0,0.0,0.0,0.0,0.0,0.0,0.0,0.0,0.0,0.0,0.0,0.0,0.0,0.0,0.0,0.0,0.0,0.0,0.0,0.0,0.0,0.0,0.0,0.0,0.0,0.0,0.0,0.0,0.0,0.0,0.0,0.0,0.0,0.0,0.0,0.0,0.0,0.0,0.0,0.0,0.0,0.0,0.0,0.0,0.0,0.0,0.0,0.0,0.0,0.0,0.0,0.0,0.0,0.0,0.0,0.0,0.0,0.0,0.0,0.0,0.0,0.0,0.0,0.0,0.0,0.0,0.0,0.0,0.0,0.0,0.0,0.0,0.0,0.0,0.0,0.0,0.0,0.0,0.0,0.0,0.0,0.0,0.0,0.0,0.0,0.0,0.0,0.0,0.0,0.0,0.0,0.0,0.0,0.0,0.0,0.0,0.0,0.0,0.0,0.0,0.0,0.0,0.0,0.0,0.0,0.0,0.0,0.0,0.0,0.0,0.0,0.0,0.0,0.0,0.0,0.0,0.0,0.0,0.0,0.0,0.0,0.0,0.0,0.0,0.0,0.0,0.0,0.0,0.0,0.0,0.0,0.0,0.0,0.0,0.0,0.0,0.0,0.0,0.0,0.0,0.0,0.0,0.0,0.0,0.0,0.0,0.0,0.0,0.0,0.0,0.0,0.0,0.0,0.0,0.0,0.0,0.0,0.0,0.0,0.0,0.0,0.0,0.0,0.0,0.0,0.0,0.0,0.0,0.0,0.0,0.0,0.0,0.0,0.0,0.0,0.0,0.0,0.0,0.0,0.0,0.0,0.0,0.0,0.0,0.0,0.0,0.0,0.0,0.0,0.0,0.0,0.0,0.0,0.0,0.0,0.0,0.0,0.0,0.0,0.0,0.0,0.0,0.0,0.0,0.0,0.0,0.0,0.0,0.0,0.0,0.0,0.0,0.0,0.0,0.0,0.0,0.0,0.0,0.0,0.0,0.0,0.0,0.0,0.0,0.0,0.0,0.0,0.0,0.0,0.0,0.0,0.0,0.0,0.0,0.0,0.0,0.0,0.0,0.0,0.0,0.0,0.0,0.0,0.0,0.0,0.0,0.0,0.0,0.0,0.0,0.0,0.0,0.0,0.0,0.0,0.0,0.0,0.0,0.0,0.0,0.0,0.0,0.0,0.0,0.0,0.0,0.0,0.0,0.0,0.0,0.0,0.0,0.0,0.0,0.0,0.0,0.0,0.0,0.0,0.0,0.0,0.0,0.0,0.0,0.0,0.0,0.0,0.0,0.0,0.0,0.0,0.0,0.0,0.0,0.0,0.0,0.0,0.0,0.0,0.0,0.0,0.0,0.0,0.0,0.0,0.0,0.0,0.0,0.0,0.0,0.0,0.0,0.0,0.0,0.0,0.0,0.0,0.0,0.0,0.0,0.0,0.0,0.0,0.0,0.0,0.0,0.0,0.0,0.0,0.0,0.0,0.0,0.0,0.0,0.0,0.0,0.0,0.0,0.0,0.0,0.0,0.0,0.0,0.0,0.0,0.0,0.0,0.0,0.0,0.0,0.0,0.0,0.0,0.0,0.0,0.0,0.0,0.0,0.0,0.0,0.0,0.0,0.0,0.0,0.0,0.0,0.0,0.0,0.0,0.0,0.0,0.0,0.0,0.0,0.0,0.0,0.0,0.0,0.0,0.0,0.0,0.0,0.0,0.0,0.0,0.0,0.0,0.0,0.0,0.0,0.0,0.0,0.0,0.0,0.0,0.0,0.0,0.0,0.0,0.0,0.0,0.0,0.0,0.0,0.0,0.0,0.0,0.0,0.0,0.0,0.0,0.0,0.0,0.0,0.0,0.0,0.0,0.0,0.0,0.0,0.0,0.0,0.0,0.0,0.0,0.0,0.0,0.0,0.0,0.0,0.0,0.0,0.0,0.0,0.0,0.0,0.0,0.0,0.0,0.0,0.0,0.0,0.0,0.0,0.0,0.0,0.0,0.0,0.0,0.0,0.0,0.0,0.0,0.0,0.0,0.0,0.0,0.0,0.0,0.0,0.0,0.0,0.0,0.0,0.0,0.0,0.0,0.0,0.0,0.0,0.0,0.0,0.0,0.0,0.0,0.0,0.0,0.0,0.0,0.0,0.0,0.0,0.0,0.0,0.0,0.0,0.0,0.0,0.0,0.0,0.0,0.0,0.0,0.0,0.0,0.0,0.0,0.0,0.0,0.0,0.0,0.0,0.0,0.0,0.0,0.0,0.0,0.0,0.0,0.0,0.0,0.0,0.0,0.0,0.0,0.0,0.0,0.0,0.0,0.0,0.0,0.0,0.0,0.0,0.0,0.0,0.0,0.0,0.0,0.0,0.0,0.0,0.0,0.0,0.0,0.0,0.0,0.0,0.0,0.0,0.0,0.0,0.0,0.0,0.0,0.0,0.0,0.0,0.0,0.0,0.0,0.0,0.0,0.0,0.0,0.0,0.0,0.0,0.0,0.0,0.0,0.0,0.0,0.0,0.0,0.0,0.0,0.0,0.0,0.0,0.0,0.0,0.0,0.0,0.0,0.0,0.0,0.0,0.0,0.0,0.0,0.0,0.0,0.0,0.0,0.0,0.0,0.0,0.0,0.0,0.0,0.0,0.0,0.0,0.0,0.0,0.0,0.0,0.0,0.0,0.0,0.0,0.0,0.0,0.0,0.0,0.0,0.0,0.0,0.0,0.0,0.0,0.0,0.0,0.0,0.0,0.0,0.0,0.0,0.0,0.0,0.0,0.0,0.0,0.0,0.0,0.0,0.0,0.0,0.0,0.0,0.0,0.0,0.0,0.0,0.0,0.0,0.0,0.0,0.0,0.0,0.0,0.0,0.0,0.0,0.0,0.0,0.0,0.0,0.0,0.0,0.0,0.0,0.0,0.0,0.0,0.0,0.0,0.0,0.0,0.0,0.0,0.0,0.0,0.0,0.0,0.0,0.0,0.0,0.0,0.0,0.0,0.0,0.0,0.0,0.0,0.0,0.0,0.0,0.0,0.0,0.0,0.0,0.0,0.0,0.0,0.0,0.0,0.0,0.0,0.0,0.0,0.0,0.0,0.0,0.0,0.0,0.0,0.0,0.0,0.0,0.0,0.0,0.0,0.0,0.0,0.0,0.0,0.0,0.0,0.0,0.0,0.0,0.0,0.0,0.0,0.0,0.0,0.0,0.0,0.0,0.0,0.0,0.0,0.0,0.0,0.0,0.0,0.0,0.0,0.0,0.0,0.0,0.0,0.0,0.0,0.0,0.0,0.0,0.0,0.0,0.0,0.0,0.0,0.0,0.0,0.0,0.0,0.0,0.0,0.0,0.0,0.0,0.0,0.0,0.0,0.0,0.0,0.0,0.0,0.0,0.0,0.0,0.0,0.0,0.0,0.0,0.0,0.0,0.0,0.0,0.0,0.0,0.0,0.0,0.0,0.0,0.0,0.0,0.0,0.0,0.0,0.0,0.0,0.0,0.0,0.0,0.0,0.0,0.0,0.0,0.0,0.0,0.0,0.0,0.0,0.0,0.0,0.0,0.0,0.0,0.0,0.0,0.0,0.0,0.0,0.0,0.0,0.0,0.0,0.0,0.0,0.0,0.0,0.0,0.0,0.0,0.0,0.0,-1.7788,-1.595,0.0,0.0,0.0,0.0,0.0,0.0,0.0,0.0,0.0,0.0,0.0,0.0,0.0,0.0,0.0,0.0,0.0,0.0,0.0,0.0,0.0,0.0,0.0,0.0,0.0,0.0,0.0,0.0,0.0,0.0,0.0,0.0,0.0,0.0,0.0,0.0,0.0,0.0,-1.6639,-1.8374,-2.0873,-2.1044,-2.1868,-2.3172,0.0,0.0,0.0,0.0,0.0,0.0,0.0,0.0,0.0,0.0,0.0,0.0,0.0,0.0,0.0,0.0,0.0,0.0,0.0,0.0,0.0,0.0,0.0,0.0,0.0,0.0,0.0,0.0,0.0,0.0,0.0,0.0,0.0,0.0,0.0,0.0,0.0,0.0,0.0,0.0,0.0,0.0,0.0,0.0,0.0,0.0,0.0,0.0,0.0,0.0,0.0,0.0,0.0,0.0,0.0,0.0,0.0,0.0,0.0,0.0,0.0,0.0,0.0,0.0,0.0,0.0,0.0,0.0,0.0,0.0,-2.1029,-1.9662,0.0,0.0,0.0,0.0,0.0,0.0,0.0,0.0,0.0,0.0,0.0,0.0,0.0,0.0,0.0,0.0,0.0,0.0,0.0,0.0,0.0,0.0,0.0,0.0,-0.3169,-0.3639,-0.3675,-0.453,0.0,0.0,0.0,0.0,0.0,0.0,0.0,0.0,0.0,0.0,-1.872,-2.0906,-2.3839,-2.4681,-2.4991,-2.4709,-2.2212,0.0,0.0,0.0,0.0,0.0,0.0,0.0,0.0,0.0,0.0,0.0,0.0,0.0,0.0,0.0,0.0,0.0,0.0,0.0,0.0,0.0,0.0,0.0,0.0,0.0,0.0,0.0,0.0,0.0,0.0,0.0,0.0,0.0,0.0,0.0,0.0,0.0,0.0,0.0,0.0,0.0,0.0,0.0,0.0,0.0,0.0,0.0,0.0,0.0,0.0,0.0,0.0,0.0,0.0,0.0,0.0,0.0,0.0,0.0,0.0,0.0,0.0,0.0,-2.007,-2.1895,-2.2205,-2.3659,-2.4834,-2.5642,-2.4293,-2.3603,-2.3412,-2.2877,0.0,0.0,0.0,0.0,0.0,0.0,0.0,0.0,0.0,0.0,0.0,0.0,0.0,0.0,0.0,0.0,0.0,0.0,0.0,0.0,0.0,-0.2301,-0.3262,-0.388,-0.4009,-0.5422,0.0,0.0,0.0,0.0,0.0,0.0,0.0,-1.3772,-1.5462,-1.5203,-2.0457,-2.4271,-2.6681,-2.7423,-2.7733,-2.7546,-2.5129,-2.4135,-2.4183,0.0,0.0,0.0,0.0,0.0,0.0,0.0,0.0,0.0,0.0,0.0,0.0,0.0,0.0,0.0,0.0,0.0,0.0,0.0,0.0,0.0,0.0,0.0,0.0,0.0,0.0,0.0,0.0,0.0,0.0,0.0,0.0,0.0,0.0,0.0,0.0,0.0,0.0,0.0,0.0,0.0,-0.3896,-0.4253,0.0,0.0,0.0,0.0,0.0,0.0,0.0,0.0,0.0,0.0,0.0,0.0,0.0,-1.1533,-1.2364,-1.546,-1.7009,-1.7071,-2.0414,-2.2418,-2.3076,-2.3904,-2.5258,-2.6946,-2.6414,0.0,-2.4588,-2.4505,0.0,0.0,0.0,0.0,0.0,0.0,0.0,0.0,0.0,0.0,0.0,0.0,0.0,0.0,0.0,0.0,0.0,0.0,0.0,0.0,0.0,-0.4198,-0.5405,-0.5344,-0.7079,-0.8167,-0.8044,-0.7866,0.0,0.0,0.0,0.0,0.0,-1.3279,-1.6989,-2.0658,-2.4132,-2.6701,-2.8379,-2.8338,-2.8273,-2.822,-2.7271,-2.6508,-2.5901,-2.4882,0.0,0.0,0.0,0.0,0.0,0.0,0.0,0.0,0.0,0.0,0.0,0.0,0.0,0.0,0.0,0.0,0.0,0.0,0.0,0.0,0.0,0.0,0.0,0.0,0.0,0.0,0.0,0.0,0.0,0.0,0.0,0.0,0.0,0.0,0.0,0.0,0.0,0.0,0.0,-0.4637,-0.4309,-0.4161,-0.3207,-0.2427,0.0,0.0,0.0,0.0,0.0,0.0,0.0,0.0,0.0,-0.7808,-0.9909,-1.1832,-1.3454,-1.6393,-1.8019,-1.8499,-2.1284,-2.3072,-2.3905,-2.4542,-2.5724,-2.719,-2.765,-2.767,-2.7323,-2.6786,-2.5892,-2.4859,0.0,0.0,0.0,0.0,-2.2457,-2.2108,0.0,0.0,0.0,0.0,0.0,0.0,0.0,0.0,0.0,0.0,0.0,0.0,-0.3077,-0.5126,-0.6358,-0.6386,-0.8304,-0.8817,-0.6966,-0.7175,0.0,0.0,0.0,0.0,-0.8483,-1.2655,-1.8393,-2.5688,-2.665,-2.7821,-2.9164,-2.8695,-2.8628,-2.8884,-2.8985,-2.8427,-2.7326,-2.6212,-2.5472,-2.4992,0.0,0.0,0.0,0.0,0.0,0.0,0.0,0.0,0.0,0.0,0.0,0.0,0.0,0.0,0.0,0.0,0.0,0.0,0.0,0.0,0.0,0.0,0.0,0.0,0.0,0.0,0.0,0.0,0.0,0.0,0.0,0.0,0.0,0.0,0.0,0.0,0.0,-0.5005,-0.4717,-0.4014,-0.344,-0.2904,0.0,0.0,0.0,0.0,0.0,0.0,-0.3481,-0.4355,-0.595,-0.8332,-1.0228,-1.2209,-1.429,-1.6812,-1.8532,-1.9456,-2.1713,-2.3401,-2.4596,-2.5158,-2.6203,-2.7653,-2.8337,-2.9033,-2.9581,-2.9027,-2.8473,-2.7885,-2.7402,-2.6611,-2.5785,-2.5951,-2.5786,-2.5476,0.0,0.0,0.0,0.0,0.0,0.0,0.0,0.0,0.0,0.0,0.0,-0.0238,-0.2891,-0.357,-0.4474,-0.6144,-0.5229,-0.5132,-0.6455,-0.5358,-0.4712,-0.4805,-0.4925,-0.527,-0.5755,-1.195,-1.9069,-2.6992,-2.6371,-2.7018,-2.8834,-2.8919,-2.9503,-3.0488,-3.0303,-2.9473,-2.8218,-2.7687,-2.7335,-2.7061,-2.6,0.0,0.0,0.0,0.0,0.0,0.0,0.0,0.0,0.0,0.0,0.0,0.0,0.0,0.0,0.0,0.0,0.0,0.0,0.0,0.0,0.0,0.0,0.0,0.0,0.0,0.0,0.0,0.0,0.0,0.0,0.0,0.0,0.0,0.0,0.0,0.0,0.0,0.0,-0.4275,-0.4275,0.0,0.0,0.0,0.0,-0.2194,-0.2393,-0.3202,-0.483,-0.5659,-0.7251,-0.9702,-1.1347,-1.2976,-1.4577,-1.6366,-1.793,-1.9212,-2.1246,-2.3221,-2.4999,-2.553,-2.69,-2.8884,-2.8494,-2.9049,-3.0304,-3.0966,-3.0935,-3.0437,-3.0673,-3.0324,-2.9689,-2.9447,-2.9355,-2.9085,0.0,0.0,0.0,0.0,0.0,0.0,0.0,0.0,0.4077,0.1456,0.084,-0.0391,-0.3058,-0.5072,-0.6238,-0.6323,-0.784,-0.812,-0.66,-0.6681,-0.6207,-0.4742,-0.49,-0.7003,-1.1232,-1.3772,-1.8649,-2.5992,-2.5754,-2.633,-2.7734,-2.8499,-2.9089,-2.9455,-3.0134,-3.0116,-2.9564,-2.9136,-2.8648,-2.8066,-2.7401,-2.6449,0.0,0.0,0.0,0.0,0.0,0.0,0.0,0.0,0.0,0.0,0.0,0.0,0.0,0.0,0.0,0.0,0.0,0.0,0.0,0.0,0.0,0.0,0.0,0.0,0.0,0.0,0.0,0.0,0.0,0.0,0.0,0.0,0.0,0.0,0.0,0.0,0.0,-0.5491,-0.4897,0.0,-0.3581,-0.2694,-0.2247,-0.2402,-0.2421,-0.2999,-0.4157,-0.5105,-0.6486,-0.8506,-1.0258,-1.1976,-1.3577,-1.5664,-1.7523,-1.9179,-2.0758,-2.257,-2.4384,-2.5167,-2.6276,-2.7692,-2.8814,-2.9687,-3.0437,-3.2008,-3.2201,-3.1518,-3.1805,-3.147,-3.0848,-3.0647,-3.0216,-2.9574,0.0,0.0,0.0,0.0,0.0,0.0,0.0,0.0,0.3541,0.1367,0.0378,-0.0945,-0.3116,-0.5178,-0.6317,-0.6226,-0.7827,-0.8152,-0.6598,-0.6738,-0.6228,-0.4833,-0.5105,0.0,0.0,-1.4315,-1.7711,-2.3341,-2.4347,-2.5441,-2.6545,-2.732,-2.8077,-2.8837,-2.9594,-3.0053,-3.0245,-3.001,-2.9545,-2.8922,-2.8379,-2.7459,-2.6401,0.0,0.0,0.0,0.0,0.0,0.0,0.0,0.0,0.0,0.0,0.0,0.0,0.0,0.0,0.0,0.0,0.0,0.0,0.0,0.0,0.0,0.0,0.0,0.0,0.0,0.0,0.0,0.0,0.0,0.0,0.0,0.0,0.0,0.0,-0.6023,-0.6235,-0.5557,-0.4794,-0.4144,-0.36,-0.2841,-0.2302,-0.2143,-0.24,-0.2828,-0.3438,-0.4663,-0.6084,-0.7734,-0.9624,-1.1398,-1.2969,-1.5335,-1.7316,-1.8944,-2.0803,-2.2551,-2.4242,-2.5206,-2.6371,-2.7748,-2.9061,-3.0017,-3.0795,-3.23,-3.2661,-3.2384,-3.2852,-3.2788,-3.2401,-3.1874,-3.1327,-3.0669,0.0,0.0,0.0,0.0,0.0,0.0,0.0,0.4025,0.2605,0.1279,-0.0284,-0.1746,-0.3063,-0.3537,-0.4385,-0.5869,-0.4765,-0.4671,-0.6196,-0.5117,-0.4524,-0.4814,0.0,0.0,-1.01,-1.3125,-1.6158,-1.9179,-2.2081,-2.4045,-2.5095,-2.5306,-2.6539,-2.8614,-2.8801,-2.9372,-3.0225,-3.0335,-3.015,-2.973,-2.8957,-2.839,-2.7897,0.0,0.0,0.0,0.0,0.0,0.0,0.0,0.0,0.0,0.0,0.0,0.0,0.0,0.0,0.0,0.0,0.0,0.0,0.0,0.0,0.0,0.0,0.0,0.0,0.0,0.0,0.0,0.0,0.0,0.0,0.0,0.0,0.0,-0.5223,-0.5065,-0.4916,-0.453,-0.4066,-0.3684,-0.3226,-0.2892,-0.2359,-0.1625,-0.2325,-0.2773,-0.2934,-0.4522,-0.6188,-0.7753,-0.9644,-1.1421,-1.2995,-1.5433,-1.7276,-1.8669,-2.1336,-2.3356,-2.4732,-2.5906,-2.7351,-2.9035,-2.9099,-2.9993,-3.148,-3.1777,-3.2321,-3.3039,-3.3917,-3.4349,-3.4333,-3.3214,-3.2788,-3.2501,0.0,0.0,0.0,0.0,0.0,0.0,0.0,0.4797,0.3628,0.1411,0.0568,-0.0695,-0.2963,-0.3489,-0.3855,-0.4229,-0.3907,-0.3388,-0.2537,-0.2307,-0.2408,-0.2946,0.0,0.0,-0.9918,-1.0945,-1.2954,-1.6041,-1.6852,-1.7576,-1.8127,-2.144,-2.335,-2.4271,-2.85,-3.0565,-3.092,-3.1748,-3.2081,-3.188,-3.0333,-2.9524,-2.9196,0.0,0.0,0.0,0.0,0.0,0.0,0.0,0.0,0.0,0.0,0.0,0.0,0.0,0.0,0.0,0.0,0.0,0.0,0.0,0.0,0.0,0.0,0.0,0.0,0.0,0.0,0.0,0.0,0.0,0.0,0.0,-0.5987,-0.6434,-0.5941,-0.6391,-0.6588,-0.6146,-0.5288,-0.4768,-0.4769,-0.4142,-0.3494,-0.2913,-0.343,-0.3635,-0.3349,-0.5062,-0.6632,-0.8014,-1.0249,-1.2032,-1.3291,-1.5828,-1.7641,-1.887,-2.1394,-2.3294,-2.4541,-2.6102,-2.7136,-2.7762,-2.8994,-2.9747,-3.0343,-3.1435,-3.221,-3.2703,-3.3371,-3.3543,-3.3351,-3.2964,-3.2547,-3.2007,0.0,0.0,0.0,0.0,0.0,0.0,0.0,0.457,0.3406,0.1367,0.0378,-0.0895,-0.2963,-0.3439,-0.3299,-0.2615,-0.2559,-0.1809,-0.0059,-0.0123,-0.0444,-0.0972,0.0,-0.4931,-0.6724,-0.8924,-1.0989,-1.2849,-1.4157,-1.4834,-1.5015,-1.7777,-1.9368,-2.0107,-2.3586,-2.5923,-2.7281,-2.7942,-2.8944,-2.9916,-2.8439,-2.8905,-3.0426,-2.9617,-2.8181,-2.6322,-2.4081,-2.1904,-1.9719,-1.7672,0.0,0.0,0.0,0.0,0.0,0.0,0.0,0.0,0.0,0.0,0.0,0.0,0.0,0.0,0.0,0.0,0.0,0.0,0.0,0.0,0.0,0.0,0.0,0.0,-0.6852,-0.6925,-0.66,-0.6669,-0.6701,-0.6546,-0.5499,-0.4797,-0.5113,-0.4484,-0.3829,-0.298,-0.369,-0.4163,-0.4041,-0.561,-0.7121,-0.8503,-1.0687,-1.2339,-1.3366,-1.6093,-1.7802,-1.8408,-2.1445,-2.3294,-2.4108,-2.5836,-2.6892,-2.7351,-2.8403,-2.9233,-2.9979,-3.0911,-3.1721,-3.2367,0.0,0.0,0.0,0.0,-3.2342,-3.191,0.0,0.0,0.0,0.0,0.0,0.0,0.0,0.3854,0.2649,0.1279,-0.0142,-0.1589,-0.3063,-0.3425,-0.3,-0.1494,-0.1272,-0.0396,0.15,0.1464,0.1233,0.101,-0.0845,-0.1918,-0.2046,-0.6438,-0.8772,-0.9003,-1.1675,-1.3046,-1.323,-1.3901,-1.491,-1.6218,-1.6923,-1.8876,-2.1657,-2.1794,-2.3432,-2.5857,-2.5027,-2.7186,-3.0803,-3.0051,-2.8328,-2.5983,-2.3336,-2.1247,-1.924,-1.6868,0.0,0.0,0.0,0.0,0.0,0.0,0.0,0.0,0.0,0.0,0.0,0.0,0.0,0.0,0.0,0.0,0.0,0.0,0.0,0.0,0.0,0.0,0.0,0.0,-0.7793,-0.7635,-0.6989,-0.6241,-0.5901,-0.6219,-0.5045,-0.4384,-0.4737,-0.4563,-0.3917,-0.2785,-0.3632,-0.4385,-0.4828,-0.6157,0.0,0.0,0.0,-1.2522,-1.3626,-1.6339,-1.7738,-1.7819,-2.1445,-2.3368,-2.3588,-2.5382,-2.6658,-2.7417,-2.7709,-2.8583,-2.995,-3.0329,-3.1131,-3.2094,-3.2547,-3.2895,-3.3039,-3.2437,-3.2247,-3.2079,0.0,0.0,0.0,0.0,0.0,0.0,0.0,0.4272,0.3413,0.1367,0.0735,-0.048,-0.2951,-0.3349,-0.3363,-0.3118,-0.2228,-0.0451,0.2341,0.2043,0.2037,0.2784,0.1301,0.0396,0.0198,-0.0782,-0.1378,-0.1545,-0.2002,-0.323,-0.5235,-0.8164,-1.0718,-1.31,-1.7016,-1.9258,-2.011,-2.1124,-2.2835,-2.4781,-2.4606,-2.5596,-2.7238,-2.8061,-2.6842,-2.4882,-2.5877,-2.3716,-2.0268,-1.9572,-1.7985,-1.6154,-1.5523,-1.4948,0.0,0.0,0.0,0.0,0.0,0.0,0.0,0.0,0.0,0.0,0.0,0.0,0.0,0.0,0.0,0.0,0.0,0.0,0.0,-0.7778,-0.7547,-0.7172,-0.6599,-0.6352,-0.6225,-0.6034,-0.551,-0.5297,-0.5486,-0.5429,-0.5351,-0.5082,-0.4289,-0.4469,-0.5802,-0.6779,-0.8524,-1.1031,-1.1901,-1.3105,-1.4999,-1.709,-1.8221,-1.8212,-2.1748,0.0,-2.3818,-2.5453,-2.6396,-2.6714,-2.7443,-2.8338,-2.9254,-3.0133,-3.1175,-3.2191,-3.2398,-3.2492,-3.2547,-3.2398,-3.2342,-3.216,0.0,0.0,0.0,0.0,0.0,0.0,0.0,0.4408,0.3774,0.2033,0.1691,0.0761,-0.1344,-0.1708,-0.1446,-0.0608,0.0844,0.2044,0.2893,0.2804,0.29,0.3416,0.1099,0.0,0.0528,-0.0596,-0.1276,-0.1451,-0.1538,-0.2127,-0.3311,-0.598,-0.7124,-0.7008,-1.1062,-1.1813,-1.0284,-1.4148,-1.6047,-1.6252,-1.4791,-1.6977,-2.1574,-2.5633,-2.6123,-2.4709,-2.4572,-2.3077,-2.0892,-1.9587,-1.8315,-1.7235,-1.6751,-1.6315,-1.5886,0.0,0.0,0.0,0.0,0.0,0.0,0.0,0.0,0.0,0.0,0.0,0.0,0.0,0.0,-0.9331,-0.9634,0.0,-0.8146,-0.8761,-0.7854,-0.688,-0.6154,-0.5531,-0.5242,-0.5463,-0.5372,-0.5132,-0.4654,-0.4661,-0.448,-0.4123,-0.4297,-0.5181,-0.6953,-0.7746,-0.957,-1.2583,-1.2838,-1.4105,-1.6304,-1.7747,-1.87,-1.9177,-2.2552,-2.4074,-2.3891,-2.5906,-2.6782,-2.6658,-2.7201,-2.8304,-2.9855,-3.1628,-3.2511,-3.2821,-3.2864,-3.2667,-3.2467,-3.3047,-3.2864,-3.2198,0.0,0.0,0.0,0.0,0.0,0.0,0.0,0.432,0.3825,0.2571,0.232,0.1701,0.0149,-0.0051,0.0531,0.221,0.3241,0.3656,0.0,0.293,0.2913,0.3409,0.083,-0.0263,0.0463,-0.0863,-0.1755,-0.2151,-0.1992,-0.2305,-0.2959,-0.4313,-0.4115,-0.266,-0.4955,-0.4014,-0.1074,-0.5881,-0.7442,-0.6468,-0.3525,-0.6561,-1.3342,-1.8241,-2.1686,-2.3745,-2.2312,-2.1486,-2.0756,-1.8783,-1.7998,-1.7852,-1.7666,-1.7392,-1.6987,-1.6413,-1.5919,0.0,0.0,0.0,0.0,0.0,0.0,0.0,0.0,-1.2864,-1.1821,-1.2024,-1.19,-1.1753,-1.1632,-1.0168,-0.9222,-1.0009,-0.8444,-0.6868,-0.6068,-0.4814,-0.4101,-0.4289,-0.42,-0.3842,-0.3129,-0.3129,-0.2683,-0.1789,-0.3307,-0.5176,-0.7471,-0.8265,-1.0173,-1.362,-1.3704,-1.4866,-1.7261,-1.823,-1.9107,-1.9972,-2.3341,-2.4613,-2.4158,-2.6726,-2.7708,-2.733,-2.7852,-2.9247,-3.13,-3.3382,-3.3939,-3.3607,-3.3773,-3.3305,-3.269,-3.3532,-3.3117,-3.2184,0.0,0.0,0.0,0.0,0.0,0.0,0.0,0.0,0.0,0.2222,0.2091,0.156,0.0149,0.01,0.0621,0.1773,0.0112,0.0279,0.3352,0.115,0.0593,0.262,0.2953,0.2454,0.1057,0.3058,0.3578,0.2489,0.4126,0.3164,-0.0431,-0.0225,-0.2203,-0.5706,-0.4199,-0.2853,-0.1655,-0.0577,-0.0464,-0.0838,0.2035,0.1622,-0.0535,0.1383,-0.6992,-1.9954,-2.1437,-2.0717,-1.9013,-1.8596,-1.8414,-1.8347,-1.8008,-1.794,-1.788,-1.8056,-1.7726,-1.7216,-1.7011,-1.7051,-1.7149,-1.7651,-1.748,-1.7494,0.0,-1.715,-1.5815,-1.6242,-1.5523,-1.4699,-1.4105,-1.2832,-1.1729,-1.123,-0.8865,-0.7021,-0.6933,-0.5435,-0.366,-0.1964,-0.1426,-0.1247,-0.125,-0.125,-0.0803,0.0536,-0.0625,-0.2849,-0.6013,-0.7176,-0.9538,-1.3529,-1.3704,-1.4866,-1.7261,-1.8381,-1.9335,-2.0197,-2.3559,-2.5097,-2.5121,-2.8104,-2.9411,-2.9438,-3.1168,-3.2493,-3.3562,-3.3998,-3.4206,-3.4266,-3.4971,-3.4403,-3.3143,-3.2649,-3.2411,-3.2219,0.0,0.0,0.0,0.0,0.0,0.0,0.0,0.0,0.0,0.0,0.3149,0.268,0.1925,0.1967,0.2272,0.2781,0.195,0.0,0.1504,0.0916,0.0413,0.0061,0.0063,0.0129,0.0265,0.0399,0.1012,0.2151,0.119,0.0213,-0.0721,-0.2206,-0.312,-0.3493,-0.4382,-0.1584,0.3693,0.0758,0.1467,0.4667,0.7498,0.6333,0.3424,0.8309,0.4048,-0.4602,-0.4981,-0.4481,0.0,-0.9081,-1.0632,-1.1453,-1.6674,-1.8458,-1.8696,-1.8523,-1.8533,-1.8817,-1.991,-2.0103,-2.0266,-2.13,-2.0925,-2.0239,-2.021,-1.9242,-1.8108,-1.7568,-1.6862,-1.6049,-1.513,-1.3516,-1.2242,-1.1906,-0.92,-0.6929,-0.6398,-0.4184,-0.2144,-0.0716,0.0892,0.1605,0.0536,0.0357,0.0447,0.0447,-0.0626,-0.2316,-0.4877,-0.6997,-0.9525,-1.2529,-1.3685,-1.5606,-1.8461,-1.8939,-1.9816,-2.1165,-2.4716,-2.6239,-2.5981,-2.9363,-3.0834,-3.0862,-3.2593,-3.3446,-3.3636,-3.5383,-3.5355,-3.4405,-3.507,-3.4454,-3.3339,-3.3878,-3.358,-3.278,0.0,0.0,0.0,0.0,0.0,0.0,0.0,0.0,0.0,0.0,0.3781,0.3398,0.3213,0.3357,0.3492,0.3583,0.3282,0.0,0.0,0.1136,0.0525,-0.0783,-0.1119,-0.1024,-0.0329,-0.0798,-0.0202,0.1513,-0.0623,-0.1402,-0.1072,-0.3458,-0.3783,-0.257,-0.422,-0.0962,0.5467,0.2175,0.3607,0.8296,1.1888,1.1102,0.8367,1.4572,1.4644,1.1054,0.788,0.6979,0.6384,0.0368,-0.1447,-0.2288,-0.8915,-1.1098,-1.1721,-1.4401,-1.7274,-2.0052,-2.2011,-2.2488,-2.2838,-2.4462,-2.4058,-2.3149,-2.2253,-2.1277,-2.0149,-1.8973,-1.806,-1.7204,-1.6206,-1.4685,-1.3334,-1.2656,-1.0043,-0.7526,-0.613,-0.3563,-0.143,-0.0269,0.2056,0.3126,0.2146,0.2503,0.2502,0.1788,0.0446,-0.1246,-0.3454,-0.6198,-0.9087,-1.2167,-1.3581,-1.5996,-1.9552,-1.9743,-2.0684,-2.2366,-2.6021,-2.741,-2.6996,-3.0701,-3.2464,-3.2702,-3.4011,-3.4411,-3.4347,-3.6322,-3.6259,-3.4868,-3.5359,-3.4721,-3.363,-3.4714,-3.4177,-3.296,0.0,0.0,0.0,0.0,0.0,0.0,0.0,0.0,0.0,0.0,0.0,0.0,0.0,0.3461,0.3617,0.3623,0.2518,0.0,0.0,0.1392,0.0508,0.1458,0.1808,0.1242,-0.0384,0.2242,0.3011,0.1868,0.2126,0.1319,-0.0556,-0.1707,-0.3245,-0.5084,-0.3101,-0.1453,0.0074,0.4854,0.7535,0.9074,1.4765,1.6954,1.7423,2.3414,2.5601,2.3781,1.0795,0.6631,0.7258,0.6999,0.7445,0.8084,0.7913,0.8406,0.6993,-0.3447,-1.3144,-2.0931,-2.2663,-2.358,-2.4436,-2.6422,-2.686,-2.6531,-2.5726,-2.3933,-2.2275,-2.1456,-1.9894,-1.8442,-1.7747,-1.718,-1.6108,-1.3659,-1.1645,-0.9484,-0.6744,-0.4545,-0.2415,-0.0628,0.1341,0.2858,0.3749,0.5267,0.6251,0.6251,0.3838,0.1155,-0.1757,-0.4335,-0.8123,-1.3062,-1.3322,-1.5591,-2.0352,-2.0938,-2.2043,-2.3667,-2.7307,-2.8692,-2.8168,-3.2264,-3.4594,-3.5379,-3.5752,-3.629,-3.6737,-3.6585,-3.6415,-3.626,-3.6383,-3.5529,-3.4245,-3.4312,-3.3451,-3.23,0.0,0.0,0.0,0.0,0.0,0.0,0.0,0.0,0.0,0.0,0.0,0.0,0.0,0.0,0.0,0.0,0.4574,0.4161,0.0,0.3217,0.2363,0.064,0.1355,0.158,0.1214,0.1162,0.1902,0.3482,0.0741,-0.0541,-0.0405,-0.2661,-0.4232,-0.516,-0.444,-0.2693,-0.0144,0.3557,0.5289,0.5922,0.9752,1.2491,1.4461,1.6429,2.1026,2.583,0.0,2.1483,2.2932,1.8043,1.6895,1.6568,1.1082,0.9728,0.8053,-0.272,-1.4139,-2.3549,-2.4543,-2.6055,-2.7573,-2.8724,-2.8947,-2.8616,-2.7407,-2.5623,-2.383,-2.2644,-2.0507,-1.8496,-1.7066,-1.6927,-1.5749,-1.1844,-1.0343,-0.8237,-0.433,-0.2046,-0.0179,0.1607,0.3826,0.5505,0.594,0.6233,0.5714,0.3927,0.3037,0.107,-0.2313,-0.4535,-0.7425,-1.1294,-1.2614,-1.5779,-2.0938,-2.1174,-2.259,-2.5165,-2.8451,-3.1073,-3.2837,-3.4383,-3.5329,-3.5861,-3.5973,-3.6211,-3.6646,-3.6952,-3.6259,-3.4999,-3.5439,-3.4537,-3.2974,-3.3437,-3.2974,-3.2241,0.0,0.0,0.0,0.0,0.0,0.0,0.0,0.0,0.0,0.0,0.0,0.0,0.0,0.0,0.0,0.0,0.0,0.5247,0.4194,0.0,0.3866,0.1828,0.2261,0.2634,0.2833,0.1971,0.2466,0.4498,0.0667,-0.0866,-0.0133,-0.3205,-0.4672,-0.4819,-0.4884,-0.3744,-0.162,0.1417,0.3096,0.4038,0.7204,1.0116,1.2677,1.3957,1.8176,0.0,2.5987,2.8204,2.9592,2.6529,2.5965,2.5701,2.1009,1.4949,0.8317,0.1722,-1.1887,-2.5078,-2.6139,-2.7963,-2.9795,-3.0749,-3.0734,-3.0214,-2.9094,-2.6867,-2.4823,-2.3821,-2.1298,-1.8895,-1.7721,-1.7658,-1.63,-1.1798,-1.0108,-0.7748,-0.2915,-0.0533,0.1159,0.2585,0.5063,0.6741,0.6906,0.7548,0.7115,0.5247,0.4537,0.2578,-0.0891,-0.3109,-0.6177,-1.0333,-1.2174,-1.5831,-2.1678,-2.2,-2.4054,-2.7785,-2.9947,-3.2291,-3.4787,-3.5294,-3.5604,-3.5894,-3.5973,-3.6163,-3.6414,-3.6892,-3.629,-3.5124,-3.5518,-3.4537,-3.2974,-3.3422,-3.296,-3.2241,0.0,0.0,0.0,0.0,0.0,0.0,0.0,0.0,0.0,0.0,0.0,0.0,0.0,0.0,0.0,0.0,0.0,0.0,0.5955,0.0,0.0,0.4952,0.4545,0.4336,0.4466,0.4543,0.4681,0.4818,0.1864,0.0333,0.0266,-0.2937,-0.4428,-0.43,-0.4495,-0.4557,-0.4317,-0.1166,0.1263,0.3295,0.7017,0.9846,1.2138,1.5757,1.7311,1.8396,2.4431,2.6579,2.7331,3.1974,3.3679,3.4112,3.5443,2.2856,0.7787,0.8821,-0.7223,-2.5645,-2.7344,-2.9268,-3.1102,-3.2462,-3.2213,-3.1471,-3.0852,-2.7988,-2.5468,-2.5172,-2.2317,-1.9766,-1.9548,-1.939,-1.784,-1.3265,-1.1025,-0.8009,-0.2561,0.0,0.1685,0.2671,0.5447,0.7239,0.7235,0.9582,1.0815,1.0389,0.8281,0.5574,0.2122,-0.0443,-0.4487,-1.0414,-1.1804,-1.572,-2.2495,-2.3668,-2.6541,-3.122,-3.1529,-3.2524,-3.4138,-3.5067,-3.5604,-3.5752,-3.5894,-3.6085,-3.6211,-3.6414,-3.6492,-3.6429,-3.6414,-3.5529,-3.4245,-3.4177,-3.3381,-3.2314,0.0,0.0,0.0,0.0,0.0,0.0,0.0,0.0,0.0,0.0,0.0,0.0,0.0,0.0,0.0,0.0,0.0,0.0,0.5977,0.0,0.0,0.0,0.0,0.0,0.0,0.0,0.0,0.5314,0.2574,0.1001,0.04,-0.1666,-0.3143,-0.4097,-0.4298,-0.4384,-0.4139,-0.1089,0.0,0.0,0.3815,0.66,0.8757,1.0312,1.376,1.83,2.2109,2.4887,2.7364,3.1338,2.9444,2.4511,1.9312,0.8656,-0.1829,-0.1588,-1.4029,-2.7927,-2.8001,-3.0915,-3.3958,-3.3872,-3.3687,-3.3415,-3.3187,-3.1283,-2.9025,-2.7116,-2.4699,-2.1934,-1.8743,-1.8859,-1.8,-1.3496,-1.058,-0.7292,-0.2606,0.1929,0.5315,0.6753,1.1512,1.4718,1.4853,1.6018,1.6533,1.6037,1.0304,0.4694,-0.0,-0.0889,-0.4314,-1.1006,-1.1852,-1.6202,-2.45,-2.7858,-3.0286,-3.1649,-3.2236,-3.3143,-3.4245,-3.5219,-3.5767,-3.591,-3.6085,-3.6274,-3.6414,-3.6492,-3.6148,-3.5608,-3.5059,-3.4312,-3.3422,-3.2903,-3.2516,-3.2241,0.0,0.0,0.0,0.0,0.0,0.0,0.0,0.0,0.0,0.0,0.0,0.0,0.0,0.0,0.0,0.0,0.0,0.0,0.0,0.6587,0.0,0.0,0.0,0.0,0.0,0.0,0.0,0.0,0.3247,0.1846,0.1401,-0.0866,-0.2336,-0.3215,-0.3961,-0.43,-0.4167,-0.2498,-0.157,0.0,0.0,0.5409,0.7606,0.9702,1.2733,1.6336,2.0723,2.2552,2.2623,2.1044,1.8804,1.5906,1.1423,0.2924,-0.5615,-0.6684,-1.7441,-2.9185,-2.9885,-3.2854,-3.5537,-3.4971,-3.4783,-3.4382,-3.3013,-3.1121,-2.8923,-2.6279,-2.4026,-2.1754,-1.9252,-1.9265,-1.8488,-1.4646,-1.0413,-0.6307,-0.2502,0.3235,0.7457,0.8364,1.3781,1.7467,1.7533,1.8294,1.8503,1.7809,1.1846,0.6195,0.1506,-0.0704,-0.4642,-1.095,-1.4103,-1.938,-2.7267,-3.019,-3.1723,-3.1796,-3.2635,-3.3339,-3.3973,-3.5139,-3.5816,-3.6085,-3.6148,-3.6274,-3.6492,-3.6492,-3.6289,-3.5816,-3.54,-3.4647,-3.363,-3.3241,-3.2704,-3.2182,0.0,0.0,0.0,0.0,0.0,0.0,0.0,0.0,0.0,0.0,0.0,0.0,0.0,0.0,0.0,0.0,0.0,0.0,0.0,0.0,0.0,0.0,0.0,0.0,0.6591,0.5308,0.511,0.6067,0.3867,0.2768,0.2638,-0.0264,-0.1791,-0.2195,-0.3616,-0.43,-0.43,-0.43,-0.305,-0.0756,0.2307,0.5083,0.7702,0.0,0.0,1.383,2.0074,1.9376,1.4466,0.7576,0.6157,0.6981,0.5389,-0.0754,-0.7799,-0.995,-1.9383,-2.9493,-3.1251,-3.3713,-3.564,-3.4881,-3.4631,-3.3877,-3.1288,-2.928,-2.7088,-2.4026,-2.2222,-2.069,-1.9233,-1.9016,-1.8241,-1.5678,-0.9815,-0.4687,-0.2119,0.4622,0.9505,1.0048,1.5293,1.8812,1.8812,1.9201,1.907,1.8262,1.3251,0.8408,0.4333,-0.0,-0.5376,-1.169,-1.7953,-2.4046,-3.0005,-3.1402,-3.2087,-3.1869,-3.2932,-3.3422,-3.3575,-3.5073,-3.5943,-3.6196,-3.6211,-3.6352,-3.6492,-3.6492,-3.6492,-3.6492,-3.6414,-3.5593,-3.4447,-3.4245,-3.3367,-3.2314,0.0,0.0,0.0,0.0,0.0,0.0,0.0,0.0,0.0,0.0,0.6477,0.6313,0.0,0.0,0.0,0.0,0.0,0.0,0.0,0.0,0.0,0.0,0.0,0.0,0.7637,0.5571,0.5104,0.6339,0.4387,0.316,0.2489,0.0637,-0.0902,-0.2133,-0.3652,-0.43,-0.43,-0.43,-0.3151,-0.1205,0.0203,0.3332,0.7342,0.0,0.0,0.0,2.0074,1.4251,0.3736,0.4718,0.0854,-0.5619,-1.2857,-1.6321,-1.792,-1.8506,-2.3603,-2.8725,-2.7096,-2.994,-3.2828,-3.0623,-3.0043,-2.987,-2.9211,-2.8792,-2.7166,-2.2388,-2.2771,-2.1533,-1.3514,-1.3574,-1.4648,-1.4068,-0.6857,-0.1097,-0.0682,0.7415,1.4618,1.8155,2.3171,2.633,2.633,2.4119,2.2618,2.2447,1.47,0.8134,0.3888,0.0693,-0.6229,-1.7836,-2.3729,-2.7989,-3.0703,-3.2849,-3.3353,-3.2331,-3.3699,-3.4124,-3.3782,-3.54,-3.6148,-3.6211,-3.6352,-3.6492,-3.6492,-3.6492,-3.6492,-3.6429,-3.5816,-3.5464,-3.5059,-3.3837,-3.3227,-3.296,0.0,0.0,0.0,0.0,0.0,0.0,0.0,0.7953,0.7787,0.7363,0.728,0.6943,0.6184,0.6147,0.0,0.0,0.0,0.0,0.0,0.0,0.0,0.0,0.0,0.0,0.7025,0.5635,0.528,0.601,0.0,0.4048,0.3798,0.2291,0.0754,-0.083,-0.2271,-0.3434,-0.43,-0.43,-0.3751,-0.2736,-0.0869,0.1267,0.0,0.0,0.0,0.0,0.0,1.3423,0.5552,1.0131,0.3139,-0.8948,-1.7448,-2.0197,-2.0637,-2.2026,-2.4591,-2.705,-2.727,-2.9009,-3.0548,-2.9333,-2.8978,-2.8633,-2.7264,-2.5166,-2.2686,-1.9697,-1.7415,-1.4805,-1.0996,-1.0336,-1.0367,-1.0295,-0.4584,0.0619,0.2819,0.9665,1.6023,2.0191,2.5137,2.8216,2.8197,2.6817,2.527,2.3618,1.7034,1.0887,0.5782,-0.1215,-1.0835,-2.3329,-2.6554,-2.9684,-3.3253,-3.4052,-3.4177,-3.3575,-3.4394,-3.4662,-3.4528,-3.5657,-3.6274,-3.6352,-3.6492,-3.6492,-3.6492,-3.6492,-3.6492,-3.6492,-3.6085,-3.5737,-3.5255,-3.4177,-3.3561,-3.3073,0.0,0.0,0.0,0.0,0.0,0.0,0.0,0.8455,0.8373,0.8044,0.7995,0.7614,0.6689,0.6355,0.6105,0.0,0.0,0.0,0.0,0.0,0.0,0.0,0.0,0.0,0.0,0.0,0.0,0.5722,0.5094,0.0,0.0,0.0,0.0,0.0,-0.1007,-0.264,-0.4262,-0.4262,-0.4276,0.0,0.0,-0.079,0.0,0.0,0.0,0.0,0.0,1.1472,0.7762,1.3214,0.6166,-0.6025,-1.2516,-1.7184,-2.0342,-2.0659,-2.2776,-2.537,-2.7103,-2.7961,-2.818,-2.7664,-2.7539,-2.6496,-2.2433,-1.8651,-1.5054,-1.1796,-0.8354,-0.5921,-0.5641,-0.4818,-0.4151,-0.4003,0.0989,0.5568,0.7994,1.3483,1.8432,2.1626,2.6092,2.8889,2.8897,2.8289,2.6597,2.3425,1.7903,1.1769,0.5152,-0.408,-1.4538,-2.6296,-2.7619,-3.0262,-3.4765,-3.4861,-3.4861,-3.4728,-3.5008,-3.519,-3.519,-3.5928,-3.6352,-3.6492,-3.6492,-3.6492,-3.6492,-3.6492,-3.6492,-3.6492,-3.6492,-3.6148,-3.5529,-3.4499,-3.3891,-3.3408,0.0,0.0,0.0,0.0,0.0,0.0,0.0,0.8683,0.8602,0.8373,0.8234,0.8062,0.7787,0.7209,0.6708,0.0,0.0,0.0,0.0,0.0,0.0,0.0,0.0,0.0,0.0,0.0,0.0,0.6128,0.5407,0.0,0.0,0.0,0.0,0.0,0.0,-0.2497,-0.4134,-0.4134,0.0,0.0,0.0,0.0,0.0,0.0,0.0,0.0,0.0,0.368,0.1432,0.4976,0.514,0.3786,0.3518,-0.7486,-1.8895,-1.1917,-1.7038,-2.4674,-2.3151,-2.4178,-2.5178,-2.2992,-2.2499,-2.0134,-1.1123,-0.8105,-0.4071,0.7254,0.4613,0.2217,0.8521,0.7787,0.6242,0.6242,1.4247,1.9223,1.5447,2.1291,2.6015,2.6226,2.9191,3.1197,3.1182,2.8596,2.5623,2.2483,1.4916,0.6319,-0.3096,-0.7172,-1.38,-2.4028,-2.686,-2.9691,-3.2556,-3.4743,-3.5623,-3.5044,-3.5737,-3.58,-3.54,-3.6148,-3.6492,-3.6492,-3.6492,-3.6492,-3.6492,-3.6492,-3.6492,-3.6492,-3.6492,-3.6429,-3.6148,-3.4172,-3.4187,-3.4765,0.0,0.0,0.0,0.0,0.0,0.0,0.8935,0.8765,0.8683,0.8602,0.8447,0.8275,0.8103,0.7538,0.7083,0.0,0.0,0.0,0.0,0.0,0.0,0.0,0.0,0.0,0.0,0.0,0.5868,0.6209,0.5932,0.0,0.0,0.0,0.0,0.0,0.0,-0.2357,-0.395,-0.3956,0.0,0.0,0.0,0.0,0.0,0.0,0.0,0.0,0.0,0.0,1.3528,1.8944,1.7347,1.4093,1.996,0.9901,-0.4564,-0.7088,-1.0906,-1.5387,-2.0471,-2.2641,-2.1756,-1.5027,-1.2822,-0.9801,-0.0136,0.4815,0.8487,1.2309,1.3788,1.4868,1.648,1.68,1.6823,1.6667,1.9909,2.2729,2.3356,2.5937,2.8445,3.0268,3.1595,3.213,3.1524,2.8653,2.4249,1.8037,1.2841,0.5357,-0.4962,-0.6648,-1.1145,-1.9606,-2.5078,-2.9243,-3.2109,-3.4812,-3.6006,-3.5785,-3.5721,-3.5864,-3.6085,-3.5879,-3.6085,-3.6492,-3.6492,-3.6554,-3.66,-3.66,-3.6677,-3.6816,-3.6677,-3.6677,-3.6538,-3.424,-3.3901,-3.4119,0.0,0.0,0.0,0.0,0.0,0.9707,0.9279,0.9039,0.8837,0.8716,0.8651,0.8488,0.8267,0.7821,0.7363,0.7083,0.0,0.0,0.0,0.0,0.0,0.0,0.0,0.0,0.0,0.0,0.6315,0.648,0.6583,0.5734,0.0,0.0,0.2279,-0.1259,0.0,0.0,0.0,0.0,0.0,0.0,0.0,0.0,0.0,0.0,0.0,0.0,0.0,0.0,0.0,0.0,0.0,2.373,3.0595,2.4593,0.0,0.345,-0.308,-0.8708,-1.5676,-1.7714,-1.6093,-0.901,-0.4506,0.0768,1.0672,1.6026,1.9356,2.0953,2.371,2.5365,2.3926,2.3309,2.3456,2.488,2.4972,2.5944,2.9078,3.0195,3.0991,3.1811,3.2754,3.2586,3.0714,2.6581,2.1395,1.5055,1.1653,0.5723,-0.3727,-0.5493,-0.9828,-1.7734,-2.4303,-2.8808,-3.1062,-3.4475,-3.6245,-3.6274,-3.5943,-3.6006,-3.6492,-3.6006,-3.607,-3.6554,-3.6616,-3.6677,-3.68,-3.68,-3.6862,-3.7015,-3.6862,-3.6646,-3.6165,-3.4076,-3.3462,-3.324,0.0,0.0,0.0,0.0,0.0,0.0,0.9894,0.9509,0.9159,0.8756,0.8886,0.8862,0.8455,0.7979,0.7607,0.7412,0.0,0.0,0.0,0.0,0.0,0.0,0.0,0.0,0.0,0.0,0.6801,0.7085,0.7492,0.663,0.4595,0.5073,0.2997,-0.1105,0.0,0.0,0.0,0.0,0.0,0.0,0.0,0.0,0.0,0.0,0.0,0.0,0.0,0.0,0.0,0.0,0.0,0.0,0.0,3.401,0.0,0.0,0.6936,-0.7301,-0.77,-0.7845,-0.7554,-0.643,0.1082,1.0888,2.1365,2.4388,2.7729,3.7357,3.5376,3.1922,3.197,2.7059,2.4751,3.0141,3.0781,3.0917,3.1755,3.454,3.4807,3.0167,3.2404,3.2706,2.8629,2.1718,1.6692,1.4737,1.1653,0.708,0.0515,-0.3978,-1.0626,-1.9842,-2.5254,-2.8297,-2.8848,-3.3773,-3.6385,-3.6492,-3.6492,-3.6492,-3.6492,-3.66,-3.6723,-3.6723,-3.6938,-3.7015,-3.7015,-3.7015,-3.7015,-3.7015,-3.7015,-3.6212,-3.486,-3.3557,-3.3003,-3.2425,0.0,0.0,0.0,0.0,0.0,0.0,0.0,1.0484,1.0186,1.0502,0.9521,0.9222,1.0349,0.8876,0.8095,0.8787,0.0,0.0,0.0,0.0,0.0,0.0,0.0,0.0,0.0,0.0,0.6228,0.5623,0.5908,0.4426,0.1263,0.1312,-0.0831,-0.4726,-0.4798,-0.6007,0.0,0.0,0.0,0.0,0.0,0.0,0.8832,0.0,0.0,0.0,0.0,0.0,0.0,0.0,0.0,0.0,0.0,0.0,0.0,3.157,2.1971,1.0915,0.4982,0.3226,0.4918,1.2446,1.715,2.2517,3.2432,3.5361,3.6824,3.9857,3.9207,3.8046,3.7925,3.6262,3.5376,3.6875,3.6734,3.6388,3.6299,3.6961,3.6559,3.4002,3.1578,2.8782,2.5313,2.0396,1.5652,1.1484,1.0243,0.6834,0.0259,-0.4404,-0.9601,-1.5529,-2.2051,-2.6233,-2.7914,-3.1296,-3.395,-3.5799,-3.5384,-3.5565,-3.6163,-3.6133,-3.6258,-3.6399,-3.68,-3.706,-3.7089,-3.68,-3.6938,-3.7225,-3.5804,-3.5295,-3.5056,-3.2652,-3.1893,-3.1748,0.0,0.0,0.0,0.0,0.0,0.0,0.0,1.1302,1.0993,1.1365,1.0426,1.0118,1.1159,0.9857,0.9041,0.9349,0.0,0.0,0.0,0.0,0.0,0.0,0.0,0.0,0.0,0.6957,0.6261,0.5085,0.5405,0.3554,-0.033,-0.1118,-0.3256,-0.6529,-0.7492,-0.868,0.0,0.0,0.0,0.0,0.0,0.0,1.5713,0.0,0.0,0.0,0.0,0.0,0.0,0.0,0.0,0.0,0.0,0.0,0.0,0.0,3.1541,2.4828,1.582,1.338,1.5088,2.2117,2.7305,3.2365,3.8708,4.0555,4.0906,4.0869,4.0868,4.0828,4.0723,3.8758,3.7761,3.9585,3.6233,3.455,3.7819,3.6656,3.5662,3.6162,3.0734,2.6851,2.6581,2.145,1.6495,1.2421,1.2107,0.8493,0.0172,-0.4655,-0.9147,-1.3622,-2.0542,-2.5254,-2.7468,-3.0118,-3.2682,-3.5106,-3.4805,-3.4972,-3.5594,-3.5891,-3.6153,-3.6352,-3.6923,-3.7225,0.0,-3.6785,-3.68,-3.7029,-3.531,-3.4545,-3.4234,-3.2109,-3.1127,-3.0631,0.0,0.0,0.0,0.0,0.0,0.0,0.0,0.0,1.1732,1.1586,1.1476,1.1354,1.1285,1.0872,1.0298,0.9479,0.0,0.0,0.0,0.0,0.0,0.0,0.0,0.0,0.0,0.7334,0.6614,0.5204,0.543,0.3397,-0.0744,-0.2661,-0.4816,-0.7126,-0.9321,-1.0395,0.0,0.0,0.0,0.0,0.0,0.0,0.0,0.0,0.0,0.0,0.0,0.0,0.0,0.0,0.0,0.0,0.0,0.0,0.0,0.0,0.0,0.0,0.0,2.2881,2.365,2.4836,3.2473,3.9915,4.0731,4.0869,0.0,4.0798,4.0804,4.0823,4.0878,3.6249,3.4053,3.9087,3.1326,2.7828,3.6943,3.4565,3.3253,3.6898,3.0261,2.703,3.1201,2.4476,1.8862,1.6436,1.6247,1.1465,0.0511,-0.4407,-0.8908,-1.3386,-2.0182,-2.4881,-2.7199,-2.9715,-3.2049,-3.425,-3.4558,-3.4737,-3.4972,-3.5773,-3.6235,-3.64,-3.7071,-3.7342,-3.7342,-3.6831,-3.6585,-3.6523,-3.513,-3.3873,-3.2693,-3.192,-3.0706,-2.9419,0.0,0.0,0.0,0.0,0.0,0.0,0.0,0.0,0.0,0.0,1.2116,1.1732,1.2891,1.1698,1.0989,0.0,0.0,0.0,0.0,0.0,0.0,0.0,0.0,0.0,0.0,0.7575,0.6165,0.3027,0.1598,-0.1087,-0.4875,-0.7105,-0.9329,-1.1441,-1.1999,-1.3243,0.0,0.0,0.0,0.0,0.0,0.0,0.0,0.0,0.0,0.0,3.0419,3.1621,0.0,0.0,0.0,0.0,0.0,0.0,0.0,0.0,3.5721,3.5197,3.2894,0.0,3.4979,3.5933,3.8469,4.0803,0.0,0.0,0.0,0.0,0.0,4.0757,4.07,3.9371,3.8698,3.9852,3.4898,3.2617,3.7581,3.6929,3.634,3.7398,3.3217,3.0602,3.1508,2.7313,2.2149,1.641,1.5999,1.2584,0.4646,-0.1298,-0.5881,-0.8844,-1.5208,-2.0546,-2.4625,-2.6706,-2.9135,-3.1821,-3.3479,-3.4359,-3.4588,-3.4984,-3.5279,-3.5361,-3.5625,-3.5978,-3.6381,-3.5778,-3.5737,-3.5834,-3.3573,-3.2735,-3.2623,-3.1509,-3.0469,-2.9677,0.0,0.0,0.0,0.0,0.0,0.0,0.0,0.0,0.0,0.0,0.0,0.0,0.0,0.0,0.0,0.0,0.0,0.0,0.0,0.0,0.0,0.0,0.0,0.7668,0.7628,0.7787,0.7069,0.5439,0.4323,0.1365,-0.3364,-0.5712,-0.9016,-1.3048,-1.4048,-1.3446,-1.0918,0.0,0.0,0.0,2.2898,0.0,0.0,0.0,0.0,0.0,3.0643,3.1893,0.0,3.3275,3.4408,3.5839,0.0,0.0,0.0,0.0,3.5696,3.5685,3.5696,3.6709,3.798,3.889,3.9714,4.0424,4.0867,0.0,0.0,0.0,0.0,4.0707,4.054,4.0283,4.0101,4.0022,3.5962,3.2768,3.2592,3.2077,3.1738,3.1851,3.015,2.8722,2.8077,2.6368,2.3568,1.9285,1.5753,1.2193,0.8449,-0.0165,-0.6193,-0.8651,-1.413,-1.9204,-2.3724,-2.5747,-2.8002,-3.0592,-3.2782,-3.3936,-3.414,-3.4762,-3.4904,-3.4862,-3.5136,-3.5264,-3.5267,-3.4964,-3.4981,-3.4981,-3.3295,-3.2777,-3.2806,-3.1389,-3.0367,-2.9626,0.0,0.0,0.0,0.0,0.0,0.0,0.0,0.0,0.0,0.0,0.0,0.0,0.0,0.0,0.0,0.0,0.0,0.0,0.0,0.0,0.0,0.0,0.0,0.8561,0.8334,0.8302,0.8692,0.9456,0.9118,0.6233,0.0981,-0.2321,-0.6771,-1.2043,-1.3935,-1.0891,-0.3924,0.3222,1.0526,1.7911,2.4983,0.0,0.0,0.0,0.0,0.0,0.0,0.0,0.0,3.3232,3.4364,3.5794,3.5745,0.0,0.0,0.0,0.0,0.0,3.5762,3.6193,3.6871,3.7954,3.8829,3.9676,4.0583,0.0,0.0,0.0,0.0,4.0607,4.0427,4.0138,3.9899,3.9899,3.6323,3.1928,2.7398,2.6972,2.7085,2.7062,2.6614,2.5896,2.4869,2.4389,2.3342,2.1471,1.5359,1.1221,1.0058,0.0079,-0.6929,-0.9671,-1.4267,-1.8641,-2.2798,-2.5176,-2.7468,-2.9683,-3.2002,-3.3316,-3.3818,-3.4452,-3.4717,-3.4591,-3.4773,-3.4592,-3.4204,-3.4224,-3.4118,-3.3844,-3.3146,-3.2849,-3.254,-3.1169,-3.0087,-2.9073,0.0,0.0,0.0,0.0,0.0,0.0,0.0,0.0,0.0,0.0,0.0,0.0,0.0,0.0,0.0,0.0,0.0,0.0,0.0,0.0,0.0,1.258,1.0182,0.9307,1.0311,1.0257,1.0497,1.1121,0.9135,0.7214,0.5174,-0.2451,-0.6294,-0.6774,-0.724,-0.357,0.3428,1.0328,1.4813,1.7923,2.5024,0.0,0.0,0.0,0.0,0.0,0.0,0.0,0.0,3.329,3.4447,3.5858,3.5818,0.0,0.0,0.0,0.0,0.0,3.5629,3.5666,3.6125,3.785,3.8937,3.9791,4.0597,4.08,4.0765,0.0,4.0615,4.0504,4.0422,4.0139,3.9892,3.9892,3.8643,3.616,3.1758,3.4052,3.6124,3.5948,3.2419,2.9771,2.9196,2.5344,2.0831,1.5862,1.44,1.096,0.4543,0.0696,-0.3158,-0.7025,-1.1807,-1.5701,-1.846,-2.2637,-2.5852,-2.8008,-3.0192,-3.2112,-3.3698,-3.3335,-3.3646,-3.4441,-3.3218,-3.3117,-3.3748,-3.3198,-3.2884,-3.2658,-3.1919,-3.1103,-3.0263,-3.0059,-2.8948,-2.7371,0.0,0.0,0.0,0.0,0.0,0.0,0.0,0.0,0.0,0.0,0.0,0.0,0.0,0.0,0.0,0.0,0.0,0.0,0.0,0.0,0.0,1.3852,1.2485,1.1814,1.2049,1.236,1.3285,1.484,1.4242,1.2648,0.9987,0.2837,-0.0355,-0.0083,-0.0111,0.3752,1.052,1.4213,1.8559,2.3303,0.0,0.0,0.0,0.0,0.0,0.0,0.0,0.0,0.0,0.0,3.4456,3.588,3.5814,0.0,0.0,0.0,0.0,0.0,3.5639,3.5612,3.597,3.7707,3.8443,3.9088,4.0401,4.0662,4.0615,4.0535,4.0485,4.0394,4.0252,4.0059,3.9848,3.9712,3.733,3.4817,3.2773,3.2008,3.1637,3.1523,3.1771,2.9419,2.3047,2.2522,2.0251,1.461,1.0429,0.7484,0.6029,0.0916,-0.3881,-0.8209,-1.2027,-1.5138,-1.7632,-2.1322,-2.4188,-2.6215,-2.9497,-3.1526,-3.2516,-3.3515,-3.3885,-3.3764,-3.3239,-3.2716,-3.2249,-3.1769,-3.1261,-3.0709,-2.9984,-2.9394,-2.8771,-2.8113,-2.7136,-2.5973,0.0,0.0,0.0,0.0,0.0,0.0,0.0,0.0,0.0,0.0,0.0,0.0,0.0,0.0,0.0,0.0,0.0,0.0,0.0,0.0,1.459,1.4921,1.4747,1.4337,1.3673,1.4342,1.5883,1.8318,1.9239,1.7609,1.353,0.9019,0.6962,0.711,0.7158,1.105,1.7646,1.857,2.2364,2.7843,0.0,0.0,0.0,0.0,0.0,0.0,0.0,0.0,0.0,0.0,0.0,0.0,0.0,0.0,0.0,3.5795,3.576,3.5713,3.5724,3.5679,3.6033,3.7672,3.8047,3.8474,4.0193,4.0549,4.0504,4.0457,4.0411,4.0344,4.0177,3.9996,3.9762,3.957,3.6633,3.4363,3.4304,3.1352,2.9144,2.9101,3.1106,2.8515,1.84,1.9368,1.8266,1.2629,0.8082,0.667,0.91,0.3004,-0.2305,-0.6086,-1.0887,-1.4557,-1.6959,-1.9839,-2.2594,-2.5069,-2.882,-3.0941,-3.1607,-3.379,-3.4169,-3.3066,-3.3061,-3.2139,-3.0539,-3.0023,-2.9412,-2.8732,-2.8135,-2.7675,-2.7188,-2.5965,-2.5223,-2.4697,0.0,0.0,0.0,0.0,0.0,0.0,0.0,0.0,0.0,0.0,0.0,0.0,0.0,0.0,0.0,0.0,0.0,0.0,0.0,0.0,1.5542,1.6501,1.6402,1.6009,1.5334,1.594,1.75,2.0099,2.1235,1.9228,1.4316,1.3895,1.399,1.453,1.453,1.8412,2.4982,2.5609,2.6594,2.7797,2.872,0.0,0.0,0.0,0.0,0.0,0.0,0.0,0.0,0.0,0.0,0.0,0.0,0.0,3.5885,3.5811,3.5794,3.5788,3.58,3.5788,3.6184,3.7851,3.817,3.8529,4.0134,4.0564,4.0593,4.0588,4.0499,4.0379,4.0307,3.9979,3.9689,3.9602,3.9114,3.8752,3.8752,3.8479,3.8179,3.801,3.3984,2.8756,2.2452,1.7581,1.2439,0.6734,1.0861,1.3001,1.1341,0.8748,0.6355,0.4365,-0.5951,-1.2428,-1.4597,-1.7581,-2.1004,-2.4999,-2.7719,-2.9944,-3.1757,-3.3607,-3.3822,-3.2667,-3.1607,-3.0411,-2.9073,-2.7969,-2.7446,-2.7206,-2.6587,-2.58,-2.4826,-2.3806,-2.3387,-2.3317,0.0,0.0,0.0,0.0,0.0,0.0,0.0,0.0,0.0,0.0,0.0,0.0,0.0,0.0,0.0,0.0,0.0,0.0,0.0,1.6524,1.6651,1.7522,1.7568,1.7793,1.8304,1.8888,1.9721,2.0802,2.2769,2.2805,2.0995,2.1296,2.1546,2.1767,2.1767,2.3502,2.6498,2.7268,2.8035,2.8834,2.9771,3.0335,0.0,0.0,0.0,0.0,0.0,0.0,0.0,0.0,3.4957,3.5888,3.5937,3.593,3.5901,3.5871,3.5864,3.5855,3.585,3.5807,3.6151,3.7864,3.8257,3.8667,4.03,4.0636,4.0607,4.0593,4.0492,3.9268,3.5568,3.7578,3.8651,3.503,3.7252,3.9458,3.9458,3.9458,3.9432,3.9354,3.7605,3.4121,2.833,2.2712,1.8601,1.6631,1.5232,1.5168,1.6883,1.1259,0.7058,0.5051,-0.0475,-0.7108,-1.4775,-1.2752,-1.5797,-2.3979,-2.6202,-2.7826,-2.8884,-3.0845,-3.1332,-3.0543,-3.0338,-2.9539,-2.8383,-2.7142,-2.6282,-2.5563,-2.4089,-2.3309,-2.2972,-2.1789,-2.1316,-2.1273,0.0,0.0,0.0,0.0,0.0,0.0,0.0,0.0,0.0,0.0,0.0,0.0,0.0,0.0,0.0,0.0,0.0,0.0,1.7591,1.7496,1.7637,1.8156,1.8406,1.9038,2.0157,2.0964,2.1498,2.1719,2.3832,2.4982,2.5222,2.5543,2.5684,2.5683,2.5964,2.6383,2.6977,2.8126,2.8938,2.9516,3.0438,3.0802,0.0,0.0,0.0,0.0,0.0,0.0,0.0,0.0,3.5193,3.5841,3.5954,3.5976,3.5934,3.5929,3.5935,3.5931,3.5909,3.586,3.6201,3.7877,3.8307,3.8772,4.0402,4.0699,4.0602,4.0549,4.0411,3.9076,3.5034,3.7334,3.8536,3.4586,3.7133,3.9602,3.9602,3.9602,3.9602,3.9602,3.9533,3.7276,3.1595,2.7544,2.4576,2.2899,2.0973,2.1002,2.3601,1.783,1.3774,1.227,0.5672,-0.0582,-0.6261,-0.8859,-1.3009,-1.8775,-2.3604,-2.6384,-2.7341,-2.9355,-2.9834,-2.8955,-2.91,-2.8402,-2.7206,-2.6127,-2.4661,-2.3032,-2.1425,-1.8892,-1.6272,-1.7882,-1.7071,-1.5449,0.0,0.0,0.0,0.0,0.0,0.0,0.0,0.0,0.0,0.0,0.0,0.0,0.0,0.0,0.0,0.0,0.0,0.0,1.8151,1.8392,1.8485,1.8409,1.8937,1.9657,2.0596,2.1798,2.2649,2.312,2.4381,2.5235,2.57,2.5707,2.5671,2.5652,2.6515,2.6904,2.7047,2.8777,2.9492,2.9592,3.0445,3.0801,3.0801,0.0,0.0,0.0,0.0,0.0,0.0,0.0,3.519,3.5907,3.5972,3.5996,3.5991,3.6005,3.6007,3.5987,3.5919,3.5957,3.6378,3.7901,3.8345,3.8797,4.035,4.0699,4.0642,4.0447,4.0234,4.0098,4.0041,3.9854,3.9698,3.9622,3.9599,3.9602,3.9602,3.9596,3.9596,3.9596,3.9439,3.711,3.1523,3.1045,2.8673,2.2791,2.8233,3.1639,3.1295,2.9569,2.8613,2.8598,1.2771,0.6976,1.2635,-0.6427,-1.3528,-0.8699,-1.954,-2.5716,-2.7653,-2.9763,-2.9791,-2.8143,-2.7951,-2.6876,-2.5241,-2.4659,-2.2402,-1.9214,-1.8888,-1.2371,-0.403,-1.1871,-1.0375,-0.5491,0.0,0.0,0.0,0.0,0.0,0.0,0.0,0.0,0.0,0.0,0.0,0.0,0.0,0.0,0.0,0.0,0.0,0.0,1.8478,1.8854,1.9029,1.8977,1.974,2.0715,2.1836,2.3659,2.469,2.4929,2.5265,2.5484,2.5633,2.5639,2.5952,2.6525,2.6786,2.7577,2.8766,2.9289,2.9831,3.0373,3.0674,3.0768,3.0728,0.0,0.0,0.0,0.0,0.0,0.0,0.0,0.0,0.0,3.5966,3.5975,3.5937,3.5925,3.5935,3.59,3.5735,3.5813,3.628,3.7782,3.8246,3.8753,4.0347,4.0699,4.0655,4.0489,4.0392,3.9042,3.4886,3.7336,3.8623,3.4472,3.7094,3.9661,3.9602,3.9432,3.9335,3.9369,3.9192,3.8446,3.6824,3.3129,3.1813,3.4194,3.2344,3.2949,3.7162,3.1582,2.826,2.8251,2.3829,1.8591,1.262,1.2377,0.9187,0.2984,-0.0424,-1.0624,-2.6395,-2.7074,-2.7087,-2.6531,-2.6395,-2.602,-2.53,-2.2603,-1.6297,-0.8885,-1.4207,-1.0932,-0.4156,-1.0982,-0.9022,-0.4087,0.0,0.0,0.0,0.0,0.0,0.0,0.0,0.0,0.0,0.0,0.0,0.0,0.0,0.0,0.0,0.0,0.0,0.0,0.0,1.9199,1.9572,1.9824,2.0587,2.1674,2.3124,2.4694,2.5571,2.5701,2.5627,2.5602,2.5641,2.5993,2.6429,2.6939,2.7612,2.8515,2.9523,2.9874,3.0303,3.0777,3.0829,3.0825,3.0807,0.0,0.0,0.0,0.0,0.0,0.0,0.0,0.0,0.0,3.597,3.5976,3.5936,3.594,3.5923,3.587,3.5721,3.6013,3.6658,3.7832,3.8451,3.9107,4.0372,4.0615,4.0564,4.0476,4.0411,3.9259,3.5708,3.7834,3.8944,3.5379,3.7593,3.967,3.9331,3.9272,3.9192,3.8971,3.8942,3.895,3.9017,3.6002,3.5469,3.8913,3.6121,3.5849,3.9488,3.5295,3.2849,3.2946,3.0094,2.7003,2.3736,2.0888,1.7733,1.4272,0.9741,0.048,-1.2694,-1.2789,-1.287,-1.2985,-1.2763,-1.4461,-1.7158,-1.4931,-1.1363,-0.7432,-0.868,-0.3659,0.3735,-0.0,0.3004,0.8,0.0,0.0,0.0,0.0,0.0,0.0,0.0,0.0,0.0,0.0,0.0,0.0,0.0,0.0,0.0,0.0,0.0,0.0,0.0,0.0,2.0066,2.0834,2.149,2.2627,2.4347,2.5117,2.5556,2.5687,2.5619,2.5637,2.5721,2.6582,2.7008,2.7098,2.8762,2.9545,2.9675,3.0472,3.0832,3.0918,3.0976,3.1015,3.111,3.1914,0.0,0.0,0.0,0.0,0.0,0.0,0.0,0.0,3.5976,3.5994,3.6005,3.5994,3.5931,3.5869,3.5795,3.6421,3.7279,3.7981,3.8899,3.9789,4.0458,4.0495,4.0415,4.0396,4.0364,4.031,4.031,4.0215,4.0117,4.0117,3.9994,3.9656,3.8915,3.9117,3.9082,3.8493,3.8566,3.8713,3.8881,3.896,3.895,3.8719,3.9165,3.9376,3.921,3.9566,3.9927,4.0284,3.3104,3.2912,4.064,2.3379,1.8261,2.5294,1.5385,1.053,1.0227,0.8047,0.6918,0.6644,0.6809,0.3436,-0.2239,-0.2774,-0.537,-0.84,-0.1332,0.7675,1.6569,1.5209,1.9646,2.5092,0.0,0.0,0.0,0.0,0.0,0.0,0.0,0.0,0.0,0.0,0.0,0.0,0.0,0.0,0.0,0.0,0.0,0.0,0.0,0.0,2.0374,2.1374,2.2842,2.4045,2.4898,2.5241,2.5486,2.5617,2.5551,2.557,2.5719,2.6548,2.7286,2.7975,2.9021,2.9906,3.0602,3.0795,3.0894,3.0954,3.1598,3.1844,3.1942,3.2784,3.3501,0.0,0.0,0.0,0.0,0.0,0.0,0.0,3.5996,3.5996,3.5994,3.5946,3.5875,3.5788,3.5611,3.628,3.7172,3.781,3.9171,4.0395,4.0554,4.0543,4.0466,4.0408,4.036,4.029,4.0291,4.0291,4.0215,4.0117,4.0096,3.9788,3.8997,3.8822,3.8656,3.8355,3.7946,3.8,3.8689,3.8478,3.8428,3.8762,3.8892,3.9045,3.9272,3.897,3.9233,4.0193,3.8174,3.8268,4.076,3.6737,3.547,3.6981,3.49,3.3593,3.2446,1.4862,0.6842,0.6776,0.6794,1.0885,1.6978,1.0664,1.2447,1.862,1.3989,1.7319,2.3091,0.9681,1.3606,2.3543,0.0,0.0,0.0,0.0,0.0,0.0,0.0,0.0,0.0,0.0,0.0,0.0,0.0,0.0,0.0,0.0,0.0,0.0,0.0,0.0,2.1394,2.2777,2.4082,2.4931,2.5281,2.5432,2.5546,2.5642,2.6002,2.6221,2.6345,2.7181,2.8039,2.8919,2.9777,3.0443,3.0896,3.0895,3.1128,3.1519,3.1929,3.2357,3.2805,3.3658,3.4203,3.4613,3.5054,0.0,0.0,0.0,0.0,0.0,0.0,0.0,3.5992,3.5962,3.59,3.5805,3.5611,3.6551,3.7839,3.8921,3.9923,4.064,4.0564,4.0558,4.0531,4.0427,4.0377,4.0326,4.031,4.031,4.0272,4.0215,3.9918,3.9449,3.8635,3.8334,3.8056,3.7667,3.7524,3.7667,3.8219,3.8068,3.7982,3.808,3.808,3.8143,3.8232,3.8072,3.8456,3.9539,3.9147,3.9528,4.0799,4.0519,4.0526,4.083,4.1012,4.084,3.9946,2.8092,2.2714,2.2697,2.2573,2.3718,2.5277,2.0984,2.0354,2.2091,2.1602,2.3909,2.6916,2.1749,2.5098,3.0942,0.0,0.0,0.0,0.0,0.0,0.0,0.0,0.0,0.0,0.0,0.0,0.0,0.0,0.0,0.0,0.0,0.0,0.0,0.0,0.0,0.0,2.4092,2.4994,2.5454,2.5473,2.5561,2.5632,2.5707,2.6509,2.7006,2.7246,2.8125,2.8906,2.9647,3.0506,3.0895,3.0913,3.1049,3.1499,3.2125,3.2438,3.2969,3.3707,3.4512,3.4784,3.4835,3.5625,3.5879,3.5859,3.5957,0.0,0.0,0.0,0.0,3.5991,3.5993,3.594,3.5895,3.5869,3.7104,3.8748,4.0179,4.0579,4.0602,4.0489,4.0457,4.046,4.0342,4.0379,4.0398,4.0328,4.0327,4.0289,4.0196,3.9694,3.9018,3.8144,3.7848,3.7542,3.7017,3.7208,3.7487,3.7774,3.7703,3.7524,3.7324,3.7305,3.7195,3.714,3.7219,3.7766,3.888,3.8413,3.8945,4.0597,3.9984,4.0087,4.0904,4.1034,4.0943,4.0668,4.033,4.013,4.0041,3.9876,3.6058,2.9989,2.9885,2.6015,2.0855,2.7398,2.9932,3.0497,3.5504,3.8203,3.9189,0.0,0.0,0.0,0.0,0.0,0.0,0.0,0.0,0.0,0.0,0.0,0.0,0.0,0.0,0.0,0.0,0.0,0.0,2.1557,0.0,0.0,2.4038,2.5074,2.5554,2.5331,2.5559,2.5698,2.5707,2.6513,2.7322,2.8143,2.9022,2.9491,2.9647,3.0502,3.0909,3.0948,3.1645,3.2005,3.2226,3.373,3.4392,3.453,3.5408,3.5715,3.5734,3.5911,3.5973,3.5973,3.5996,3.5993,0.0,0.0,0.0,3.5995,3.5992,3.5957,3.6044,3.6722,3.8044,3.9406,4.0085,4.0302,4.0341,4.0251,4.0158,4.0081,4.0062,4.0285,4.046,4.0415,4.0398,4.0214,3.9697,3.9547,3.9063,3.7848,3.7646,3.7524,3.7208,3.6952,3.7087,3.7756,3.7228,3.7002,3.7343,3.7232,3.714,3.7179,3.6949,3.7451,3.8854,3.8047,3.8329,3.9833,3.9361,3.9452,4.0138,4.0783,4.1073,4.1023,4.0918,4.0637,4.026,4.0231,3.9679,3.8795,3.8778,3.8172,3.7319,3.8265,3.8324,3.7056,3.0309,3.2599,3.7948,0.0,0.0,0.0,0.0,0.0,0.0,0.0,0.0,0.0,0.0,0.0,0.0,0.0,0.0,0.0,2.1355,2.1825,2.2384,2.3074,2.4342,2.5022,2.4891,2.5375,2.5609,2.5527,2.5644,2.5933,2.6425,2.7265,2.8125,2.8984,2.9863,3.0292,3.0346,3.0682,3.1129,3.1608,3.1953,3.2656,3.3613,3.4351,3.4872,3.5265,3.5734,3.5839,3.5741,3.5885,3.5939,3.5957,3.5993,3.5996,3.5995,3.5956,0.0,0.0,0.0,3.6267,3.6936,3.8124,3.885,3.9438,4.0089,4.0321,4.0358,4.0139,4.012,4.0101,3.9819,3.9944,4.0081,3.9979,3.9775,3.9519,3.9195,3.8748,3.8261,3.7851,3.747,3.7303,3.7301,3.7167,3.7147,3.7283,3.6999,3.6724,3.6504,3.6504,3.6422,3.6305,3.6232,3.6742,3.7968,3.7238,3.7649,3.935,3.8801,3.9104,4.0239,4.0827,4.1082,4.1045,4.1051,4.0873,4.0577,4.0548,4.0502,4.0491,4.0491,4.0572,4.0629,4.0223,3.9946,3.922,3.4917,3.572,3.8409,0.0,0.0,0.0,0.0,0.0,0.0,0.0,0.0,0.0,0.0,0.0,0.0,0.0,0.0,0.0,0.0,2.3035,2.3583,2.4569,2.5234,2.5605,2.5604,2.5605,2.5623,2.5693,2.5909,2.6323,2.6972,2.8066,2.8904,2.9523,3.0385,3.0839,3.0878,3.0819,3.1289,3.2107,3.2316,3.3285,3.4699,3.4833,3.5221,3.571,3.5779,3.5715,3.5599,3.5791,3.5869,3.5892,3.5966,3.5995,3.5976,3.5932,3.5951,0.0,0.0,0.0,3.8118,3.9186,3.9497,3.9662,4.0145,4.0302,4.0286,3.9982,4.0041,4.0041,3.9705,3.9618,3.9571,3.9464,3.9238,3.9032,3.8813,3.824,3.7819,3.7803,3.7414,3.7185,3.7264,3.7264,3.717,3.6939,3.6741,3.6433,3.6045,3.5932,3.5844,3.5667,3.5844,3.6405,3.7399,3.6768,3.7237,3.8964,3.8635,3.9078,4.0266,4.0811,4.1016,4.0978,4.1047,4.0986,4.0847,4.0827,4.0735,4.0636,4.0636,4.0668,4.0674,4.0207,3.9946,3.9776,3.9344,3.9073,3.8921,0.0,0.0,0.0,0.0,0.0,0.0,0.0,0.0,0.0,0.0,0.0,0.0,2.1906,2.223,2.244,2.2526,2.3566,2.4599,2.5467,2.558,2.5593,2.5605,2.5605,0.0,2.5707,2.6458,2.6852,2.6906,2.861,2.9458,2.9525,3.0389,3.0804,3.0804,3.0804,3.127,3.2151,3.291,3.3766,3.4675,3.5431,3.571,3.5688,3.5646,3.5562,3.5512,3.5666,3.5743,3.5825,3.597,3.5957,3.5918,3.5974,3.5951,3.6046,0.0,0.0,0.0,3.9431,3.9913,4.0385,4.0161,4.0005,3.9892,3.9739,3.9739,3.9739,3.9717,3.9345,3.9036,3.9036,3.9175,3.9111,3.8589,3.8487,3.8255,3.7685,3.7577,3.7411,3.6978,3.6939,3.69,3.69,3.6284,3.6045,3.6498,3.5985,3.5667,3.5773,3.6105,3.6733,3.7745,3.7099,3.7379,3.8619,3.9033,3.9485,3.9928,4.0606,4.0906,4.0906,4.0976,4.1004,4.099,4.1052,4.1039,4.096,4.096,4.0791,4.0513,4.041,3.9996,3.9444,3.9396,3.9195,3.896,0.0,0.0,0.0,0.0,0.0,0.0,0.0,0.0,0.0,0.0,0.0,0.0,0.0,2.3158,2.3564,2.4295,2.4846,2.5242,2.5521,2.5546,2.5546,2.5542,2.5539,2.5824,2.6468,2.6743,2.7449,2.8577,2.9145,2.9693,3.0205,3.0521,3.0967,3.1514,3.1544,3.2049,3.2924,3.3731,3.4549,3.532,3.5485,3.5538,3.5502,3.5445,3.5432,3.5457,3.5599,3.5685,3.5743,3.5846,3.588,3.5896,3.5873,3.6259,3.7008,3.8415,3.9202,3.9691,4.0169,4.0458,4.0559,4.0342,4.0266,4.012,3.9683,3.9675,3.9623,3.9156,3.896,3.8826,3.8658,3.8499,3.8323,3.815,3.7755,3.7452,3.7468,3.7243,3.7091,3.7094,3.7094,3.6978,3.6719,3.6451,3.6343,3.6343,3.6174,3.6105,3.6251,3.6461,3.6816,3.7324,3.7094,3.7488,3.8523,3.9185,3.9681,4.0111,4.0684,4.0961,4.0974,4.1035,4.1043,4.0994,4.1066,4.1081,4.1072,4.0964,4.0896,4.0761,4.0177,3.9946,3.9929,3.9402,3.9289,3.9419,0.0,0.0,0.0,0.0,0.0,0.0,0.0,0.0,0.0,0.0,0.0,0.0,0.0,0.0,2.4376,2.5294,2.5508,2.557,2.5497,2.5772,2.5947,2.5943,2.623,2.6663,2.7292,2.7298,2.8004,2.9464,2.9405,2.9797,3.0605,3.0571,3.1036,3.1874,3.2217,3.2849,3.3701,3.4225,3.4893,3.563,3.5411,3.5347,3.5383,3.5302,3.5288,3.5355,3.5534,3.5611,3.5646,3.5733,3.5795,3.5883,3.6119,3.7027,3.8241,3.9409,3.9867,4.0111,4.0673,4.0771,4.0672,4.0563,4.0466,4.0266,3.9735,3.9747,3.9675,3.9101,3.895,3.8873,3.8676,3.835,3.807,3.8088,3.7559,3.7283,3.7487,3.7188,3.6956,3.6995,3.6995,3.6917,3.6696,3.655,3.6485,3.6485,3.6444,3.6444,3.6544,3.6748,3.6987,3.7261,3.745,3.7907,3.8654,3.9284,3.9814,4.0294,4.0712,4.091,4.0896,4.1018,4.1038,4.0996,4.1048,4.1072,4.1058,4.0961,4.0871,4.0742,4.013,3.9965,4.0022,3.9482,3.9453,3.9702,0.0,0.0,0.0,0.0,0.0,0.0,0.0,0.0,0.0,2.265,0.0,0.0,0.0,0.0,0.0,2.5327,2.555,2.5636,2.557,2.6357,2.6825,2.6841,2.7641,2.8115,2.8129,2.8145,2.857,2.9419,2.9367,2.9766,3.0595,3.0559,3.0993,3.1862,3.2743,3.3615,3.4429,3.4375,3.4786,3.5483,3.5292,3.5273,3.5364,3.5251,3.5187,3.5223,3.5483,3.5543,3.5491,3.563,3.5704,3.5896,3.6791,3.8244,3.9617,3.9721,4.0248,4.0809,0.0,0.0,0.0,4.077,4.0604,4.0319,3.9983,3.9901,3.9816,3.9556,3.9324,3.9183,3.9101,3.8766,3.851,3.8415,3.8068,3.7792,3.7792,3.745,3.7034,3.6655,3.6574,3.6655,3.6776,3.6444,3.6444,3.7069,3.6713,3.6585,3.6742,3.7009,3.7299,3.7613,3.8201,3.8685,3.8999,3.9357,3.9844,4.0504,4.064,4.0699,4.0714,4.0916,4.1007,4.0992,4.0996,4.1003,4.1003,4.0998,4.0762,4.0404,4.0312,4.0053,3.9724,3.9724,3.9702,3.9766,0.0,0.0,0.0,0.0,0.0,0.0,2.2125,2.2573,2.2959,0.0,0.0,0.0,2.5245,2.6145,2.6726,2.6816,2.7103,2.7241,2.7168,2.7435,2.7646,2.7737,2.7925,2.8315,2.8946,2.8966,2.9375,3.0192,3.0133,3.0218,3.046,3.1086,3.1827,3.2706,3.3535,3.4383,3.5198,3.5226,3.5338,3.5477,3.5273,3.5181,3.5155,3.4925,3.487,3.4908,3.498,3.5028,3.5073,3.5097,3.5707,3.6732,3.8423,3.9276,3.9791,4.0383,4.0714,4.0877,4.0888,0.0,0.0,0.0,0.0,0.0,4.0211,4.0005,3.9781,3.9357,3.9156,3.9036,3.8979,3.8862,3.8773,3.8773,3.805,3.7431,3.7261,3.6913,3.669,3.6667,3.6684,3.6684,3.6708,3.6748,3.6851,3.7069,3.7129,3.7223,3.7354,3.7791,3.798,3.788,3.8603,3.9133,3.9357,3.9649,4.0024,4.0496,4.0648,4.0752,4.0843,4.0957,4.1032,4.1073,4.1064,4.108,4.1055,4.0921,4.082,4.0714,4.0261,4.0187,4.0329,4.0024,4.0005,4.0156,0.0,0.0,0.0,0.0,0.0,0.0,2.2581,2.3163,2.3675,0.0,0.0,0.0,2.5984,2.6831,2.7339,2.7369,2.7599,2.7753,2.7804,2.8182,2.8435,2.85,2.8849,2.9284,2.9786,2.9465,2.9698,3.0492,3.0072,3.0232,3.0956,3.1434,3.2288,3.3493,3.3975,3.4687,3.5509,3.554,3.5496,3.5402,3.5168,3.5069,3.5034,3.4774,3.4695,3.4773,3.4813,3.5116,3.5476,3.5419,3.6411,3.7872,3.917,3.9827,4.0206,4.0752,4.0868,4.0867,4.0937,4.0888,4.0839,4.0848,0.0,0.0,4.0364,4.0155,3.9926,3.9552,3.9371,3.9234,3.9154,3.9055,3.8931,3.8748,3.8277,3.7791,3.7394,3.7013,3.6771,3.6702,3.6766,3.6846,3.6869,3.7048,3.7185,3.7299,3.7411,3.7559,3.7757,3.8212,3.8418,3.8346,3.8934,3.9358,3.9576,3.9794,4.0081,4.0425,4.0578,4.0703,4.0818,4.0945,4.099,4.0972,4.0992,4.0955,4.0831,4.0742,4.078,4.0855,4.0447,4.0423,4.0574,4.0348,4.0262,4.03,0.0,0.0,0.0,2.1311,2.1716,2.2144,2.2552,2.3443,2.4287,0.0,2.565,2.6289,2.6646,2.7084,2.7409,2.75,2.7666,2.7822,2.8003,2.8752,2.9209,2.919,3.0015,3.046,3.043,2.9834,2.9873,3.0598,2.9858,3.0287,3.1831,3.1847,3.2653,3.4074,3.4236,3.473,3.5432,3.5465,3.5364,3.5184,3.4963,3.487,3.487,3.4579,3.4494,3.4553,3.4679,3.5325,3.6178,3.6309,3.7509,3.9035,3.9394,4.0056,4.072,4.0839,4.0848,4.0846,4.0963,4.0943,4.0917,4.0917,4.0818,0.0,4.0482,4.0345,4.0191,3.9967,3.9781,3.9599,3.9548,3.9338,3.9064,3.8685,3.8693,3.8499,3.7877,3.7505,3.7167,3.6846,3.6948,3.7087,3.7147,3.7319,3.7522,3.7649,3.7685,3.7828,3.8068,3.8418,3.8656,3.8857,3.9205,3.9524,3.9731,3.9876,4.008,4.0345,4.0526,4.0645,4.0721,4.0898,4.0916,4.0785,4.0843,4.0733,4.05,4.0565,4.0684,4.0829,4.071,4.061,4.0559,4.0559,4.045,4.0247,0.0,0.0,2.1133,2.194,2.2151,2.2636,2.3765,2.43,2.4695,2.5083,2.6305,2.7162,2.7232,2.832,2.8988,2.8912,2.9136,2.929,2.9323,2.9626,2.9817,2.9825,3.0107,3.0177,3.0032,3.0543,3.0968,3.1221,3.1699,3.2158,3.2692,3.3212,3.3616,3.3961,3.4684,3.5005,3.5037,3.5193,3.4978,3.4581,3.4641,3.4501,3.4228,3.3919,3.3705,3.3579,3.3616,3.4336,3.5546,3.7337,3.8303,3.8936,3.9903,4.0433,4.0713,4.073,4.0807,4.0888,4.0917,4.0949,4.0974,4.0987,4.0961,0.0,4.0751,4.0622,4.0447,4.0191,3.9984,3.9819,3.9754,3.9656,3.9556,3.9489,3.9489,3.9099,3.7962,3.7773,3.7685,3.7466,3.7466,3.7466,3.7503,3.7685,3.7846,3.7915,3.8119,3.8364,3.864,3.8962,3.9205,3.9282,3.9819,4.0081,4.0022,4.0213,4.0383,4.0538,4.0638,4.0719,4.0771,4.0875,4.0859,4.0723,4.0743,4.0643,4.0488,4.0463,4.0468,4.0477,4.0348,4.0285,4.0286,4.0411,4.0286,4.0101,2.1774,2.1837,2.2017,2.2524,2.2744,2.3076,2.3737,2.4413,2.4966,2.5257,2.6563,2.7565,2.7731,2.8373,2.8983,2.9415,2.9576,2.9922,3.0558,3.0677,3.0809,3.099,3.1132,3.1151,3.1066,3.1497,3.1775,3.1846,3.2243,3.2711,3.3264,3.3604,3.3881,3.4169,3.4624,3.4756,3.4656,3.4775,3.4578,3.4255,3.4308,3.4149,3.3825,3.3561,3.3372,3.3327,3.3743,3.4907,3.649,3.8437,3.9169,3.9373,4.0077,4.045,4.0602,4.0681,4.0718,4.0765,4.0878,4.0887,4.0867,4.0918,4.0898,0.0,0.0,4.0712,4.0626,4.0565,4.0364,4.0194,4.0176,4.0022,3.9918,3.9939,3.9876,3.9571,3.8869,3.8649,3.8425,3.8122,3.8204,3.819,3.8062,3.8355,3.853,3.8436,3.8621,3.8828,3.8952,3.9408,3.9668,3.969,4.012,4.0307,4.0252,4.038,4.0477,4.0552,4.0721,4.0801,4.08,4.0791,4.0723,4.0558,4.0526,4.0346,4.0096,4.0155,4.0119,4.0063,4.0158,4.0196,4.0215,4.0289,4.0139,3.996,2.2728,2.288,2.3,2.309,2.3339,2.3565,2.3748,2.4533,2.5209,2.5496,2.6616,2.7572,2.801,2.8131,2.8546,2.9565,2.9619,3.0089,3.117,3.1304,3.1441,3.1738,3.1907,3.1987,3.1946,3.2141,3.2296,3.2316,3.2543,3.3015,3.3772,3.3791,3.3995,3.4349,3.4389,3.4326,3.4172,3.4282,3.412,3.3862,3.3862,3.3778,3.3688,3.3575,3.3561,3.3669,3.4555,3.5914,3.7503,3.9058,3.9637,3.9797,4.0042,4.0267,4.0469,4.0629,4.0629,4.0623,4.082,4.082,4.0757,4.0869,4.082,4.0762,0.0,0.0,0.0,4.0859,4.0688,4.0523,4.0519,4.0319,4.0138,4.004,4.0024,3.9946,3.9736,3.9558,3.9283,3.8785,3.8878,3.8888,3.8667,3.9026,3.9205,3.9017,3.9152,3.9238,3.9264,3.9735,4.0042,4.0081,4.0307,4.043,4.046,4.0511,4.0558,4.0599,4.0803,4.0874,4.0837,4.0746,4.0595,4.0404,4.0315,4.0062,3.9739,3.9791,3.9747,3.9693,4.0,4.0139,4.0139,4.0158,4.008,3.9935,2.2689,2.2932,2.3303,2.3723,2.3796,2.4175,2.5104,2.5362,2.5595,2.5955,2.6438,2.7027,2.7826,2.8172,2.8739,2.9702,2.9772,2.9947,3.0309,3.0556,3.074,3.083,3.1093,3.1181,3.1056,3.1756,3.2227,3.2391,3.3412,3.4072,3.4406,3.4463,3.4373,3.4223,3.4357,3.4056,3.3458,3.3802,3.357,3.2934,3.2934,3.3333,3.397,3.427,3.4426,3.4694,3.5793,3.6429,3.6985,3.8303,3.9125,3.9645,3.9797,4.0023,4.0286,4.0539,4.0526,4.0477,4.0746,4.084,4.0882,4.0894,4.0894,4.0879,4.0878,0.0,4.0859,4.082,0.0,4.0588,4.0593,0.0,0.0,3.9508,3.9992,4.0169,3.9461,3.9935,4.0061,3.932,3.9175,3.9186,3.9212,3.9346,3.9462,3.9438,3.9552,3.9709,3.9901,3.9963,4.0139,4.0413,4.0466,4.0539,4.0655,4.0665,4.0761,4.0935,4.0918,4.0929,4.0972,4.0789,4.0621,4.0469,4.0232,4.0021,3.987,3.9647,3.9532,3.9551,3.9717,3.9829,3.9954,4.0077,4.0098,4.0077,2.3613,2.3927,2.4258,2.4444,2.47,2.4986,2.5313,2.5637,2.6062,2.6896,2.7104,2.7392,2.8005,2.8205,2.8547,2.9218,2.9286,2.9751,3.0838,3.1007,3.137,3.2074,3.2242,3.2288,3.2227,3.2593,3.2824,3.2911,3.3415,3.3697,3.3792,3.3949,3.3795,3.3403,3.3441,3.3364,3.322,3.3743,3.3833,3.3691,3.4438,3.4923,3.512,3.4251,3.451,3.541,3.615,3.672,3.729,3.8172,3.8828,3.9257,3.9333,3.9716,4.0212,4.0229,4.038,4.0563,4.0754,4.068,4.0597,4.0781,4.0742,4.0692,4.082,4.0878,4.0898,4.0848,0.0,0.0,0.0,0.0,0.0,0.0,4.0422,4.05,4.0159,4.037,4.0427,4.008,4.0005,3.9947,3.9945,3.9762,3.9738,3.9882,4.0005,4.0081,4.0175,4.0281,4.0431,4.0604,4.0623,4.0653,4.077,4.0843,4.092,4.1007,4.097,4.0955,4.0935,4.0688,4.0535,4.0422,4.0251,4.002,3.9785,3.9791,3.9632,3.9401,3.9623,3.9693,3.967,3.9717,3.9739,3.9758,2.4658,2.4741,2.4846,2.5011,2.5282,2.5536,2.5584,2.592,2.6451,2.7163,2.7368,2.7614,2.7981,2.8095,2.8331,2.8844,2.8909,2.9493,3.0959,3.107,3.1556,3.2553,3.2749,3.2844,3.2844,3.2988,3.305,3.305,3.3142,3.3184,3.3184,3.3437,3.3291,3.2827,3.3122,3.3198,3.3173,3.389,3.4177,3.4214,3.5135,3.5678,3.5764,3.4867,3.5181,3.6166,3.6448,3.6933,3.7523,3.7982,3.8418,3.8802,3.8906,3.9327,3.9806,3.9827,4.0005,4.0241,4.0538,4.0419,4.0329,4.0706,4.0687,4.0623,4.0776,4.0848,4.0868,4.0868,4.0812,0.0,0.0,0.0,4.0711,4.0505,0.0,4.0665,4.0438,4.0579,4.0674,4.0629,4.0588,4.053,4.0504,4.0208,4.0137,4.0319,4.038,4.0408,4.0408,4.0549,4.0648,4.0732,4.0723,4.0768,4.0857,4.0957,4.1001,4.0992,4.0987,4.0929,4.0843,4.0622,4.0487,4.0457,4.0269,4.0021,3.9724,3.9835,3.9632,3.9272,3.9477,3.9477,3.9401,3.9458,3.9502,3.9502,2.554,2.505,2.476,2.5207,2.5287,2.5546,2.6164,2.651,2.6614,2.6363,2.6808,2.7205,2.7487,2.7746,2.8165,2.8856,2.8919,2.9271,3.0081,3.0234,3.0625,3.1334,3.1731,3.193,3.193,3.2267,3.2422,3.2422,3.2669,3.2858,3.2934,3.3255,3.3225,3.2939,3.3867,3.387,3.3239,3.4174,3.4338,3.4007,3.4059,3.4525,3.5388,3.6679,3.7094,3.6935,3.6992,3.7126,3.7334,3.7487,3.7823,3.8264,3.8601,3.8718,3.8841,3.9295,3.9283,3.9277,3.9929,4.0114,4.0221,4.0681,4.079,4.079,4.0803,4.0803,4.0803,4.0803,4.0746,4.0713,4.079,4.0752,4.0467,3.9749,4.0303,0.0,0.0,4.0409,4.0846,4.0699,4.0694,4.0687,4.0687,4.0675,4.0668,4.0687,4.0688,4.0699,4.0699,4.0679,4.0732,4.0793,4.0797,4.0863,4.0992,4.0994,4.0996,4.1,4.0929,4.0837,4.069,4.0615,4.0607,4.0573,4.0304,4.0042,3.9775,3.9585,3.9331,3.9101,3.9129,3.9129,3.9137,3.9383,3.9502,3.9502,2.5615,2.5424,2.5393,2.5814,2.6081,2.6357,2.6811,2.6888,2.6854,2.6943,2.7101,2.7176,2.6911,2.6976,2.723,2.77,2.7715,2.8128,2.9178,2.9581,2.9972,3.0419,3.1223,3.147,3.1094,3.1731,3.2073,3.2073,3.2488,3.2935,3.3517,3.384,3.4191,3.4485,3.4784,3.4655,3.4374,3.5111,3.52,3.4978,3.5498,3.5803,3.5998,3.6464,3.6591,3.6591,3.6856,3.6974,3.7129,3.7595,3.7931,3.8147,3.8314,3.8621,3.8915,3.8979,3.9137,3.9363,3.9621,3.9702,3.9806,4.0224,4.0367,4.0441,4.0569,4.0687,4.0759,4.0621,4.0694,4.0776,4.0792,4.0815,4.0749,4.0438,4.0664,4.0781,0.0,4.0774,4.0953,4.0896,4.0811,4.0765,4.0761,4.0765,4.0776,4.0764,4.0781,4.0765,4.0768,4.082,4.0852,4.0928,4.0933,4.0951,4.1001,4.0999,4.0949,4.087,4.0801,4.0738,4.0696,4.0588,4.0539,4.0523,4.0441,4.0176,3.9819,3.992,3.9632,3.9129,3.9298,3.9245,3.9129,3.9192,3.9245,3.9245,2.6303,2.6303,2.6324,2.6335,2.6719,2.7072,2.7263,2.7097,2.7001,2.6997,2.7027,2.6857,2.6318,2.6544,2.6768,2.6864,2.7086,2.7615,2.8544,2.8903,2.9252,2.9653,3.0551,3.0908,3.0592,3.1594,3.2145,3.2182,3.2753,3.3335,3.3898,3.4215,3.4636,3.5066,3.5454,3.5439,3.5166,3.5826,3.5826,3.5511,3.6052,3.6174,3.6045,3.6045,3.6216,3.6485,3.6655,3.6678,3.6759,3.7185,3.7504,3.7685,3.781,3.8183,3.8621,3.8584,3.8755,3.9024,3.9308,3.9395,3.951,4.0024,4.0157,4.0233,4.0356,4.0489,4.0569,4.045,4.0526,4.0629,4.0681,4.0761,4.0815,4.0784,4.0839,4.0917,0.0,4.0986,4.1047,4.1045,4.0933,4.0863,4.0875,4.0874,4.0859,4.0834,4.0828,4.0859,4.0876,4.0914,4.0959,4.1038,4.1033,4.103,4.1046,4.1003,4.0935,4.0799,4.0726,4.0668,4.0629,4.0554,4.0476,4.046,4.0356,4.0157,3.988,3.9982,3.9747,3.9324,3.9483,3.9401,3.9129,3.9101,3.9073,3.9073,2.7575,2.7625,2.743,2.6752,2.7156,2.7524,2.7401,2.7203,2.6916,2.651,2.6505,2.6265,2.5618,2.6254,2.664,2.6443,2.6959,2.756,2.8207,2.824,2.8559,2.9029,2.987,3.0274,3.0307,3.1739,3.2554,3.2689,3.3425,3.3882,3.4054,3.4446,3.4688,3.4758,3.5918,3.609,3.5605,3.6278,3.6199,3.5622,3.5622,3.5622,3.5622,3.5622,3.6019,3.6643,3.6402,3.6301,3.6301,3.6343,3.6557,3.6939,3.715,3.7522,3.7934,3.8158,3.8192,3.8336,3.898,3.9178,3.9358,3.9983,4.0177,4.0196,4.0196,4.0214,4.0232,4.0283,4.0317,4.0351,4.0489,4.0602,4.0694,4.0694,4.0818,4.0913,4.0983,4.1055,4.1105,4.1105,4.1032,4.0992,4.0989,4.1007,4.0978,4.0917,4.0896,4.0921,4.0998,4.1007,4.1038,4.1108,4.1101,4.1097,4.1097,4.1028,4.0933,4.0801,4.0734,4.0621,4.0499,4.0502,4.0449,4.0398,4.012,4.0022,4.0002,3.9788,3.9717,3.9693,3.9693,3.9502,3.9183,3.9129,3.9045,3.8979,2.7524,2.7625,2.7565,2.735,2.7419,2.7386,2.7284,2.6841,2.6336,2.5892,2.5384,2.4838,2.4376,2.4536,2.4808,2.5119,2.5783,2.6496,2.7071,2.7849,2.8452,2.8703,2.9579,3.0133,3.0297,3.1662,3.2386,3.2386,3.3369,3.4203,3.4835,3.5118,3.557,3.6169,3.6591,3.6501,3.6108,3.6298,3.6088,3.5622,3.5622,3.5711,3.5888,3.5667,3.5844,3.6191,3.6259,3.6301,3.6343,3.6638,3.6821,3.6978,3.7321,3.7523,3.7685,3.8072,3.8192,3.8241,3.8478,3.8789,3.9152,3.9557,3.9943,4.0196,4.0196,4.0321,4.0408,4.0323,4.037,4.0462,4.0559,4.0675,4.0769,4.0769,4.0848,4.0924,4.0994,4.1003,4.1042,4.1094,4.1074,4.1055,4.0996,4.1004,4.0984,4.0988,4.0964,4.0972,4.0994,4.0992,4.1035,4.1091,4.1108,4.1076,4.1025,4.0954,4.0894,4.0809,4.0681,4.0621,4.0564,4.0463,4.0415,4.0398,4.0344,4.0177,4.0002,3.9941,3.9835,3.9693,3.9693,3.9502,3.9183,3.895,3.9007,3.9129,2.6759,2.7034,2.7292,2.7572,2.7358,2.7063,2.6893,2.6244,2.5689,2.5558,2.4798,2.44,2.4551,2.4681,2.4957,2.5504,2.6213,2.6834,2.7509,2.8121,2.8614,2.9011,2.973,3.0188,3.0299,3.1545,3.2383,3.2681,3.3573,3.4418,3.518,3.5511,3.5925,3.6381,3.6666,3.658,3.6199,3.6045,3.5827,3.5622,3.5622,3.5711,0.0,3.5667,3.5711,3.5844,3.5958,3.6002,3.6045,3.6474,3.6741,3.6978,3.7377,3.7632,3.7845,3.814,3.8192,3.8225,3.8354,3.8615,3.8915,3.9352,3.9683,3.992,4.004,4.0158,4.0214,4.0215,4.027,4.0356,4.046,4.0593,4.0757,4.0877,4.0943,4.0993,4.1037,4.1037,4.1052,4.1094,4.1091,4.1064,4.1003,4.1032,4.1015,4.0917,4.0974,4.0994,4.0996,4.0991,4.1021,4.1097,4.109,4.1081,4.1039,4.096,4.0874,4.084,4.0694,4.0574,4.0511,4.0375,4.0308,4.0253,4.0177,4.0119,4.008,3.996,3.9897,3.9892,3.9561,3.9414,3.9298,3.8773,3.8695,3.8884,2.6021,2.6486,2.6982,2.7599,2.7129,2.6648,2.654,2.5716,2.5216,2.5528,2.4827,2.4593,2.5444,2.5694,2.6007,2.6485,2.7129,2.772,2.8325,2.8453,2.8779,2.9411,2.9924,3.0258,3.035,3.1498,3.2482,3.3194,3.3843,3.4561,3.5291,3.5633,3.582,3.5864,3.634,3.6316,3.5924,3.5694,3.5577,3.5515,3.5577,3.5622,3.5622,3.5622,3.5622,3.5622,3.5622,3.5622,3.565,3.6088,3.6433,3.6821,3.7283,3.7685,3.8054,3.8192,3.8225,3.8241,3.8415,3.8554,3.8748,3.92,3.9427,3.9575,3.9781,3.9867,3.9933,4.0057,4.0098,4.0157,4.0291,4.046,4.0668,4.0917,4.1013,4.1061,4.1052,4.1078,4.1082,4.1094,4.1094,0.0,4.1006,4.1042,4.101,4.0823,4.0921,4.0996,4.1003,4.1,4.1031,4.1086,4.1086,4.1061,4.105,4.0933,4.0855,4.0837,4.0655,4.0511,4.0377,4.025,4.0158,4.0077,3.9911,3.9975,4.0176,3.9911,3.9892,3.9998,3.9327,3.9242,3.9383,3.8572,3.8354,3.8478,2.7111,2.7397,2.7482,2.7595,2.7117,2.6695,2.6695,2.6081,2.5855,2.6418,2.5823,2.5428,2.5547,2.5608,2.5707,2.5749,2.6478,2.6889,2.701,2.7471,2.8048,2.8661,2.932,2.987,3.0456,3.1678,3.2616,3.3216,3.3802,3.4497,3.5152,3.5321,3.5458,3.5566,3.5756,3.5526,3.5052,3.5424,3.5316,3.4975,3.5424,3.5622,3.5622,3.5622,3.5622,3.5622,3.5622,3.5622,3.5622,3.5694,3.5783,3.5985,3.6781,3.7055,3.7301,3.8036,3.8241,3.8241,3.8401,3.8585,3.8818,3.8943,3.9261,3.9508,3.9575,3.9739,3.9914,3.9935,4.0098,4.0272,4.0291,4.043,4.0564,4.072,4.0868,4.0915,4.0859,4.0906,4.0959,4.1016,4.1013,4.1016,4.1011,4.1017,4.0972,4.0882,4.0901,4.0948,4.0994,4.0993,4.1013,4.102,4.1025,4.0941,4.0772,4.074,4.0684,4.0572,4.0427,4.0351,4.0298,4.0177,4.0098,4.0096,4.0057,4.0077,4.0117,3.9826,3.9585,3.9333,3.8924,3.8818,3.8818,3.8368,3.8241,3.8274,2.6533,2.6889,2.7226,2.7602,2.7094,2.6925,2.7534,2.6881,2.6215,2.5973,2.5792,2.5729,2.5838,2.6052,2.6258,2.6557,2.6893,2.7264,2.7629,2.794,2.836,2.8993,2.9688,3.0145,3.051,3.1552,3.2342,3.2788,3.3475,3.4102,3.4658,3.5088,3.5337,3.54,3.552,3.5441,3.5224,3.547,3.547,3.5224,3.5487,3.5622,3.5711,3.5711,3.5756,3.58,3.58,3.58,3.5844,3.5915,3.5958,3.6071,3.6701,3.7055,3.7321,3.7845,3.8122,3.8274,3.8368,3.8523,3.8688,3.8839,3.91,3.9324,3.9477,3.9599,3.9739,3.987,3.9996,4.0157,4.0307,4.0438,4.0535,4.0681,4.0779,4.0849,4.0849,4.0882,4.0909,4.0992,4.1031,4.105,4.0996,4.0969,4.0921,4.0859,4.0859,4.0878,4.0941,4.0926,4.0906,4.096,4.0952,4.0897,4.0791,4.0726,4.068,4.061,4.0396,4.0281,4.0247,4.0119,4.0036,3.9994,3.9889,3.9826,3.9826,3.9513,3.9275,3.9063,3.8759,3.8658,3.8597,3.8219,3.8054,3.8072,2.6177,2.6417,2.685,2.7521,2.6947,2.6757,2.7866,2.7105,2.624,2.5829,2.5857,2.6051,2.6382,2.6575,2.6895,2.743,2.7523,2.7723,2.8222,2.8287,2.8532,2.9079,2.9827,3.0329,3.0329,3.1278,3.2038,3.2492,3.3093,3.3569,3.3908,3.4624,3.5024,3.5182,3.5274,3.5367,3.5424,3.556,3.5515,3.5424,3.556,3.5667,3.5773,3.5773,3.5861,3.5949,3.5949,3.5975,3.6019,3.6174,3.6216,3.6301,3.6678,3.7017,3.7303,3.7487,3.7774,3.8018,3.8135,3.8267,3.841,3.8651,3.8865,3.9073,3.9272,3.9357,3.9458,3.9693,3.9807,4.0,4.0321,4.0431,4.0516,4.0636,4.0726,4.0781,4.0801,4.0857,4.089,4.0933,4.1013,4.1058,4.1015,4.0957,4.0887,4.0829,4.0792,4.0812,4.0878,4.0818,4.0818,4.0878,4.0878,4.0868,4.0818,4.0711,4.0642,4.061,4.0364,4.023,4.0175,4.004,3.9954,3.9889,3.9712,3.9575,3.9477,3.9144,3.8952,3.8828,3.8554,3.8478,3.851,3.8186,3.8088,3.8072,2.7366,2.6819,2.6684,2.7365,2.6357,2.5669,2.6471,2.5951,2.5857,2.7098,2.671,2.6587,2.731,2.6786,2.6705,2.7456,2.7523,2.7523,2.759,2.759,2.759,2.7643,2.8889,2.969,2.9889,3.1161,3.2094,3.2734,3.2695,3.2793,3.2934,3.3512,3.4153,3.4833,3.488,3.488,3.4927,3.5379,3.5316,3.4927,3.5424,3.5622,3.5622,3.5622,3.5711,3.5817,3.5817,3.5905,3.6019,3.6019,3.6019,3.6062,3.6301,3.6433,3.658,3.6943,3.7038,3.7094,3.7266,3.7596,3.7895,3.8068,3.8401,3.875,3.878,3.895,3.9137,3.9183,3.9556,3.9979,4.0252,4.036,4.043,4.0515,4.0621,4.0681,4.0545,4.0696,4.0781,4.0742,4.0896,4.1007,4.0996,4.0994,4.0967,4.0904,4.0773,4.0739,4.0812,4.08,4.08,4.0812,4.0812,4.072,4.0549,4.0545,4.0462,4.0351,4.0176,4.012,4.0101,3.9977,3.9911,3.9889,3.9739,3.9483,3.9129,3.8847,3.8597,3.8354,3.8054,3.8122,3.8322,3.8307,3.8437,3.8596,2.6208,2.6277,2.6346,2.6208,2.607,2.607,2.6346,2.6139,2.6139,2.6769,2.6552,2.6346,2.6208,2.6701,2.7175,2.7456,2.7523,2.7523,2.7523,2.7523,2.7523,2.7523,2.8762,2.9566,2.9827,3.119,3.2038,3.2342,3.2749,3.2966,3.2942,3.3537,3.402,3.4333,3.4333,3.4333,3.4333,3.4529,3.4738,3.4927,3.4866,3.5287,3.5932,3.5605,3.5739,3.6105,3.6105,3.6131,3.6174,3.6105,3.6079,3.6019,3.6088,3.6284,3.6557,3.6746,3.6999,3.7226,3.7358,3.7685,3.7982,3.8034,3.8368,3.8707,3.8707,3.878,3.8939,3.9129,3.9585,4.0001,4.0101,4.0307,4.0485,4.0502,4.0539,4.0579,4.0564,4.0623,4.0699,4.075,4.0902,4.1008,4.0996,4.0994,4.0964,4.0852,4.0759,4.0725,4.08,4.0764,4.0739,4.0739,4.0784,4.0726,4.0612,4.0545,4.0462,4.0415,4.0283,4.0212,4.0212,4.0081,3.9832,3.9526,3.9401,3.9119,3.8796,3.8688,3.8585,3.8446,3.8419,3.8419,3.8496,3.8433,3.8496,3.8528,2.5312,2.5499,2.5627,2.537,2.5358,2.5487,2.5697,2.5557,2.5417,2.5417,2.5557,2.5709,2.5652,2.6552,2.7255,2.7469,2.7523,2.7523,2.7523,2.7523,2.7523,2.7523,2.8762,2.9628,2.9827,3.1248,3.2038,3.215,3.2641,3.2786,3.2545,3.3002,3.3422,3.3767,3.3767,3.3869,3.3986,3.3986,3.4284,3.4673,3.4431,3.4866,3.5605,3.5424,3.5633,3.6045,3.6216,3.6259,3.6301,3.6251,3.6165,3.6105,3.6019,3.6216,3.6468,3.6498,3.6741,3.6995,3.7094,3.7487,3.7861,3.7913,3.8318,3.8707,3.8707,3.8707,3.881,3.9129,3.9561,3.9901,4.0022,4.0288,4.0518,4.0534,4.0527,4.0554,4.0588,4.0629,4.07,4.0788,4.0921,4.1017,4.1037,4.1035,4.0972,4.087,4.0807,4.0791,4.0773,4.0707,4.0681,4.07,4.0739,4.0746,4.0668,4.0621,4.0593,4.0593,4.0415,4.0367,4.0351,4.0139,3.9769,3.9298,3.9192,3.8998,3.8737,3.8646,3.8585,3.8585,3.8528,3.8559,3.8554,3.8523,3.8572,3.8603,2.5312,2.4636,2.4409,2.5158,2.4082,2.3287,2.4047,2.3486,2.3075,2.3075,2.3706,2.4684,2.6208,2.6414,2.6701,2.7456,2.7523,2.7523,2.7523,2.7523,2.7523,2.7523,2.8762,2.9628,3.0011,3.1306,3.215,3.2398,3.2287,3.1949,3.1397,3.1451,3.2042,3.3198,3.3198,3.3495,3.3986,3.3986,3.3969,3.4036,3.4234,3.43,3.4399,3.4991,3.527,3.547,3.5993,3.6233,3.6301,3.6301,3.6301,3.6259,3.6062,3.6079,3.6182,3.6062,3.6019,3.6062,3.6165,3.6741,3.7342,3.7487,3.8101,3.8707,3.8707,3.8707,3.881,3.9129,3.9364,3.9641,4.0041,4.0325,4.0515,4.0592,4.0607,4.0603,4.0607,4.0706,4.0798,4.08,4.0922,4.1039,4.1088,4.1093,4.1066,4.0996,4.1003,4.0909,4.0701,4.0649,4.0636,4.0699,4.0694,4.0668,4.0588,4.0726,4.079,4.079,4.0588,4.0511,4.0477,4.0082,3.9683,3.9298,3.9298,3.9219,3.9073,3.8737,3.8585,3.8554,3.8234,3.8267,3.851,3.8585,3.8785,3.8979,2.3717,2.4143,2.4348,2.379,2.4009,2.4131,2.412,2.4348,2.4587,2.4587,2.5627,2.6402,2.6414,2.6414,2.6756,2.7656,2.759,2.759,2.7723,2.7723,2.7723,2.7723,2.8675,2.931,2.9546,3.0807,3.1537,3.1766,3.2176,3.2235,3.2074,3.2074,3.2292,3.2641,3.2641,3.2749,3.2911,3.2911,3.3145,3.3563,3.3419,3.3815,3.4529,3.4464,3.4658,3.5021,3.5161,3.5481,3.5793,3.5793,3.6028,3.6301,3.6216,3.6216,3.6276,3.6216,3.6216,3.6259,3.6615,3.7055,3.7524,3.7844,3.8303,3.8707,3.8707,3.8719,3.8822,3.895,3.9219,3.9464,3.9675,4.0021,4.0306,4.0319,4.0473,4.0617,4.0654,4.0707,4.0745,4.08,4.0869,4.0967,4.1037,4.1069,4.1074,4.1012,4.1003,4.0953,4.0843,4.0818,4.0772,4.069,4.0738,4.0706,4.0603,4.064,4.0668,4.0668,4.0607,4.053,4.0419,4.0062,3.9791,3.9575,3.9272,3.9156,3.9101,3.8931,3.8873,3.8862,3.8695,3.8713,3.8773,3.8803,3.8862,3.891,2.3001,2.357,2.3863,2.3139,2.3717,2.4143,2.3779,2.4371,2.4743,2.4443,2.5346,2.6045,2.6045,2.6045,2.6539,2.7577,2.7656,2.7656,2.7776,2.7855,2.7921,2.7921,2.8716,2.9149,2.931,3.0343,3.094,3.1116,3.1751,3.216,3.2398,3.2398,3.2398,3.2398,3.2398,3.2453,3.2453,3.2453,3.2765,3.3193,3.3043,3.3366,3.4036,3.4084,3.4284,3.4545,3.4738,3.5021,3.5345,3.5526,3.5793,3.6071,3.6259,3.6301,3.6301,3.6301,3.6301,3.6326,3.6597,3.7094,3.7578,3.7791,3.8318,3.875,3.878,3.8792,3.8851,3.8921,3.9183,3.9427,3.9502,3.988,4.0212,4.0229,4.0454,4.0646,4.0733,4.0746,4.0771,4.0843,4.0868,4.0924,4.0987,4.1051,4.1068,4.1048,4.1038,4.1023,4.1007,4.0929,4.0879,4.0807,4.0811,4.0754,4.0635,4.0621,4.0588,4.0588,4.0588,4.0496,4.0319,4.0023,3.9791,3.9575,3.9245,3.9073,3.9017,3.8979,3.8968,3.8939,3.8851,3.8822,3.8822,3.8851,3.8862,3.8833,2.3075,2.3075,2.3001,2.3001,2.3298,2.3446,2.3075,2.374,2.397,2.3224,2.3593,2.4299,2.5533,2.566,2.6158,2.7456,2.7723,2.7789,2.7855,2.8,2.8079,2.8079,2.8716,2.9149,2.9247,2.987,3.0358,3.0584,3.1233,3.1823,3.2398,3.2398,3.2398,3.2398,3.2398,3.2523,3.2648,3.2648,3.2718,3.2897,3.3058,3.3096,3.315,3.3848,3.4101,3.4134,3.4642,3.4816,3.4911,3.5436,3.5616,3.5705,3.6156,3.6301,3.6301,3.6301,3.6301,3.6301,3.6343,3.69,3.7469,3.7542,3.8183,3.8822,3.8862,3.891,3.8939,3.8997,3.9183,3.9376,3.9477,3.984,4.0193,4.0264,4.05,4.07,4.079,4.079,4.082,4.0888,4.0898,4.0915,4.1,4.0992,4.1016,4.1091,4.1093,4.1131,4.1191,4.1022,4.0948,4.0998,4.0874,4.0787,4.0692,4.0642,4.0602,4.0588,4.0588,4.0466,4.0193,3.9983,3.9724,3.9401,3.9165,3.9017,3.891,3.891,3.8851,3.8792,3.8738,3.8707,3.8707,3.8762,3.8792,3.8792,2.3446,2.3446,2.3372,2.3075,2.3298,2.3593,2.3446,2.4093,2.4659,2.4731,2.5721,2.6564,2.6837,2.7242,2.759,2.7947,2.7855,2.7855,2.8,2.8079,2.8131,2.8235,2.8573,2.8716,2.8766,2.9345,3.0194,3.1248,3.1879,3.2272,3.2398,3.2398,3.2453,3.2523,3.2523,3.2648,3.2843,3.2843,3.2843,3.2897,3.3058,3.3096,3.315,3.3848,3.4101,3.4134,3.4642,3.5052,3.5436,3.5571,3.5854,3.6156,3.6259,3.6301,3.6301,3.6301,3.6301,3.6385,3.6678,3.69,3.7208,3.7791,3.8364,3.8822,3.8862,3.891,3.8939,3.8997,3.9064,3.912,3.9165,3.9439,3.975,3.9966,4.0227,4.05,4.0759,4.079,4.0803,4.082,4.082,4.0846,4.0915,4.0916,4.0957,4.1025,4.1073,4.1105,4.1129,4.1088,4.1042,4.1003,4.0978,4.0871,4.0706,4.0681,4.0615,4.0519,4.0519,4.0406,4.0195,3.9943,3.9705,3.9477,3.9156,3.9007,3.895,3.8881,3.8822,3.8792,3.8738,3.8707,3.8707,3.8738,3.8719,3.8719,2.3897,2.3751,2.353,2.3298,2.3446,2.3666,2.3936,2.4647,2.5205,2.5499,2.6333,2.696,2.7229,2.7497,2.7842,2.8183,2.8105,2.8039,2.8183,2.8276,2.8327,2.843,2.8522,2.8587,2.8587,2.9156,3.0179,3.148,3.1823,3.2104,3.2398,3.2398,3.2453,3.2523,3.2578,3.2718,3.2897,3.2951,3.3005,3.3112,3.315,3.3203,3.3256,3.3607,3.3899,3.4134,3.4366,3.4785,3.5283,3.5526,3.5766,3.6028,3.6216,3.6301,3.6301,3.6301,3.6301,3.6385,3.6655,3.6856,3.7208,3.805,3.8478,3.8725,3.8931,3.9007,3.9007,3.9036,3.9064,3.9064,3.9101,3.9331,3.9566,3.9719,4.0081,4.0419,4.0626,4.0733,4.079,4.079,4.079,4.0808,4.0846,4.0882,4.0914,4.0945,4.1033,4.109,4.1107,4.1103,4.1077,4.1049,4.1018,4.0954,4.084,4.0754,4.0629,4.0489,4.0489,4.0441,4.0321,4.0062,3.9859,3.9702,3.9305,3.9101,3.9036,3.8862,3.8792,3.875,3.8719,3.8707,3.8707,3.8707,3.878,3.8881,2.4273,2.397,2.3677,2.3677,2.3677,2.3875,2.436,2.5075,2.5569,2.5836,2.6239,2.6718,2.7258,2.7391,2.767,2.8287,2.8365,2.8352,2.8287,2.8444,2.8587,2.8587,2.8587,2.8587,2.8587,2.9282,3.0194,3.1364,3.1537,3.1879,3.2398,3.2398,3.2453,3.2453,3.2578,3.2773,3.2951,3.3112,3.3203,3.3309,3.3309,3.3309,3.3309,3.3398,3.3694,3.4101,3.4284,3.4593,3.5005,3.5526,3.5722,3.5766,3.6156,3.6301,3.6343,3.6343,3.6343,3.6402,3.6444,3.6794,3.7301,3.8117,3.8428,3.8585,3.8942,3.9055,3.9101,3.9129,3.9101,3.9101,3.9129,3.9313,3.95,3.9645,4.0062,4.0406,4.0539,4.0687,4.079,4.079,4.079,4.079,4.079,4.0849,4.0882,4.09,4.1019,4.1094,4.1107,4.1105,4.1105,4.1107,4.1046,4.1,4.0974,4.0789,4.0629,4.0489,4.0489,4.0473,4.0422,4.0195,4.0061,3.9941,3.9513,3.9272,3.9156,3.896,3.8862,3.8822,3.8822,3.8822,3.8822,3.8822,3.895,3.9073,2.4718,2.4345,2.4116,2.4116,2.4116,2.4261,2.4706,2.4849,2.5194,2.6013,2.6552,2.7095,2.763,2.8105,2.8444,2.8522,2.8522,2.8509,2.8287,2.8352,2.843,2.8587,2.8587,2.8587,2.8587,2.9732,3.045,3.0644,3.1751,3.2342,3.2398,3.2398,3.2523,3.2843,3.2843,3.3005,3.3256,3.3256,3.3309,3.3309,3.3309,3.3309,3.3361,3.3797,3.405,3.4184,3.5068,3.5391,3.5526,3.6028,3.6216,3.6199,3.6301,3.6402,3.6461,3.6461,3.6544,3.6602,3.6544,3.6834,3.7264,3.7523,3.805,3.8523,3.8658,3.8913,3.9129,3.9183,3.9129,3.9129,3.932,3.9309,3.9433,3.9941,4.0101,4.0285,4.0706,4.0778,4.079,4.079,4.079,4.079,4.079,4.082,4.0836,4.0896,4.0962,4.1035,4.1101,4.1097,4.1094,4.1099,4.1094,4.0994,4.0837,4.0746,4.0629,4.0489,4.0489,4.0372,4.0158,4.012,3.9981,3.9743,3.9623,3.9526,3.9502,3.9427,3.9401,3.9376,3.9376,3.9376,3.9376,3.9376,3.9272,3.9101,2.5052,2.4778,2.4622,2.4874,2.4731,2.4945,2.5918,2.6126,2.6402,2.7377,2.7709,2.7987,2.8183,2.8457,2.8587,2.8587,2.8587,2.8587,2.8444,2.8444,2.8509,2.8587,2.8587,2.8894,2.9623,3.0222,3.0807,3.1507,3.2104,3.2453,3.2523,3.2523,3.2648,3.2897,3.2951,3.3058,3.3203,3.3256,3.3309,3.3309,3.3309,3.3309,3.3361,3.3555,3.3848,3.4151,3.461,3.5161,3.5616,3.5854,3.6071,3.6301,3.6301,3.6402,3.6502,3.6502,3.6626,3.6748,3.6667,3.6873,3.7129,3.7413,3.7721,3.8065,3.8517,3.8718,3.8894,3.9156,3.9183,3.9202,3.9373,3.9346,3.9413,3.9712,3.9873,4.0061,4.0441,4.0569,4.0673,4.079,4.079,4.079,4.079,4.0787,4.0837,4.089,4.0961,4.1032,4.1091,4.1099,4.1091,4.1094,4.1094,4.0994,4.0791,4.0761,4.0655,4.0489,4.0489,4.0441,4.0321,4.0288,4.0196,4.008,3.9851,3.9762,3.9739,3.9556,3.9502,3.9502,3.9502,3.9427,3.9298,3.9452,3.9324,3.9101,2.5312,2.5123,2.5123,2.5639,2.5499,2.5697,2.6989,2.7124,2.7471,2.8314,2.8392,2.8457,2.8587,2.8587,2.8587,2.8587,2.8587,2.8587,2.8587,2.8587,2.8587,2.8587,2.8587,2.9071,3.004,3.0343,3.0984,3.1977,3.2272,3.2453,3.2523,3.2578,3.2718,3.2912,3.3058,3.3096,3.315,3.3256,3.3309,3.3309,3.3309,3.3309,3.3293,3.345,3.3642,3.3949,3.4184,3.4738,3.5436,3.5571,3.5941,3.6343,3.6402,3.6485,3.6585,3.6585,3.6708,3.6829,3.6829,3.6908,3.7048,3.7301,3.7432,3.7667,3.8328,3.8548,3.8718,3.9156,3.921,3.9256,3.9425,3.9444,3.9469,3.9577,3.9731,3.9916,4.0233,4.0389,4.0583,4.079,4.0803,4.0803,4.0796,4.0804,4.084,4.0898,4.0944,4.1016,4.1094,4.1107,4.1097,4.1108,4.1108,4.1008,4.0801,4.0801,4.0684,4.0476,4.0492,4.0492,4.0441,4.0413,4.0398,4.0363,4.0099,3.9996,3.9975,3.9762,3.9693,3.9693,3.9693,3.9575,3.9401,3.9508,3.9383,3.9119,2.5312,2.5312,2.5453,2.6082,2.6151,2.6289,2.6892,2.7027,2.7242,2.7776,2.7855,2.8052,2.8522,2.8587,2.8587,2.8587,2.8587,2.8587,2.8587,2.8587,2.8587,2.8587,2.8587,2.8651,2.8716,2.9917,3.0524,3.0629,3.1807,3.2398,3.2398,3.2523,3.2718,3.2912,3.3058,3.315,3.3309,3.3309,3.3309,3.3309,3.3309,3.3309,3.3346,3.3848,3.3745,3.3503,3.4399,3.4785,3.4958,3.5476,3.6054,3.6502,3.6643,3.6725,3.6788,3.6788,3.6869,3.6948,3.6811,3.6908,3.7027,3.7009,3.7281,3.7614,3.805,3.8378,3.8748,3.9275,3.9301,3.9283,3.9527,3.9546,3.9577,3.9826,3.9892,4.002,4.0406,4.0489,4.0564,4.0776,4.0788,4.0812,4.0796,4.0807,4.083,4.0882,4.0896,4.0959,4.1094,4.1094,4.109,4.1091,4.1108,4.1003,4.0801,4.0801,4.0655,4.0415,4.0466,4.043,4.0325,4.0379,4.0382,4.031,4.0272,4.0272,4.0253,4.0253,4.0234,4.0234,4.0234,4.0234,4.0176,3.9813,3.9524,3.9249,2.5312,2.5312,2.5523,2.6082,2.6496,2.6905,2.7443,2.7776,2.8052,2.8249,2.8327,2.8392,2.8587,2.8587,2.8587,2.8587,2.8587,2.8587,2.8587,2.8587,2.8587,2.8587,2.8587,2.8766,2.917,3.0025,3.0703,3.1116,3.1992,3.2523,3.2718,3.2773,3.2935,3.315,3.3203,3.3256,3.3309,3.3309,3.3309,3.3309,3.3309,3.3309,3.3346,3.3899,3.3949,3.3899,3.4673,3.5128,3.5402,3.5715,3.6199,3.6643,3.6684,3.6766,3.6829,3.6908,3.6948,3.6987,3.6948,3.6948,3.7027,3.7143,3.7279,3.7559,3.8201,3.846,3.8707,3.9346,3.9425,3.9425,3.9577,3.9596,3.9602,3.9703,3.9727,3.9848,4.0269,4.0321,4.0438,4.0764,4.08,4.0792,4.0807,4.0837,4.0868,4.0897,4.0953,4.0983,4.1043,4.1073,4.1099,4.1111,4.1104,4.1047,4.0921,4.0791,4.068,4.0519,4.0463,4.0415,4.0362,4.0362,4.0307,4.029,4.0291,4.0291,4.0234,4.0234,4.0196,4.0176,4.0234,3.9996,3.9693,3.9916,3.9451,3.8789,2.5312,2.5312,2.5523,2.6289,2.6769,2.7242,2.7908,2.8392,2.8587,2.8587,2.8587,2.8587,2.8587,2.8587,2.8587,2.8587,2.8587,2.8587,2.8587,2.8716,2.8716,2.8587,2.8587,2.8817,2.9219,3.0072,3.0807,3.1233,3.212,3.2648,3.2897,3.2951,3.3058,3.3256,3.3309,3.3309,3.3309,3.3309,3.3309,3.3309,3.3309,3.3309,3.3346,3.3899,3.4101,3.4184,3.4752,3.5295,3.5742,3.589,3.6301,3.6725,3.6766,3.6846,3.6869,3.697,3.6987,3.6987,3.6987,3.6987,3.7066,3.7259,3.7297,3.7503,3.83,3.851,3.8695,3.9373,3.9495,3.952,3.9596,3.9602,3.9602,3.9602,3.9602,3.9731,4.0139,4.0196,4.0353,4.0757,4.0792,4.0815,4.0828,4.0868,4.0898,4.0898,4.0932,4.098,4.101,4.1053,4.1108,4.1108,4.1097,4.1072,4.1033,4.0801,4.0667,4.0579,4.0427,4.0381,4.0363,4.0307,4.0289,4.0308,4.031,4.0253,4.0196,4.0196,4.0157,4.0098,4.0157,3.9933,3.9599,3.9892,3.9489,3.8789,2.5312,2.5312,2.5652,2.6837,2.6973,2.7377,2.8457,2.8587,2.8587,2.8587,2.8587,2.8587,2.8587,2.8587,2.8587,2.8587,2.8587,2.8587,2.8587,2.8908,2.8972,2.8651,2.8587,2.8587,2.8587,2.995,3.0719,3.0719,3.2176,3.2912,3.2897,3.3058,3.3096,3.3112,3.3256,3.3309,3.3309,3.3309,3.3309,3.3309,3.3309,3.3309,3.3346,3.3899,3.4101,3.4184,3.48,3.5295,3.5759,3.6011,3.6426,3.6811,3.6948,3.6987,3.6987,3.6987,3.6987,3.6987,3.6987,3.6987,3.7066,3.7259,3.7297,3.7503,3.8332,3.8491,3.8695,3.9373,3.9495,3.952,3.9596,3.9602,3.9602,3.9602,3.9602,3.9731,4.0139,4.0196,4.0353,4.0754,4.0807,4.0828,4.0878,4.0907,4.0907,4.0907,4.0907,4.0933,4.1007,4.1053,4.1108,4.1108,4.1109,4.1091,4.1091,4.0849,4.0636,4.0489,4.0377,4.0308,4.031,4.0308,4.029,4.031,4.031,4.0253,4.0196,4.0196,4.0157,4.0096,4.0117,4.0096,4.0057,3.9735,3.9599,3.9551,2.5312,2.5664,2.6013,2.6358,2.704,2.7643,2.7987,2.8392,2.8587,2.8587,2.8587,2.8587,2.8587,2.8587,2.8587,2.8587,2.8587,2.883,2.9387,2.9512,2.9794,3.0225,2.9623,2.9162,2.8972,3.004,3.0569,3.0569,3.1823,3.2484,3.2578,3.2935,3.315,3.3256,3.3309,3.3309,3.3309,3.3309,3.3309,3.3309,3.3309,3.3398,3.3658,3.4201,3.4497,3.4787,3.5616,3.6011,3.6182,3.6574,3.6811,3.6948,3.6987,3.6987,3.6987,3.6987,3.6987,3.6987,3.6987,3.6987,3.7087,3.7447,3.7521,3.7739,3.8572,3.8773,3.895,3.9476,3.9571,3.9596,3.9596,3.9602,3.9602,3.9602,3.9602,3.9731,4.0139,4.0196,4.0353,4.0754,4.0807,4.0828,4.0878,4.0907,4.0907,4.0907,4.0949,4.098,4.101,4.1054,4.1107,4.1111,4.1109,4.1091,4.1091,4.0932,4.0776,4.0629,4.0485,4.0396,4.031,4.031,4.0291,4.031,4.031,4.0234,4.0137,4.0137,4.0057,3.9954,3.9996,3.9889,3.9712,3.9826,3.9561,3.9189,2.5312,2.5804,2.6302,2.6496,2.7242,2.7855,2.8052,2.8392,2.8587,2.8587,2.8587,2.8587,2.8587,2.8587,2.8587,2.8587,2.8716,2.9022,2.9512,2.9775,3.0176,3.0645,3.0404,3.0129,2.9842,3.0659,3.113,3.113,3.2145,3.2687,3.2742,3.3027,3.3203,3.3309,3.3309,3.3309,3.3309,3.3309,3.3309,3.3309,3.3309,3.345,3.3761,3.405,3.4578,3.5195,3.5793,3.6199,3.6568,3.6891,3.6987,3.6987,3.6987,3.6987,3.6987,3.6987,3.6987,3.7027,3.7105,3.7185,3.7319,3.7649,3.7667,3.781,3.8695,3.891,3.9036,3.9502,3.9602,3.9602,3.9602,3.9602,3.9602,3.9602,3.9602,3.9731,4.0139,4.0196,4.0353,4.0754,4.0807,4.0828,4.0878,4.0907,4.0907,4.0907,4.0961,4.1003,4.0991,4.1054,4.1105,4.1111,4.1109,4.1091,4.1091,4.1025,4.0917,4.0784,4.0588,4.046,4.0381,4.0328,4.031,4.031,4.0272,4.0215,4.0096,4.0077,4.0015,3.9911,3.9933,3.9826,3.967,3.9889,3.9698,3.9371,2.5312,2.5804,2.6427,2.6892,2.751,2.8052,2.8522,2.8587,2.8587,2.8587,2.8587,2.8587,2.8587,2.8651,2.8651,2.8651,2.8972,2.9162,2.9226,2.9851,3.0312,3.051,3.1131,3.1349,3.1101,3.1747,3.2084,3.2084,3.2873,3.324,3.324,3.3293,3.3309,3.3309,3.3309,3.3309,3.3309,3.3309,3.3309,3.3293,3.3346,3.3503,3.3745,3.3797,3.4448,3.5419,3.552,3.6079,3.6788,3.6948,3.6987,3.6987,3.6987,3.6987,3.7009,3.7027,3.7027,3.7048,3.7279,3.7487,3.7667,3.7898,3.781,3.788,3.8713,3.891,3.9036,3.9502,3.9602,3.9602,3.9602,3.9602,3.9602,3.9602,3.9602,3.9731,4.0139,4.0196,4.0353,4.0754,4.0807,4.0828,4.0878,4.0907,4.0907,4.0907,4.0953,4.1007,4.0991,4.1053,4.1091,4.1108,4.1105,4.1091,4.1091,4.1103,4.103,4.0907,4.0642,4.0534,4.0519,4.0379,4.0328,4.031,4.0253,4.0157,4.0077,4.0036,3.9954,3.9889,3.9889,3.9889,3.9889,3.9889,3.9889,3.9889,2.5312,2.6139,2.6837,2.6973,2.7776,2.8457,2.8587,2.8587,2.8587,2.8587,2.8587,2.8587,2.8587,2.8844,2.8972,2.8972,2.9289,2.9775,3.0418,3.0866,3.1435,3.2074,3.2602,3.285,3.2765,3.2256,3.1921,3.1921,3.2492,3.2765,3.2765,3.3134,3.3309,3.3309,3.3309,3.3309,3.3309,3.3309,3.3309,3.3346,3.3745,3.3949,3.405,3.4497,3.4961,3.5453,3.5715,3.6139,3.6626,3.6908,3.6987,3.6987,3.6987,3.6987,3.7027,3.7182,3.722,3.7317,3.7685,3.7808,3.7928,3.8346,3.8249,3.8234,3.8755,3.891,3.9036,3.9502,3.9602,3.9602,3.9602,3.9602,3.9602,3.9602,3.9602,3.9731,4.0139,4.0196,4.0353,4.0754,4.0807,4.0828,4.0878,4.0907,4.0907,4.0907,4.0967,4.0994,4.0991,4.1054,4.1101,4.1097,4.1096,4.11,4.11,4.1097,4.103,4.0907,4.0839,4.0754,4.0655,4.0635,4.0564,4.046,4.0392,4.0252,4.0077,4.0036,3.9954,3.9889,3.9889,3.9889,3.9889,3.9889,3.9889,3.9889,2.607,2.6824,2.7377,2.7377,2.8052,2.8587,2.8587,2.8587,2.8587,2.8587,2.8587,2.8587,2.8587,2.8908,2.9162,2.9289,2.9837,3.0372,3.0777,3.1349,3.1905,3.2586,3.2834,3.3065,3.3309,3.285,3.2563,3.2563,3.2834,3.2942,3.2942,3.3187,3.3309,3.3309,3.3309,3.3309,3.3309,3.345,3.3503,3.3555,3.4118,3.4415,3.4561,3.5021,3.5481,3.5958,3.6114,3.6426,3.6788,3.6948,3.6987,3.6987,3.6987,3.6987,3.7027,3.722,3.7297,3.7392,3.7895,3.8147,3.831,3.8676,3.8688,3.8748,3.8989,3.8979,3.9036,3.9502,3.9602,3.9602,3.9602,3.9602,3.9602,3.9602,3.9679,3.9848,4.0158,4.0286,4.045,4.0765,4.0807,4.0828,4.0878,4.0907,4.0907,4.0907,4.0968,4.1007,4.0991,4.1054,4.1094,4.1094,4.1091,4.1095,4.1095,4.1097,4.1052,4.0988,4.0926,4.0859,4.0787,4.073,4.0615,4.0489,4.0406,4.0251,4.0077,3.9975,3.9933,3.9889,3.9889,3.9889,3.9889,3.9889,3.9889,3.9889,2.6769,2.7377,2.7776,2.7776,2.8249,2.8587,2.8587,2.8651,2.8716,2.8716,2.8716,2.878,2.878,2.9149,2.9526,2.9837,3.0539,3.1014,3.1014,3.1637,3.2201,3.2586,3.2656,3.2888,3.3309,3.3309,3.3309,3.3309,3.3309,3.3309,3.3309,3.3309,3.3309,3.3309,3.3361,3.3361,3.3398,3.3642,3.3745,3.3848,3.4496,3.4816,3.5068,3.5476,3.6011,3.6502,3.6502,3.6708,3.6987,3.6987,3.7009,3.7066,3.7066,3.7048,3.7126,3.7334,3.741,3.754,3.815,3.8473,3.8688,3.895,3.912,3.921,3.9256,3.912,3.9064,3.9502,3.9602,3.9602,3.9626,3.9626,3.9607,3.965,3.98,3.9998,4.0214,4.0372,4.0579,4.0796,4.0818,4.0839,4.0888,4.0907,4.0907,4.0907,4.0959,4.0991,4.0991,4.1068,4.109,4.109,4.1106,4.1089,4.1089,4.1097,4.111,4.111,4.0988,4.0935,4.0926,4.0807,4.0655,4.0534,4.0386,4.0213,4.0096,3.9973,3.9889,3.9889,3.9889,3.9889,3.9889,3.9889,3.9889,3.9889,2.6289,2.7108,2.7776,2.7776,2.8249,2.8587,2.8587,2.8844,2.9035,2.9035,2.9289,2.9477,2.9477,3.0129,3.0718,3.1043,3.1495,3.1766,3.1766,3.2201,3.2532,3.2586,3.3011,3.324,3.3309,3.3309,3.3309,3.3309,3.3309,3.3309,3.3309,3.3309,3.3309,3.3293,3.3555,3.3658,3.3642,3.3949,3.405,3.4151,3.4958,3.5144,3.5068,3.5881,3.6301,3.6502,3.6502,3.6708,3.6987,3.6987,3.7105,3.7259,3.7259,3.7372,3.7558,3.7757,3.7828,3.7951,3.8621,3.8833,3.895,3.9406,3.9335,3.9264,3.9483,3.9335,3.9237,3.9552,3.9602,3.9626,3.9689,3.9689,3.9735,3.9845,3.9889,4.0019,4.0339,4.0406,4.053,4.0856,4.0878,4.0878,4.0907,4.0907,4.0907,4.0907,4.0959,4.0991,4.0991,4.1064,4.1096,4.1096,4.1109,4.1091,4.1091,4.1091,4.111,4.111,4.1078,4.1078,4.1071,4.0935,4.0807,4.0655,4.0415,4.0213,4.0096,3.9973,3.9889,3.9889,3.9889,3.9889,3.9889,3.9889,3.9889,3.9889,2.7443,2.8039,2.8509,2.8509,2.8587,2.8651,2.8844,2.8972,2.9162,2.9352,2.9477,2.9602,2.9602,3.0083,3.0628,3.1219,3.1667,3.1992,3.2256,3.2726,3.2996,3.2996,3.3187,3.3309,3.3309,3.3309,3.3309,3.3309,3.3309,3.3309,3.3309,3.3309,3.3309,3.3293,3.3607,3.3694,3.3761,3.4151,3.4349,3.4382,3.5328,3.5599,3.5599,3.6409,3.6731,3.6788,3.6788,3.6851,3.7027,3.7143,3.722,3.7334,3.7447,3.7521,3.7631,3.7828,3.7899,3.8054,3.8713,3.891,3.9007,3.9476,3.9508,3.9458,3.9577,3.9527,3.9458,3.9577,3.9602,3.9602,3.9656,3.9637,3.9684,3.9781,3.9939,4.0158,4.0372,4.0526,4.0694,4.0886,4.0908,4.0907,4.0907,4.0907,4.0907,4.0907,4.0959,4.0991,4.0991,4.1064,4.1091,4.1091,4.1103,4.111,4.111,4.111,4.111,4.111,4.111,4.111,4.1104,4.0971,4.0828,4.0681,4.0415,4.0213,4.0096,3.9973,3.9889,3.9889,3.9889,3.9889,3.9889,3.9889,3.9889,3.9889]}]]